[[{"header":{"parameterUnit":"m.s-1","parameterCategory":1,"la1":30.6,"la2":29.2853,"lo1":-89.7004,"lo2":-87.6739,"dy":0.0162,"dx":0.0183,"nx":112,"ny":82,"refTime":"2024-05-29T06:00:00:Z","depth":0,"parameterNumber":2,"parameterNumberName":"U-component_of_WINDS"},"data":[0.0,0.0,0.0,0.0,0.0,0.0,0.0,0.0,0.0,0.0,0.0,0.0,0.0,0.0,0.0,0.0,0.0,0.0,0.0,0.0,0.0,0.0,0.0,0.0,0.0,0.0,0.0,0.0,0.0,0.0,0.0,0.0,0.0,0.0,0.0,0.0,0.0,0.0,0.0,0.0,0.0,0.0,0.0,0.0,0.0,0.0,0.0,0.0,0.0,0.0,0.0,0.0,0.0,0.0,0.0,0.0,0.0,0.0,0.0,0.0,0.0,0.0,0.0,0.0,0.0,0.0,0.0,0.0,0.0,0.0,0.0,0.0,0.0,0.0,0.0,0.0,0.0,0.0,0.0,0.0,0.0,0.0,0.0,0.0,0.0,0.0,0.0,0.0,0.0,0.0,0.0,1.6729,1.9133,2.0632,2.0574,2.0054,1.8346,1.509,0.0,0.0,0.0,0.0,0.0,0.0,0.0,0.0,0.0,0.0,0.0,0.0,0.0,0.0,0.0,0.0,0.0,0.0,0.0,0.0,0.0,0.0,0.0,0.0,0.0,0.0,0.0,0.0,0.0,0.0,0.0,0.0,0.0,0.0,0.0,0.0,0.0,0.0,0.0,0.0,0.0,0.0,0.0,0.0,0.0,0.0,0.0,0.0,0.0,0.0,0.0,0.0,0.0,0.0,0.0,0.0,0.0,0.0,0.0,0.0,0.0,0.0,0.0,0.0,0.0,0.0,0.0,0.0,0.0,0.0,0.0,0.0,0.0,0.0,0.0,0.0,0.0,0.0,0.0,0.0,0.0,0.0,0.0,0.0,0.0,0.0,0.0,0.0,0.0,0.0,0.0,0.0,0.0,0.0,0.0,0.0,0.0,0.0,0.0,0.0,0.0,0.0,0.0,0.0,1.575,1.9378,2.0763,2.1297,2.0957,1.9514,1.7773,1.5758,0.0,0.0,0.0,0.0,0.0,0.0,0.0,0.0,0.0,0.0,0.0,0.0,0.0,0.0,0.0,0.0,0.0,0.0,0.0,0.0,0.0,0.0,0.0,0.0,0.0,0.0,0.0,0.0,0.0,0.0,0.0,0.0,0.0,0.0,0.0,0.0,0.0,0.0,0.0,0.0,0.0,0.0,0.0,0.0,0.0,0.0,0.0,0.0,0.0,0.0,0.0,0.0,0.0,0.0,0.0,0.0,0.0,0.0,0.0,0.0,0.0,0.0,0.0,0.0,0.0,0.0,0.0,0.0,0.0,0.0,0.0,0.0,0.0,0.0,0.0,0.0,0.0,0.0,0.0,0.0,0.0,0.0,0.0,0.0,0.0,0.0,0.0,0.0,0.0,0.0,0.0,0.0,0.0,0.0,0.0,0.0,0.0,0.0,0.0,0.0,0.0,0.0,0.0,1.5389,1.6866,1.9874,2.1039,2.1521,2.1337,1.9681,1.799,1.6433,1.4147,0.0,0.0,0.0,0.0,0.0,0.0,0.0,0.0,0.0,0.0,0.0,0.0,0.0,0.0,0.0,0.0,0.0,0.0,0.0,0.0,0.0,0.0,0.0,0.0,0.0,0.0,0.0,0.0,0.0,0.0,0.0,0.0,0.0,0.0,0.0,0.0,0.0,0.0,0.0,0.0,0.0,0.0,0.0,0.0,0.0,0.0,0.0,0.0,0.0,0.0,0.0,0.0,0.0,0.0,0.0,0.0,0.0,0.0,0.0,0.0,0.0,0.0,0.0,0.0,0.0,0.0,0.0,0.0,0.0,0.0,0.0,0.0,0.0,0.0,0.0,0.0,0.0,0.0,0.0,0.0,0.0,0.0,0.0,0.0,0.0,0.0,0.0,0.0,0.0,0.0,0.0,0.0,0.0,0.0,0.0,0.0,0.0,0.0,0.0,0.0,0.0,0.0,1.6877,1.8366,1.9841,2.0971,2.1582,2.1582,1.9712,1.8028,1.6775,1.376,0.0,0.0,0.0,0.0,0.0,0.0,0.0,0.0,0.0,0.0,0.0,0.0,0.0,0.0,0.0,0.0,0.0,0.0,0.0,0.0,0.0,0.0,0.0,0.0,0.0,0.0,0.0,0.0,0.0,0.0,0.0,0.0,0.0,0.0,0.0,0.0,0.0,0.0,0.0,0.0,0.0,0.0,0.0,0.0,0.0,0.0,0.0,0.0,0.0,0.0,0.0,0.0,0.0,0.0,0.0,0.0,0.0,0.0,0.0,0.0,0.0,0.0,0.0,0.0,0.0,0.0,0.0,0.0,0.0,0.0,0.0,0.0,0.0,0.0,0.0,0.0,0.0,0.0,0.0,0.0,0.0,0.0,0.0,0.0,0.0,0.0,0.0,0.0,0.0,0.0,0.0,0.0,0.0,0.0,0.0,0.0,0.0,0.0,0.0,0.0,0.0,0.0,1.7524,2.0117,1.9993,2.0971,2.1582,2.1582,1.9087,1.7214,1.6463,1.3131,0.0,0.0,0.0,0.0,0.0,0.0,0.0,0.0,0.0,0.0,0.0,0.0,0.0,0.0,0.0,0.0,0.0,0.0,0.0,0.0,0.0,0.0,0.0,0.0,0.0,0.0,0.0,0.0,0.0,0.0,0.0,0.0,0.0,0.0,0.0,0.0,0.0,0.0,0.0,0.0,0.0,0.0,0.0,0.0,0.0,0.0,0.0,0.0,0.0,0.0,0.0,0.0,0.0,0.0,0.0,0.0,0.0,0.0,0.0,0.0,0.0,0.0,0.0,0.0,0.0,0.0,0.0,0.0,0.0,0.0,0.0,0.0,0.0,0.0,0.0,0.0,0.0,0.0,0.0,0.0,0.0,0.0,0.0,0.0,0.0,0.0,0.0,0.0,0.0,0.0,0.0,0.0,0.0,0.0,0.0,0.0,0.0,0.0,0.0,0.0,0.0,0.0,1.6932,1.9284,0.0,2.1513,2.1848,2.1379,1.9936,1.8051,1.578,0.0,0.0,0.0,0.0,0.0,0.0,0.0,0.0,0.0,0.0,0.0,0.0,0.0,0.0,0.0,0.0,0.0,0.0,0.0,0.0,0.0,0.0,0.0,0.0,0.0,0.0,0.0,0.0,0.0,0.0,0.0,0.0,0.0,0.0,0.0,0.0,0.0,0.0,0.0,0.0,0.0,0.0,0.0,0.0,0.0,0.0,0.0,0.0,0.0,0.0,0.0,0.0,0.0,0.0,0.0,0.0,0.0,0.0,0.0,0.0,0.0,0.0,0.0,0.0,0.0,0.0,0.0,0.0,0.0,0.0,0.0,0.0,0.0,0.0,0.0,0.0,0.0,0.0,0.0,0.0,0.0,0.0,0.0,0.0,0.0,0.0,0.0,0.0,0.0,0.0,0.0,0.0,0.0,0.0,0.0,0.0,0.0,0.0,0.0,0.0,0.0,0.0,1.44,1.6804,1.901,0.0,2.1625,2.1776,2.1049,2.0075,1.8298,1.5378,0.0,0.0,0.0,0.0,0.0,0.0,0.0,0.0,0.0,0.0,0.0,0.0,0.0,0.0,0.0,0.0,0.0,0.0,0.0,0.0,0.0,0.0,0.0,0.0,0.0,0.0,0.0,0.0,0.0,0.0,0.0,0.0,0.0,0.0,0.0,0.0,0.0,0.0,0.0,0.0,0.0,0.0,0.0,0.0,0.0,0.0,0.0,0.0,0.0,0.0,0.0,0.0,0.0,0.0,0.0,0.0,0.0,0.0,0.0,0.0,0.0,0.0,0.0,0.0,0.0,0.0,0.0,0.0,0.0,0.0,0.0,0.0,0.0,0.0,0.0,0.0,0.0,0.0,0.0,0.0,0.0,0.0,0.0,0.0,0.0,0.0,0.0,0.0,0.0,0.0,0.0,0.0,0.0,0.0,0.0,0.0,0.0,0.0,0.0,0.0,0.0,0.0,1.4428,1.7365,1.9695,2.0414,2.1154,2.1286,2.0545,1.9287,1.7557,0.0,0.0,0.0,0.0,0.0,0.0,0.0,0.0,0.0,0.0,0.0,0.0,0.0,0.0,0.0,0.0,0.0,0.0,0.0,0.0,0.0,0.0,0.0,0.0,0.0,0.0,0.0,0.0,0.0,0.0,0.0,0.0,0.0,0.0,0.0,0.0,0.0,0.0,0.0,0.0,0.0,0.0,0.0,0.0,0.0,0.0,0.0,0.0,0.0,0.0,0.0,0.0,0.0,0.0,0.0,0.0,0.0,0.0,0.0,0.0,0.0,0.0,0.0,0.0,0.0,0.0,0.0,0.0,0.0,0.0,0.0,0.0,0.0,0.0,0.0,0.0,0.0,0.0,0.0,0.0,0.0,0.0,0.0,0.0,0.0,0.0,0.0,0.0,0.0,0.0,0.0,0.0,0.0,0.0,0.0,0.0,0.0,0.0,0.0,0.0,0.0,0.0,0.0,0.0,1.7681,1.9876,2.1138,2.1467,2.1088,1.9827,1.9617,1.795,1.4168,0.0,0.0,0.0,0.0,0.0,0.0,0.0,0.0,0.0,0.0,0.0,0.0,0.0,0.0,0.0,0.0,0.0,0.0,0.0,0.0,0.0,0.0,0.0,0.0,0.0,0.0,0.0,0.0,0.0,0.0,0.0,0.0,0.0,0.0,0.0,0.0,0.0,0.0,0.0,0.0,0.0,0.0,0.0,0.0,0.0,0.0,0.0,0.0,0.0,0.0,0.0,0.0,0.0,0.0,0.0,0.0,0.0,0.0,0.0,0.0,0.0,0.0,0.0,0.0,0.0,0.0,0.0,0.0,0.0,0.0,0.0,0.0,0.0,0.0,0.0,0.0,0.0,0.0,0.0,0.0,0.0,0.0,0.0,0.0,0.0,0.0,0.0,0.0,0.0,0.0,0.0,0.0,0.0,0.0,0.0,0.0,0.0,0.0,0.0,0.0,0.0,0.0,1.5595,1.7756,1.9644,2.0941,2.1228,2.0882,1.9686,1.9867,1.8346,1.4531,0.0,0.0,0.0,0.0,0.0,0.0,0.0,0.0,0.0,0.0,0.0,0.0,0.0,0.0,0.0,0.0,0.0,0.0,0.0,0.0,0.0,0.0,0.0,0.0,0.0,0.0,0.0,0.0,0.0,0.0,0.0,0.0,0.0,0.0,0.0,0.0,0.0,0.0,0.0,0.0,0.0,0.0,0.0,0.0,0.0,0.0,0.0,0.0,0.0,0.0,0.0,0.0,0.0,0.0,0.0,0.0,0.0,0.0,0.0,0.0,0.0,0.0,0.0,0.0,0.0,0.0,0.0,0.0,0.0,0.0,0.0,0.0,0.0,0.0,0.0,0.0,0.0,0.0,0.0,0.0,0.0,0.0,0.0,0.0,0.0,0.0,0.0,0.0,0.0,0.0,0.0,0.0,0.0,0.0,0.0,0.0,0.0,0.0,0.0,0.0,0.0,0.0,1.5889,1.7695,1.9198,2.026,2.0731,2.0655,1.9939,1.9926,1.8728,1.5883,0.0,0.0,0.0,0.0,0.0,0.0,0.0,0.0,0.0,0.0,0.0,0.0,0.0,0.0,0.0,0.0,0.0,0.0,0.0,0.0,0.0,0.0,0.0,0.0,0.0,0.0,0.0,0.0,0.0,0.0,0.0,0.0,0.0,0.0,0.0,0.0,0.0,0.0,0.0,0.0,0.0,0.0,0.0,0.0,0.0,0.0,0.0,0.0,0.0,0.0,0.0,0.0,0.0,0.0,0.0,0.0,0.0,0.0,0.0,0.0,1.1962,0.0,0.0,0.0,0.0,0.0,0.0,0.0,0.0,0.0,0.0,0.0,0.0,0.0,0.0,0.0,0.0,0.0,0.0,0.0,0.0,0.0,0.0,0.0,0.0,0.0,0.0,0.0,0.0,0.0,0.0,0.0,0.0,0.0,0.0,0.0,0.0,0.0,0.0,0.0,0.0,0.0,1.6011,1.7759,1.9319,2.0719,2.0616,2.0316,1.9939,1.9658,1.866,1.661,0.0,0.0,0.0,0.0,0.0,0.0,0.0,0.0,0.0,0.0,0.0,0.0,0.0,0.0,0.0,0.0,0.0,0.0,0.0,0.0,0.0,0.0,0.0,0.0,0.0,0.0,0.0,0.0,0.0,0.0,0.0,0.0,0.0,0.0,0.0,0.0,0.0,0.0,0.0,0.0,0.0,0.0,0.0,0.0,0.0,0.0,0.0,0.0,0.0,0.0,0.0,0.0,0.0,0.0,0.0,0.0,0.0,0.0,0.0,0.0,0.0,1.3133,0.0,0.0,0.0,0.0,0.0,0.0,0.0,0.0,0.0,0.0,0.0,0.0,0.0,0.0,0.0,0.0,0.0,0.0,0.0,0.0,0.0,0.0,0.0,0.0,0.0,0.0,0.0,0.0,0.0,0.0,0.0,0.0,0.0,0.0,0.0,0.0,0.0,0.0,0.0,0.0,1.6495,1.842,1.9897,2.0572,2.0649,2.0589,2.0432,2.0134,1.9296,1.7862,1.6356,0.0,0.0,0.0,0.0,0.0,0.0,0.0,0.0,0.0,0.0,0.0,0.0,0.0,0.0,0.0,0.0,0.0,0.0,0.0,0.0,0.0,0.0,0.0,0.0,0.0,0.0,0.0,0.0,0.0,0.0,0.0,0.0,0.0,0.0,0.0,0.0,0.0,0.0,0.0,0.0,0.0,0.0,0.0,0.0,0.0,0.0,0.0,0.0,0.0,0.0,0.0,0.0,0.0,1.6824,1.7078,1.7286,1.7188,1.7348,1.7578,1.6245,1.6054,1.6517,0.0,0.0,0.0,0.0,0.0,0.0,0.0,0.0,0.0,0.0,0.0,0.0,0.0,0.0,0.0,0.0,0.0,0.0,0.0,0.0,0.0,0.0,0.0,0.0,0.0,1.8747,1.8535,0.0,0.0,0.0,0.0,0.0,0.0,0.0,0.0,0.0,0.0,0.0,0.0,1.719,1.9246,2.0524,2.0522,2.0813,2.1039,2.1086,2.073,2.0102,1.9157,1.7693,1.597,0.0,0.0,0.0,0.0,0.0,0.0,0.0,0.0,0.0,0.0,0.0,0.0,0.0,0.0,0.0,0.0,0.0,0.0,0.0,0.0,0.0,0.0,0.0,0.0,0.0,0.0,0.0,0.0,0.0,0.0,0.0,0.0,1.0366,1.1075,0.0,0.0,0.0,0.0,0.0,0.0,0.0,0.0,0.0,0.0,0.0,0.0,0.0,0.0,1.6837,1.8193,1.8757,1.8454,1.9727,2.0382,2.0368,1.9969,1.9834,1.9844,1.9299,0.0,1.6651,1.605,0.0,0.0,0.0,0.0,0.0,0.0,0.0,0.0,0.0,0.0,0.0,0.0,0.0,0.0,0.0,0.0,0.0,0.0,0.0,0.0,0.0,0.0,2.0372,2.02,2.0218,2.0285,0.0,1.8274,1.6174,1.5325,0.0,0.0,0.0,0.0,0.0,0.0,0.0,0.0,1.8079,1.9596,2.0747,2.1379,2.1181,2.115,2.1491,2.0878,2.0318,1.9875,1.8488,1.6948,1.5375,1.3887,0.0,0.0,0.0,0.0,0.0,0.0,0.0,0.0,0.0,0.0,0.0,0.0,0.0,0.0,0.0,0.0,0.0,0.0,0.0,0.0,0.0,0.0,0.0,0.0,0.0,0.0,0.0,0.0,0.0,1.0389,1.1766,1.2748,1.2921,1.2914,0.0,0.0,0.0,0.0,0.0,0.0,0.0,0.0,0.0,1.7896,1.8107,1.8485,1.9055,1.989,2.0271,2.0203,2.0881,2.1245,2.1378,2.1194,2.1083,2.1083,2.0911,2.0318,1.937,1.7777,1.6649,1.5934,0.0,0.0,0.0,0.0,0.0,1.6797,1.8162,1.8677,0.0,0.0,0.0,0.0,0.0,0.0,0.0,0.0,0.0,0.0,0.0,0.0,0.0,2.0728,2.0956,2.1163,2.1371,2.0579,1.9367,0.0,1.7185,1.6373,1.4479,0.0,0.0,0.0,0.0,0.0,1.9186,2.0609,2.1532,2.1579,2.143,2.1399,2.1582,2.1286,2.0981,2.0694,1.963,1.8363,1.6898,1.5409,1.3956,0.0,0.0,0.0,0.0,0.0,0.0,0.0,0.0,0.0,0.0,0.0,0.0,0.0,0.0,0.0,0.0,0.0,0.0,0.0,0.0,0.0,0.0,0.0,0.0,0.0,0.0,0.0,0.0,1.18,1.3304,1.4344,1.4959,1.5181,0.0,0.0,0.0,0.0,0.0,0.0,1.749,1.8251,1.9096,2.001,2.0304,2.0669,2.1168,2.1424,2.1487,2.1397,2.1397,2.15,2.1695,2.1695,2.1695,2.1695,2.1695,2.1695,2.1545,1.9555,1.8695,1.8606,1.8064,1.7808,1.7951,1.9277,1.9753,1.998,2.1511,2.205,2.1904,2.1143,0.0,1.9266,1.8189,0.0,0.0,0.0,0.0,1.8888,1.9324,1.9909,2.052,2.1191,2.1521,2.1738,2.1831,2.2091,2.1752,0.0,1.9486,1.8826,1.6796,0.0,0.0,0.0,0.0,1.9452,2.0204,2.1481,2.218,2.1823,2.1794,2.1794,2.1794,2.1794,2.1611,2.1228,2.045,1.941,1.8132,1.6661,1.5276,0.0,0.0,0.0,0.0,0.0,0.0,0.0,0.0,0.0,0.0,0.0,0.0,0.0,0.0,0.0,0.0,0.0,0.0,0.0,0.0,0.0,0.0,0.0,0.0,0.0,0.0,0.0,0.0,0.0,0.0,1.5629,1.7232,0.0,0.0,0.0,0.0,1.6589,1.7912,1.9063,1.9782,2.0585,2.1695,2.3122,2.3207,2.3102,2.2978,2.2991,2.2556,2.1674,2.1674,2.1704,2.1695,2.1695,2.1695,2.1695,2.1695,2.1695,2.168,2.1545,2.1402,2.135,2.1621,2.1649,2.1648,2.2769,2.3144,2.3274,2.4052,2.4337,2.4218,2.346,2.2243,2.1085,2.1,2.018,0.0,0.0,2.0209,2.0277,2.1011,2.1408,2.1726,2.2132,2.2094,2.2083,2.2475,2.2428,2.2073,0.0,2.1085,2.0594,1.8995,0.0,1.8724,1.8724,1.9435,2.0221,2.1025,2.182,2.2282,2.2282,2.2254,2.2254,2.2254,2.2254,2.1961,2.1254,2.045,1.9647,1.8877,1.7444,1.6336,1.5687,1.4229,0.0,0.0,0.0,0.0,0.0,0.0,0.0,0.0,0.0,0.0,0.0,0.0,0.0,0.0,0.0,0.0,0.0,0.0,0.0,0.0,0.0,0.0,0.0,0.0,0.0,0.0,0.0,0.0,1.8025,1.8942,0.0,0.0,1.8785,1.8985,1.9553,2.0086,2.0703,2.1421,2.2209,2.2852,2.3376,2.3606,2.367,2.3618,2.2961,2.2705,2.2769,2.2511,2.2532,2.2921,2.2921,2.2921,2.2921,2.2921,2.3115,2.3467,2.3467,2.2925,2.2165,2.2907,2.3178,2.3222,2.3863,2.4103,2.4137,2.4421,2.4506,2.4472,2.4201,2.3731,2.3338,2.3338,2.2775,2.2177,2.2167,2.1869,2.1541,2.1576,2.1618,2.1798,2.2278,2.2555,2.2838,2.3326,2.3591,2.363,2.3359,2.2547,2.1583,2.0577,2.0771,2.0923,2.0433,2.1008,2.16,2.187,2.2141,2.231,2.231,2.231,2.231,2.231,2.231,2.1989,2.1254,2.045,1.9664,1.8927,1.7929,1.7071,1.6387,1.5553,1.42,0.0,0.0,0.0,0.0,0.0,0.0,0.0,0.0,0.0,0.0,0.0,0.0,0.0,0.0,0.0,0.0,0.0,0.0,0.0,0.0,0.0,0.0,0.0,0.0,0.0,0.0,1.8254,1.9365,2.027,2.0669,2.0432,2.0435,2.086,2.187,2.1921,2.2243,2.3004,2.3511,2.3883,2.4137,2.4165,2.4331,2.4595,2.3754,2.3582,2.3983,2.3699,2.3677,2.3879,2.3879,2.3752,2.3595,2.3794,2.4074,2.443,2.4776,2.4395,2.3681,2.4372,2.4696,2.4863,2.5124,2.522,2.522,2.522,2.5067,2.4864,2.4864,2.4678,2.4506,2.4506,2.416,2.372,2.3416,2.3171,2.2867,2.2632,2.2724,2.2971,2.3271,2.3506,2.3772,2.4148,2.436,2.4506,2.4506,2.3511,2.2513,2.2023,2.2141,2.2141,2.1634,2.1989,2.231,2.231,2.231,2.231,2.231,2.231,2.231,2.231,2.231,2.209,2.16,2.0585,1.9765,1.9299,1.8335,1.7618,1.7198,1.6515,1.5302,1.3541,0.0,0.0,0.0,0.0,0.0,0.0,0.0,0.0,0.0,0.0,0.0,0.0,0.0,0.0,0.0,0.0,0.0,0.0,0.0,0.0,0.0,0.0,0.0,1.6052,1.8178,1.9724,1.9601,2.1189,2.2023,2.1295,2.1904,2.2632,2.3342,2.341,2.3748,2.4472,2.4523,2.4847,2.5542,2.5095,2.5236,2.5997,2.5486,2.5221,2.5221,2.5182,2.491,2.443,2.4389,2.4116,2.3681,2.4199,2.443,2.4552,2.5577,2.6013,2.6013,2.6013,2.6297,2.6691,2.6691,2.6691,2.6691,2.6691,2.6234,2.5642,2.5642,2.5152,2.4574,2.4574,2.4292,2.3984,2.3984,2.4104,2.4232,2.4232,2.4708,2.5205,2.5221,2.5025,2.4839,2.4855,2.4696,2.4574,2.4574,2.3968,2.3444,2.341,2.2818,2.2344,2.231,2.231,0.0,2.231,2.231,2.231,2.231,2.231,2.231,2.231,2.231,2.2293,2.2243,2.0839,2.001,1.9976,1.8629,1.7983,1.8263,1.7098,1.6156,1.5451,0.0,0.0,0.0,0.0,0.0,0.0,0.0,0.0,0.0,0.0,0.0,0.0,0.0,0.0,0.0,0.0,0.0,0.0,0.0,0.0,0.0,0.0,1.876,1.8658,1.9906,2.0979,2.1463,2.2001,2.2226,2.2023,2.2665,2.3173,2.3376,2.3883,2.4303,2.4506,2.5,2.521,2.5045,2.5765,2.6115,2.5997,2.5852,2.5762,2.5779,2.4989,2.4752,2.4989,2.4592,2.4552,2.4776,2.491,2.5221,2.5577,2.5888,2.6191,2.6505,2.6505,2.659,2.6691,2.6691,2.6691,2.6691,2.6691,2.6573,2.6404,2.6404,2.6251,2.6082,2.6082,2.5765,2.5419,2.5419,2.5175,2.4932,2.4932,2.5077,2.5297,2.5689,2.5724,2.5771,2.6083,2.6118,2.6082,2.6082,2.5507,2.4661,2.3579,2.3224,2.2919,2.2395,2.231,0.0,2.231,2.231,2.231,2.231,2.231,2.231,2.231,2.231,2.1919,0.0,2.0529,2.0148,1.9882,1.9465,1.9376,1.9647,1.7586,1.6504,0.0,0.0,0.0,0.0,0.0,0.0,0.0,0.0,0.0,0.0,0.0,0.0,0.0,0.0,0.0,0.0,0.0,0.0,0.0,0.0,0.0,0.0,1.8668,2.0435,2.0753,2.1282,2.182,2.226,2.231,2.2429,2.2733,2.3139,2.3663,2.4272,2.4712,2.5084,2.5389,2.5828,2.5916,2.5596,2.6133,2.6367,2.6297,2.6085,2.612,2.6297,2.5656,2.5433,2.5524,2.5221,2.5144,0.0,2.5449,2.5689,2.6013,2.6227,2.6436,0.0,0.0,0.0,0.0,0.0,2.6691,2.6691,2.6691,2.6691,2.6691,2.6691,2.6691,2.6691,2.6691,2.6505,2.6332,2.6505,2.6334,2.6127,2.6267,2.6336,2.6404,2.6723,2.6657,2.6607,2.6889,2.6808,2.6691,2.6691,0.0,0.0,2.4526,2.3799,2.3241,2.2835,2.2513,2.231,2.231,2.2415,2.2463,2.2463,2.2581,2.2686,2.2686,2.2686,0.0,0.0,0.0,2.0855,2.0329,2.0414,0.0,0.0,0.0,0.0,0.0,0.0,0.0,0.0,1.734,1.7047,0.0,0.0,0.0,0.0,0.0,0.0,0.0,0.0,0.0,0.0,0.0,0.0,0.0,0.0,0.0,0.0,2.0211,2.1532,2.2226,2.231,2.231,2.231,2.2378,2.2682,2.3342,2.3545,2.4188,2.5507,2.5693,2.6015,2.6657,0.0,0.0,0.0,0.0,2.6262,2.6624,2.6262,2.6297,2.6691,2.6657,2.6436,2.6085,2.5997,2.5762,2.5411,2.5872,2.6085,2.612,2.6605,2.6877,2.6928,2.6759,2.6691,2.6708,2.6793,2.6826,2.6843,2.6928,0.0,0.0,2.6962,2.6962,2.6979,2.6995,2.7046,2.7079,2.7411,2.7517,2.7544,2.7829,2.7897,2.7897,2.7897,2.7636,2.7348,2.7348,2.7083,2.6858,2.6858,2.6808,2.6571,2.5958,2.4622,2.3608,2.3468,2.2892,2.2451,2.2405,2.2616,2.2772,2.2772,0.0,0.0,2.3189,2.3189,2.3177,2.3111,2.2558,2.1907,2.1253,2.1435,2.1587,2.1587,2.1716,2.1803,2.1803,2.1894,2.195,2.1859,1.9304,1.8519,0.0,0.0,0.0,0.0,0.0,0.0,0.0,0.0,0.0,0.0,0.0,0.0,0.0,0.0,0.0,1.9451,2.0958,2.2141,2.2293,2.231,2.231,2.231,2.2835,2.3241,2.3376,2.4475,2.5304,2.5592,2.615,2.6539,2.6691,2.6691,0.0,2.6156,2.6401,2.6436,2.6156,2.6401,2.6624,2.6691,0.0,0.0,2.6539,2.6191,2.6139,2.6436,2.6505,2.6539,2.664,2.7316,2.7977,2.8416,2.7182,2.6691,2.6776,2.7385,2.7604,2.7689,2.8315,2.8535,2.8535,2.8535,2.8535,2.8642,2.8939,2.9022,0.0,2.8815,2.8741,2.8617,2.8057,2.7897,2.7897,2.7897,2.784,2.7765,2.7765,2.7707,2.7648,2.7648,2.7426,2.7251,2.7426,2.6199,2.4856,2.3949,2.3667,2.3448,2.3077,2.3069,2.3093,2.3093,2.3165,2.3189,2.3189,2.3189,2.3033,2.2647,2.2767,2.2775,2.2611,2.2648,2.2685,2.2685,2.2098,2.1803,2.1803,2.2446,2.2776,2.2722,2.1279,2.0883,0.0,0.0,0.0,0.0,0.0,0.0,0.0,0.0,0.0,0.0,0.0,1.6653,0.0,0.0,2.0562,2.0948,2.172,2.2349,2.2473,2.2388,2.231,2.231,2.2953,2.3528,2.39,2.4949,2.5761,2.6116,2.6488,2.6691,2.6691,2.6691,2.659,2.6367,2.659,2.659,2.6367,2.6573,2.6691,2.6691,2.647,2.647,2.6691,2.647,2.6689,2.7249,2.7249,2.7469,2.7875,2.8247,2.8636,2.8926,2.8357,2.8032,2.7892,2.8264,2.8543,2.8768,2.9162,2.9455,2.9657,2.9657,2.9657,2.969,2.9884,2.9948,2.9955,2.9993,2.9773,2.9475,2.915,2.8855,2.8621,2.8464,2.8308,2.8156,2.8156,2.8037,2.7897,2.7897,2.7754,2.7648,2.7869,2.7245,2.644,2.5505,2.4664,2.4075,2.3826,2.3595,2.3437,2.3437,2.3588,2.3692,2.3692,2.3692,2.3593,2.3371,2.3508,2.3602,2.3602,2.3602,2.3602,2.3602,2.3199,2.2997,2.2997,2.34,2.3602,2.3565,2.2839,2.2532,0.0,0.0,0.0,0.0,0.0,0.0,0.0,0.0,1.5561,1.6306,1.7523,1.8826,2.0002,2.0908,2.1674,2.2286,2.2388,2.2436,2.2669,2.2463,2.231,2.231,2.2953,2.368,2.4438,2.5169,2.5913,2.664,2.6691,2.6691,2.6691,2.6691,2.6691,2.6691,2.6691,2.6691,2.6691,2.6691,2.6691,2.6691,2.6691,2.6691,2.6691,2.6691,2.7114,2.7789,2.7977,2.8539,2.9343,2.9343,2.9464,2.9726,3.0057,2.9955,2.9638,2.9537,2.9679,2.9965,3.0105,3.0419,3.0721,3.0721,3.0764,3.082,3.0927,3.0998,3.106,3.1328,3.1042,3.066,3.0604,3.0148,2.9656,2.9425,2.8965,2.8578,2.8578,2.8342,2.812,2.812,2.8065,2.8037,2.8093,2.8065,2.7743,2.6988,2.5778,2.486,2.4605,2.4262,2.3958,2.3813,2.4036,2.419,2.419,2.419,2.419,2.419,2.419,2.419,2.419,2.419,2.419,2.419,2.419,2.419,2.419,2.419,2.419,2.419,2.3917,2.3628,1.4595,1.4156,1.4123,1.605,1.6001,1.6136,0.0,0.0,1.8623,1.9343,2.0213,2.0856,2.1051,2.185,2.2557,2.2643,2.266,2.2686,2.2695,2.2463,2.231,2.231,2.2953,2.368,2.4438,2.5169,2.5913,2.664,2.6691,2.6691,2.6691,2.6691,2.6691,2.6691,2.6691,2.6691,2.6691,2.6691,2.6691,2.6691,2.6691,2.6691,2.6691,2.6691,2.7114,2.7823,2.8552,2.9466,3.0525,3.0525,3.1115,3.2086,3.2153,3.217,3.2049,3.1376,3.1161,3.1282,3.1956,3.2219,3.2252,3.2252,3.2402,3.269,3.3104,3.3405,3.3515,3.321,3.3068,3.2863,3.2147,3.1412,3.0808,3.0772,3.0018,2.9291,2.9291,2.9052,2.8881,2.8881,2.8583,2.8464,2.8815,2.8583,2.8054,2.7288,2.7018,2.6501,2.5445,2.525,2.4939,2.4224,2.417,2.419,2.419,2.419,2.419,2.419,2.419,2.419,2.419,2.419,2.419,2.419,2.419,2.419,2.419,2.419,2.419,2.419,2.417,2.3958,1.7396,1.7107,0.0,0.0,1.8449,1.9046,1.9816,2.0128,2.0314,2.0636,2.1312,2.1837,2.1837,2.2304,2.2695,0.0,2.2873,2.2996,2.2996,2.273,2.2537,2.2537,2.2688,2.3224,2.4404,2.5169,2.5913,2.664,2.6691,2.6691,2.6691,2.6691,2.6691,2.6691,2.6691,2.6691,2.6691,2.6691,2.6691,2.6691,2.6691,2.6691,2.6691,2.6691,2.7504,2.8905,3.0106,3.1063,3.1756,3.1756,3.2051,3.2533,3.2967,3.3128,3.3033,3.2303,3.2317,3.2705,3.302,3.3414,3.3781,3.3781,3.3845,3.3974,3.419,3.4304,3.4379,3.4202,3.3885,3.3408,3.2449,3.1688,3.1035,3.039,2.9906,2.957,2.957,2.9494,2.9416,2.9416,2.926,2.92,2.9378,2.926,2.9005,2.8537,2.7958,2.7214,2.6206,2.5676,2.509,2.4281,2.419,2.419,2.419,2.419,2.419,2.419,2.419,2.419,2.419,2.4321,2.4375,2.4375,2.4495,2.4561,2.4561,2.4426,2.4375,2.4393,2.4726,2.4829,1.8982,0.0,0.0,1.9418,2.0391,2.1092,2.0711,2.1092,2.1498,2.1498,2.1921,2.231,2.231,2.2527,0.0,2.2822,2.3045,2.3212,2.3305,2.2972,2.2695,2.2738,2.2463,2.2829,2.4202,2.4815,2.553,2.6466,2.6534,2.6571,2.6674,2.6691,2.6691,2.6691,2.6691,2.6691,2.6691,2.6691,2.6691,2.6691,2.6691,2.6758,2.6891,2.7415,2.8418,2.9841,3.1324,3.2264,3.2713,3.2773,3.288,3.3015,3.3658,3.3889,3.3839,3.3302,3.3442,3.3889,3.3889,3.4255,3.4694,3.4694,3.4734,3.4793,3.4793,3.487,3.4945,3.4945,3.4632,3.4105,3.3327,3.2438,3.156,3.0779,3.017,2.978,2.978,2.9748,2.9696,2.9696,2.9696,2.9696,2.9696,2.9696,2.9643,2.9494,2.8812,2.7999,2.7056,2.6025,2.509,2.4281,2.419,2.419,2.419,2.419,2.4228,2.4266,2.4284,2.4303,2.4357,2.4512,2.4575,2.4575,2.4731,2.4804,2.4804,2.4654,2.4673,2.4849,2.5282,2.5573,0.0,0.0,1.9249,2.0763,2.117,2.1363,2.2073,2.226,2.2276,2.2276,2.2293,2.231,2.231,2.2527,2.2822,2.3117,2.3189,2.3305,2.3649,2.3117,2.2712,2.279,2.2497,2.2739,0.0,2.395,2.4562,2.6018,2.6139,2.6296,2.6691,2.6691,2.6691,2.6691,2.6691,2.6691,2.6691,2.6691,2.6691,2.6691,2.6691,2.6906,2.7355,2.9224,3.0132,3.0256,3.1812,3.2745,3.3196,3.346,3.3806,3.4176,3.4529,3.4674,3.4674,3.4634,3.4653,3.4674,3.4674,3.4674,3.4694,3.4694,3.4889,3.5088,3.5088,3.5312,3.557,3.557,3.557,3.5532,3.5512,3.4186,3.284,3.2801,3.1364,2.9999,2.9999,2.9845,2.9696,2.9696,2.9696,2.9696,2.9696,2.9696,2.9696,2.9696,2.966,2.9177,2.7929,2.6395,2.509,2.4281,2.419,2.419,2.419,2.419,2.4284,2.4478,2.4495,2.4575,2.4775,2.479,2.479,2.479,2.4804,2.4804,2.4804,2.479,2.5083,2.5651,2.567,2.6004,0.0,0.0,2.056,2.1085,2.1566,2.1989,2.2243,2.231,2.231,2.231,2.231,2.2332,2.2537,2.2634,2.288,2.3437,2.3522,2.3566,2.3692,2.3305,2.3045,2.3063,2.2781,0.0,0.0,0.0,0.0,2.5984,2.5891,2.6043,2.6657,2.6691,2.6691,2.6691,2.6691,2.6691,2.6691,2.6691,2.6691,2.6691,2.6971,2.7594,2.8529,2.9677,3.0653,3.1523,3.2712,3.346,3.3906,3.4204,3.4405,3.4572,3.4851,3.4963,3.4981,3.5174,3.5223,3.5207,3.5035,3.5088,3.5242,3.528,3.5346,3.5445,3.5484,3.5566,3.5676,3.5669,3.5678,3.5534,3.5008,3.4345,3.3692,3.3173,3.2065,3.1264,3.1801,3.1454,3.103,3.103,3.103,3.0838,3.0251,3.0155,3.0095,2.9924,2.9323,2.8684,2.8067,2.7063,2.6041,2.511,2.5134,2.4986,2.443,2.4528,2.4623,2.47,2.47,2.4731,2.4804,2.4877,2.4924,2.4924,2.5061,2.5425,2.5979,2.585,2.6208,2.6972,2.719,2.74,2.0281,2.0805,2.1271,2.1515,2.1955,2.231,2.231,2.231,2.2243,2.1955,2.1904,2.1885,2.1764,2.1798,2.2157,2.299,2.3214,2.3428,2.3821,2.3588,2.3392,2.3392,2.334,0.0,0.0,0.0,0.0,2.5988,2.6021,2.6279,2.6872,2.6906,2.6841,2.6691,2.6691,2.6691,2.6691,2.6691,2.6791,2.6939,2.7452,2.8269,2.9308,3.0227,3.1273,3.2472,3.3416,3.4024,3.4401,3.4695,3.4832,3.487,3.5138,3.5239,3.5254,3.5432,3.5493,3.5479,3.5324,3.5392,3.5565,3.5622,3.5644,3.5643,3.5681,3.5726,3.5772,3.5776,3.5781,3.5646,3.5138,3.47,3.4226,3.3667,3.2852,3.2321,3.2795,3.2487,3.2045,3.1756,3.1698,3.1429,3.0552,3.0398,3.0343,3.0163,2.9575,2.8954,2.8332,2.779,2.7119,2.6172,2.6187,2.6068,2.5541,2.5631,2.5603,2.5356,2.5338,2.5232,2.4981,2.5053,2.5099,2.5099,2.5531,2.6043,2.6601,2.6784,2.7255,2.8044,2.8253,2.8445,2.1053,2.1247,2.1424,2.2152,2.231,2.231,2.231,2.2276,2.2057,2.1329,2.117,2.0916,0.0,0.0,2.0802,2.1879,2.2332,2.2924,2.4041,2.3953,2.3786,0.0,0.0,0.0,0.0,0.0,0.0,2.6063,0.0,2.6887,2.7282,2.7303,2.7147,2.6774,2.6758,2.6758,2.6758,2.6758,2.6954,2.7348,2.812,2.8889,2.9718,3.0936,3.2059,3.3101,3.3888,3.4423,3.4734,3.4999,3.5122,3.5157,3.5398,3.5493,3.5493,3.5493,3.5493,3.5526,3.5584,3.5603,3.5603,3.5674,3.5697,3.571,3.5717,3.5805,3.5907,3.5907,3.5905,3.5918,3.5918,3.5243,3.4532,3.4403,3.3763,3.3134,3.3064,3.3006,3.2737,3.1987,3.1756,3.1429,3.0552,3.0398,3.0398,3.0398,3.0398,2.9954,2.8717,2.8574,2.8253,2.744,2.738,2.7361,2.7324,2.732,2.7072,2.6422,2.6378,2.6094,2.5457,2.5418,2.5418,2.5418,2.6255,2.6697,2.6736,2.7563,2.8272,2.8883,2.8869,2.9077,2.1797,2.2076,2.2358,2.2548,2.2436,2.231,2.231,2.187,2.1441,2.1254,2.072,2.0153,0.0,0.0,0.0,2.157,2.2404,0.0,2.4095,2.4444,0.0,0.0,0.0,2.5791,2.6136,2.6542,0.0,0.0,2.6982,2.6915,2.7282,2.7303,2.7378,2.7589,2.7286,2.7303,2.7589,2.7589,2.7747,2.8139,2.8918,2.9878,3.0972,3.2083,3.3069,3.3925,3.4582,3.4925,3.5016,3.5289,3.5383,3.5398,3.546,3.5493,3.5493,3.5493,3.5545,3.5584,3.5661,3.5622,3.5547,3.566,3.5706,3.5729,3.5876,3.5957,3.5962,3.5962,3.5966,3.5976,3.5976,3.576,3.5535,3.5497,3.4717,3.4172,3.4782,3.4353,3.3814,3.3603,3.2602,3.1494,3.0621,3.0467,3.0467,3.0467,3.0417,3.0222,2.9684,2.9616,2.9247,2.8291,2.8324,2.8165,2.757,2.7669,2.7666,2.7489,2.7489,2.7415,2.7236,2.7236,2.7236,2.7236,2.7467,2.7852,2.8448,2.8679,2.9214,2.9992,2.9784,2.9764,2.2486,2.2639,2.2695,2.2695,2.25,2.2226,2.1887,2.1228,2.0483,1.9841,1.9096,0.0,0.0,0.0,0.0,0.0,0.0,0.0,2.4096,2.473,2.5181,0.0,2.6246,0.0,2.7105,2.7648,2.8009,0.0,2.772,2.7584,2.777,2.7776,2.7805,2.7897,2.7678,2.7648,2.7897,2.8047,2.821,2.842,2.9043,3.0112,3.1607,3.2195,3.3256,3.4597,0.0,3.5174,3.5289,3.5432,3.5493,3.5493,3.5493,3.5493,3.5493,3.5493,3.5545,3.5622,3.5641,3.5618,3.5609,3.5786,3.5833,3.5848,3.5974,3.5996,3.5996,3.5996,3.5996,3.5996,3.5996,3.5976,3.5937,3.5918,3.5437,3.5128,3.5565,3.5218,3.4584,3.382,3.2679,3.1573,3.0685,3.053,3.053,3.0548,3.0506,3.0412,3.0234,3.0182,2.9964,2.9403,2.9434,2.9315,2.8868,2.8921,2.8832,2.8448,2.8429,2.8275,2.7909,2.789,2.789,2.789,2.8255,2.864,2.9102,2.9486,2.9929,3.0398,3.0254,3.0103,2.32,2.31,2.2848,2.2848,2.259,2.2173,2.1409,2.05,1.9395,1.8036,0.0,1.6264,1.5539,0.0,1.8816,1.9568,0.0,2.3122,2.4003,2.4829,2.5399,2.5529,2.6888,2.7842,2.7952,2.8594,2.8863,2.8572,2.8529,2.8478,2.8402,2.8394,2.8264,2.7982,2.801,2.8037,2.8037,2.8316,2.8471,2.8489,2.8978,3.0068,3.1632,3.1942,3.3109,3.4933,0.0,0.0,3.5493,3.5493,3.5493,3.5493,3.5493,3.5493,3.5493,3.5526,3.5565,3.5622,3.5641,3.5687,3.5772,3.5932,3.5993,3.5989,3.5996,3.5996,3.5996,3.5996,3.5996,3.5996,3.5996,3.5996,3.5996,3.5937,3.5905,3.5867,3.574,3.5669,3.5103,3.3359,3.2512,3.1783,3.0773,3.0606,3.0607,3.0617,3.0604,3.0582,3.0524,3.0452,3.0398,3.0398,3.0398,3.0398,3.0398,3.0398,3.0083,2.9313,2.9275,2.8948,2.8255,2.8236,2.8236,2.8236,2.8909,2.9275,2.9275,3.0025,3.0398,3.0398,3.0398,3.0286,2.4228,2.3905,2.3522,2.3522,2.3069,2.2444,2.1702,2.0102,0.0,0.0,0.0,1.5226,1.4496,1.6315,0.0,1.8505,0.0,0.0,0.0,0.0,2.535,0.0,0.0,0.0,0.0,0.0,0.0,0.0,0.0,0.0,2.8446,2.8394,2.8376,2.8316,2.8651,2.8815,2.8815,2.8881,2.8905,2.8905,2.9869,3.0485,3.0886,3.2656,3.3665,3.4091,0.0,0.0,3.5493,3.5493,3.5493,3.5493,3.5493,3.5493,3.5526,3.5565,3.5641,3.5699,3.5815,3.5899,3.5947,3.5912,3.5926,3.5921,3.5982,3.5996,3.5996,3.5996,3.5996,3.5996,3.5996,3.5996,3.5996,3.5996,3.5933,3.5884,3.5864,3.5781,3.5181,3.3497,3.3109,3.2558,3.0959,3.0681,3.0678,3.0671,3.0643,3.06,3.0581,3.0511,3.0467,3.0398,3.0398,3.0398,3.0398,3.0398,3.034,3.0179,3.0179,3.0121,2.9967,2.9967,2.9967,2.9967,3.0102,3.0179,3.0179,3.0321,3.0398,3.0398,3.0398,3.0386,2.4339,2.4019,2.3692,2.3692,2.2929,2.1836,2.0715,0.0,0.0,0.0,0.0,1.4161,1.3794,0.0,0.0,0.0,0.0,0.0,0.0,0.0,0.0,0.0,0.0,0.0,0.0,0.0,0.0,0.0,0.0,0.0,2.9077,2.9095,2.9095,2.9095,2.9258,2.9357,2.9357,2.9249,2.9203,2.9203,2.972,3.0256,3.0865,3.1965,3.2802,3.3365,3.3909,0.0,3.4814,3.4814,3.5084,3.5493,3.5493,3.5493,3.5526,3.5584,3.5642,3.5716,3.5843,3.595,3.5997,3.5955,3.595,3.5955,3.5991,3.5996,3.5996,3.5996,3.5996,3.5996,3.5996,3.5996,3.5996,3.5996,3.5976,3.5937,3.5916,3.5885,3.5344,3.3577,3.332,3.2817,3.1098,3.0799,3.0801,3.0801,3.0781,3.0722,3.0664,3.0617,3.0564,3.0467,3.0448,3.0448,3.0398,3.0398,3.0398,3.0398,3.0398,3.0398,3.0398,3.0417,3.0448,3.0448,3.0487,3.0506,3.0506,3.0467,3.0448,3.0448,3.0417,3.0398,2.4229,2.4077,2.386,2.3816,2.2736,2.133,1.9839,1.801,0.0,0.0,1.3833,1.3311,1.3311,0.0,0.0,0.0,0.0,0.0,0.0,0.0,0.0,0.0,0.0,0.0,0.0,0.0,0.0,0.0,0.0,0.0,2.9713,2.9696,2.9696,2.9696,2.9696,2.9696,2.9696,2.9533,2.9455,2.9455,2.9513,2.9964,3.08,3.12,3.1837,3.2641,3.2833,0.0,0.0,3.391,3.443,3.5199,3.5026,3.518,3.5474,3.5397,3.5521,3.5728,3.5873,3.5948,3.5977,3.5995,3.5996,3.5996,3.5996,3.5996,3.5996,3.5996,3.5996,3.5996,3.5996,3.5996,3.5996,3.5996,3.5996,3.5996,3.5937,3.5957,3.5474,3.3674,3.3361,3.2871,3.1191,3.0898,3.0898,3.0898,3.0894,3.0867,3.0765,3.0734,3.0685,3.0567,3.0521,3.0506,3.0448,3.0448,3.0448,3.0448,3.0448,3.0448,3.0448,3.0487,3.051,3.0518,3.0579,3.0602,3.0602,3.0549,3.053,3.0525,3.0448,3.0417,2.4304,2.4461,2.4392,2.419,2.3094,2.1671,2.019,0.0,0.0,1.4443,1.3545,1.3049,1.3049,1.3914,0.0,0.0,0.0,0.0,0.0,0.0,0.0,0.0,0.0,0.0,0.0,0.0,0.0,0.0,0.0,0.0,0.0,2.9696,2.9696,2.9696,2.9696,2.9696,2.9696,2.9678,2.9678,2.9678,2.9861,2.9992,3.0136,3.1174,3.1725,3.1852,0.0,0.0,0.0,3.3026,3.3526,3.4237,3.3449,3.4122,3.5416,3.4826,3.5065,3.5723,3.5918,3.5948,3.5905,3.5974,3.5996,3.5996,3.5996,3.5996,3.5996,3.5996,3.5996,3.5996,3.5996,3.5996,3.5996,3.5996,3.5996,3.5996,3.5996,3.5996,3.5488,3.3726,3.3397,3.2871,3.1191,3.0898,3.0898,3.0898,3.0898,3.0897,3.0878,3.0876,3.0838,3.0697,3.0617,3.0583,3.0583,3.0583,3.0583,3.0583,3.0583,3.0583,3.0583,3.0583,3.0588,3.0594,3.0598,3.0602,3.0602,3.0594,3.0585,3.0583,3.0525,3.0487,2.356,2.4039,2.4444,2.4266,2.2933,2.1245,1.9592,0.0,1.5656,1.4017,1.3461,1.3226,1.3226,1.3581,1.4211,0.0,1.59,1.7093,0.0,0.0,0.0,0.0,0.0,0.0,0.0,0.0,0.0,0.0,0.0,0.0,0.0,3.0128,3.0128,3.0128,3.0128,3.0128,3.0128,2.9958,2.9877,2.9877,2.9969,2.9999,3.0032,3.0631,3.0929,3.0948,0.0,0.0,0.0,3.2179,3.266,3.3372,3.3045,3.3314,3.3916,3.3761,3.3923,3.4224,3.4386,3.4397,3.4345,3.4409,3.4743,3.5217,3.5818,3.5996,3.5996,3.5996,3.5996,3.5879,3.5351,3.5215,3.5215,3.5215,3.5625,3.5996,3.5996,3.5586,3.4863,3.3633,3.3008,3.2305,3.1113,3.0898,3.0898,3.0898,3.0898,3.0898,3.0898,3.0898,3.0878,3.0823,3.0712,3.0631,3.0599,3.061,3.061,3.061,3.061,3.061,3.061,3.0634,3.0659,3.0656,3.0743,3.0784,3.0784,3.0696,3.0665,3.066,3.0583,3.0564,2.2849,2.3491,2.395,2.3766,2.2417,2.0628,0.0,0.0,1.5089,1.3413,1.3074,1.3074,1.3074,1.3261,1.3701,1.4658,1.4863,1.5937,1.8931,0.0,0.0,0.0,0.0,0.0,0.0,0.0,0.0,0.0,0.0,0.0,0.0,3.0275,3.0398,3.0398,3.0398,3.0398,3.0398,3.0209,3.0122,3.0122,3.0122,3.0122,3.0117,3.0311,3.0398,3.0398,0.0,0.0,0.0,3.1314,3.1795,3.2526,3.2256,3.2468,3.2891,3.2833,3.2975,3.3219,3.3351,3.3356,3.3313,3.3395,3.3735,3.4326,3.5295,3.5767,3.5976,3.5976,3.5801,3.5469,3.4863,3.4512,3.4316,3.4316,3.4785,3.5234,3.5234,3.4746,3.4062,3.3203,3.2598,3.1914,3.1055,3.0898,3.0898,3.0898,3.0898,3.0898,3.0898,3.0898,3.0898,3.0898,3.082,3.0737,3.0689,3.0685,3.0685,3.0685,3.0685,3.0685,3.0685,3.0723,3.0765,3.0765,3.0852,3.0898,3.0898,3.0801,3.0752,3.0765,3.066,3.0765,2.2335,2.2905,2.2777,2.2658,2.1554,1.9938,0.0,1.5811,1.4107,1.2618,1.2314,1.2314,1.2314,1.2922,1.3718,1.4641,1.4974,1.629,1.9705,0.0,0.0,0.0,0.0,0.0,0.0,0.0,0.0,0.0,0.0,0.0,0.0,2.9929,3.0398,3.0398,3.0398,3.0398,3.0398,3.0398,3.0398,3.0398,3.0398,3.0398,3.0398,3.0398,3.0398,0.0,0.0,0.0,0.0,3.0398,3.0929,3.1641,3.0756,3.1448,3.2814,3.2165,3.2455,3.3219,3.3351,3.3359,3.3314,3.3383,3.3365,3.3478,3.4364,3.5215,3.5898,3.5898,3.5332,3.4707,3.4707,3.4062,3.3418,3.3418,3.3418,3.3437,3.3437,3.3418,3.3184,3.2363,3.2207,3.1914,3.1055,3.0898,3.0898,3.0898,3.0898,3.0898,3.0898,3.0898,3.0898,3.0898,3.0898,3.0898,3.0898,3.0898,3.0898,3.0898,3.0898,3.0898,3.0898,3.0898,3.0898,3.0898,3.0898,3.0898,3.0898,3.0898,3.0898,3.0898,3.0762,3.1133,1.9125,1.9855,2.0238,2.0047,1.9251,1.8141,1.6764,1.5158,1.3643,1.253,1.1857,1.1485,1.1485,1.2111,1.3122,1.4572,1.528,0.0,0.0,0.0,0.0,0.0,0.0,0.0,0.0,0.0,0.0,0.0,0.0,0.0,0.0,2.8544,2.9217,3.0359,3.0398,3.0398,3.0398,3.0398,3.0398,3.0398,3.0398,3.0398,3.0398,3.0398,0.0,0.0,0.0,0.0,0.0,3.0398,3.0552,3.0794,3.0513,3.0756,3.1237,3.1076,3.1229,3.1516,3.1641,3.1621,3.1537,3.1651,3.1979,3.2395,3.2737,3.3875,3.5197,3.5792,3.4897,3.3743,3.3743,3.307,3.237,3.237,3.2858,3.332,3.3262,3.2891,3.248,3.2129,3.166,3.1211,3.0957,3.0898,3.0898,3.0898,3.0898,3.0898,3.0898,3.0898,3.0898,3.0898,3.0898,3.0898,3.0898,3.0898,3.0898,3.0898,3.0898,3.0898,3.0898,3.0898,3.0898,3.0898,3.0898,3.0898,3.0898,3.0898,3.0898,3.0898,3.0859,3.123,0.0,1.7797,1.8323,1.8217,1.7717,1.6886,1.5401,1.4087,1.2835,1.1666,1.1028,1.0775,1.1045,1.1756,1.2717,1.4024,1.4951,0.0,0.0,0.0,0.0,0.0,0.0,0.0,0.0,0.0,0.0,0.0,0.0,0.0,0.0,2.7717,2.8371,2.9429,2.9756,2.991,2.991,3.0237,3.0398,3.0398,3.0398,3.0398,3.0398,3.0398,0.0,0.0,0.0,0.0,0.0,3.0398,3.0398,3.0398,3.0417,3.0467,3.0506,3.0602,3.066,3.073,3.0852,3.0859,3.0797,3.0863,3.1365,3.1953,3.2054,3.3273,3.4744,3.5314,3.4406,3.319,3.2871,3.2096,3.1402,3.1402,3.1864,3.226,3.2225,3.1897,3.1573,3.1495,3.1118,3.082,3.082,3.0879,3.0898,3.0898,3.0898,3.0898,3.0898,3.0898,3.0898,3.0898,3.0898,3.0898,3.0898,3.0898,3.0898,3.0898,3.0898,3.0898,3.0898,3.0898,3.0898,3.0898,3.0898,3.0898,3.0898,3.0898,3.0898,3.0918,3.123,3.1797,0.0,1.629,0.0,0.0,1.6532,1.5767,1.3701,1.2685,0.0,1.0288,0.9937,1.014,1.0916,1.169,1.2483,1.3295,0.0,0.0,0.0,0.0,0.0,0.0,0.0,0.0,0.0,0.0,0.0,0.0,0.0,0.0,0.0,2.7274,2.7717,2.7717,2.8506,2.8948,2.9006,2.9813,3.0244,3.0302,3.0302,3.034,3.0398,3.0398,0.0,0.0,0.0,0.0,0.0,3.0398,3.0398,3.0398,3.0467,3.0498,3.051,3.0652,3.0714,3.0723,3.0858,3.0898,3.0897,3.0895,3.1357,3.1944,3.2141,3.3229,3.4416,3.4499,3.3828,3.29,3.2102,3.1241,3.0583,3.0583,3.0583,3.0588,3.0584,3.0594,3.0602,3.0583,3.0645,3.0682,3.0703,3.0801,3.0898,3.0898,3.0898,3.0898,3.0898,3.0898,3.0898,3.0898,3.0898,3.0898,3.0898,3.0898,3.0898,3.0898,3.0898,3.0898,3.0898,3.0898,3.0898,3.0898,3.0898,3.0898,3.0898,3.0898,3.0937,3.1016,3.1816,3.2656,1.1252,0.0,1.2506,1.2536,1.2476,1.228,0.0,1.1079,1.044,1.0068,0.0,0.0,1.0516,0.0,0.0,0.0,0.0,0.0,0.0,0.0,0.0,0.0,0.0,0.0,0.0,0.0,0.0,0.0,0.0,0.0,0.0,2.5813,2.5909,2.5909,2.6736,2.7505,2.8179,2.839,2.8794,2.941,2.941,2.9756,3.0398,3.0398,0.0,0.0,0.0,0.0,3.0398,3.0398,3.0398,3.0398,3.0467,3.052,3.0583,3.0672,3.0762,3.0858,3.0897,3.0898,3.0898,3.0895,3.1014,3.1262,3.1874,3.2718,3.3519,3.36,3.2894,3.2074,3.1892,3.1133,3.0448,3.0448,3.0487,3.0502,3.0453,3.0528,3.0583,3.0525,3.0577,3.0651,3.0699,3.0723,3.0781,3.0879,3.0898,3.0898,3.0898,3.0898,3.0898,3.0898,3.0898,3.0898,3.0898,3.0898,3.0898,3.0898,3.0898,3.0898,3.0898,3.0898,3.0898,3.0898,3.0898,3.0898,3.0898,3.0898,3.123,3.1894,3.2109,3.2988,0.9489,1.0555,1.1654,1.1654,1.1654,1.1553,1.118,0.0,0.0,0.0,0.0,0.0,0.0,0.0,0.0,0.0,0.0,0.0,0.0,0.0,0.0,0.0,0.0,0.0,0.0,0.0,0.0,0.0,0.0,0.0,0.0,2.5303,2.5303,2.5303,2.5774,2.6428,2.7294,2.7698,2.8121,2.8544,2.8909,2.9352,2.9813,3.0217,3.0398,0.0,0.0,0.0,3.0398,3.0398,3.0398,3.0398,3.0506,3.0578,3.0619,3.0743,3.0833,3.0898,3.0898,3.0898,3.0898,3.0898,3.0898,3.0969,3.1303,3.1691,3.2095,3.2497,3.2196,3.1653,3.1249,3.0775,3.0398,3.0398,3.0417,3.0448,3.0398,3.0467,3.0506,3.0467,3.0506,3.0567,3.0594,3.0665,3.0723,3.0801,3.0859,3.0898,3.0898,3.0898,3.0879,3.0801,3.0859,3.0879,3.0801,3.0859,3.0898,3.0898,3.0898,3.0898,3.0898,3.0898,3.0898,3.0898,3.0898,3.0898,3.0898,3.1309,3.1738,3.2226,3.2988,3.3828,0.9027,1.0568,1.2094,1.1975,1.2026,1.1942,1.1248,0.0,0.0,0.0,0.0,0.0,0.0,0.0,0.0,0.0,0.0,0.0,0.0,0.0,0.0,0.0,0.0,0.0,0.0,0.0,0.0,0.0,0.0,0.0,0.0,2.5274,2.5293,2.5264,2.5274,2.5649,2.639,2.7121,2.7563,2.7717,2.839,2.8794,2.8948,2.9813,3.0198,0.0,0.0,0.0,3.0398,3.0398,3.0398,3.0398,3.0544,3.0598,3.0623,3.0832,3.0898,3.0898,3.0898,3.0898,3.0898,3.0898,3.0898,3.0873,3.072,3.0656,3.0737,3.1395,3.1557,3.1333,3.059,3.0398,3.0398,3.0398,3.0398,3.0398,3.0398,3.0398,3.0398,3.0398,3.0448,3.0487,3.0506,3.0587,3.0676,3.0703,3.0801,3.0879,3.0898,3.0875,3.0834,3.0703,3.0797,3.0814,3.0683,3.0801,3.0937,3.1055,3.0957,3.0898,3.0898,3.0898,3.0898,3.0898,3.0898,3.0976,3.1094,3.1836,3.2324,3.2617,3.4043,3.4766,0.9658,1.0538,1.113,1.0508,1.0825,1.1248,1.113,0.0,0.0,0.0,0.0,0.0,0.0,0.0,0.0,0.0,0.0,0.0,0.0,0.0,0.0,0.0,0.0,0.0,0.0,0.0,0.0,0.0,0.0,0.0,0.0,0.0,2.5214,2.5046,2.5214,2.536,2.5495,2.563,2.6082,2.6794,2.6928,2.7371,2.8102,2.8929,2.9294,0.0,0.0,3.0398,3.0398,3.0398,3.0398,3.0398,3.0544,3.0598,3.0623,3.0832,3.0898,3.0898,3.0898,3.0898,3.0898,3.0898,3.0898,3.0857,3.0661,3.0616,3.0602,3.0602,3.0621,3.0571,3.0417,3.0398,3.0398,3.0398,3.0398,3.0398,3.0398,3.0398,3.0398,3.0398,3.0398,3.0417,3.0487,3.0516,3.0576,3.068,3.0723,3.0762,3.0898,3.08,3.0715,3.0701,3.0678,3.0637,3.0624,3.0684,3.1055,3.1777,3.125,3.0898,3.0898,3.0898,3.0898,3.0898,3.0898,3.1269,3.1992,3.2129,3.293,3.4316,3.457,3.5098,0.9225,0.9883,1.0494,1.048,1.1427,1.236,1.2476,0.0,0.0,0.0,0.0,0.0,0.0,0.0,0.0,0.0,0.0,0.0,0.0,0.0,0.0,0.0,0.0,0.0,0.0,0.0,0.0,0.0,0.0,0.0,0.0,0.0,2.5264,2.5163,2.5253,2.5303,2.5303,2.5303,2.5495,2.5909,2.637,2.6813,2.7236,2.8063,2.8448,2.8486,0.0,2.9698,2.9737,3.0217,3.0417,3.0467,3.0564,3.0623,3.066,3.0843,3.0898,3.0898,3.0898,3.0898,3.0898,3.0898,3.0849,3.0763,3.0639,3.0565,3.0525,3.0417,3.0398,3.0398,3.0398,3.0398,3.0398,3.0398,3.0398,3.0398,3.0398,3.0398,3.0398,3.0398,3.0398,3.0398,3.0448,3.0487,3.0518,3.0581,3.0613,3.0668,3.0726,3.0685,3.0637,3.0594,3.0598,3.0597,3.0549,3.1035,3.1573,3.2089,3.2207,3.2246,3.2246,3.2246,3.2246,3.2246,3.2246,3.2441,3.2851,3.332,3.3945,3.4707,3.5176,3.5625,0.8891,0.94,1.0108,1.0746,0.0,1.3038,1.3743,0.0,0.0,0.0,0.0,0.0,0.0,0.0,0.0,0.0,0.0,0.0,0.0,0.0,0.0,0.0,0.0,0.0,0.0,0.0,0.0,0.0,0.0,0.0,0.0,0.0,2.5274,2.5224,2.5274,2.5303,2.5303,2.5303,2.5303,2.5303,2.5986,2.6294,2.6332,2.7198,2.7601,2.764,2.8448,2.8813,2.889,2.9737,3.014,3.0229,3.0488,3.0665,3.0765,3.0862,3.0898,3.0898,3.0898,3.0898,3.0898,3.0898,3.0803,3.0687,3.061,3.0559,3.0487,3.0417,3.0398,3.0398,3.0398,3.0398,3.0398,3.0398,3.0398,3.0398,3.0398,3.0398,3.0398,3.0398,3.0398,3.0398,3.0398,3.0448,3.0487,3.0506,3.0549,3.0579,3.0598,3.0579,3.0554,3.051,3.0525,3.0621,3.0794,3.1826,3.2532,3.2732,3.3139,3.3379,3.3398,3.3398,3.3398,3.3398,3.3398,3.3496,3.3711,3.4375,3.4805,3.5019,3.5684,3.5996,0.9308,0.9621,0.9991,1.0717,1.1083,0.0,1.3955,1.4675,0.0,0.0,0.0,0.0,0.0,0.0,0.0,0.0,0.0,0.0,0.0,0.0,0.0,0.0,0.0,0.0,0.0,0.0,0.0,0.0,0.0,0.0,0.0,0.0,0.0,2.5022,2.5203,2.5303,2.5303,2.5303,2.5303,2.5303,2.536,2.538,2.5418,2.6294,2.6697,2.6736,2.7601,2.7986,2.8044,2.8852,2.9217,2.9385,3.0273,3.0724,3.0897,3.0898,3.0898,3.0898,3.0898,3.0898,3.0898,3.0898,3.0803,3.0691,3.0625,3.0537,3.0487,3.0417,3.0398,3.0398,3.0398,3.0398,3.0398,3.0398,3.0398,3.0398,3.0398,3.0398,3.0398,3.0398,3.0398,3.0398,3.0398,3.0398,3.0417,3.0487,3.0498,3.054,3.0598,3.056,3.051,3.0506,3.0448,3.0775,3.1626,3.3186,3.4186,3.4321,3.3682,3.334,3.3398,3.3398,3.3398,3.3398,3.3398,3.3809,3.4609,3.4668,3.5117,3.5918,3.5976,3.5996,0.8607,0.9076,0.9733,1.0521,1.1152,0.0,0.0,0.0,0.0,0.0,0.0,0.0,0.0,0.0,0.0,0.0,0.0,0.0,0.0,0.0,0.0,0.0,0.0,0.0,0.0,0.0,0.0,0.0,0.0,0.0,0.0,0.0,0.0,2.501,2.5203,2.5212,2.4987,2.5201,2.5243,2.5111,2.5234,2.5303,2.5303,2.563,2.5793,2.5851,2.6717,2.7082,2.7159,2.8052,2.8464,2.8574,2.9002,2.9545,3.0098,3.0098,3.043,3.0898,3.0898,3.0898,3.0898,3.0898,3.0774,3.0623,3.0601,3.0525,3.0417,3.0398,3.0398,3.0398,3.0398,3.0398,3.0398,3.0398,3.0398,3.0398,3.0398,3.0398,3.0398,3.0448,3.0417,3.0398,3.0467,3.0417,3.0398,3.0417,3.0448,3.0448,3.0467,3.0448,3.0448,3.0448,3.091,3.1564,3.2398,3.3564,3.4507,3.5147,3.5017,3.4883,3.4824,3.4909,3.4956,3.4941,3.4941,3.5137,3.5508,3.5508,3.5684,3.5996,3.5996,3.5996,0.8092,0.8503,0.9194,0.0,0.0,0.0,0.0,0.0,0.0,0.0,0.0,0.0,0.0,0.0,0.0,0.0,0.0,0.0,0.0,0.0,0.0,0.0,0.0,0.0,0.0,0.0,0.0,0.0,0.0,0.0,0.0,0.0,0.0,0.0,2.5163,2.5096,2.4869,2.5037,2.5072,2.4937,2.5118,2.5253,2.5303,2.5303,2.5303,2.5322,2.5928,2.6197,2.6294,2.7215,2.7808,2.8148,2.8265,2.8652,2.9199,2.9199,2.957,3.0117,3.0391,3.0488,3.0527,3.0801,3.079,3.0638,3.0626,3.0544,3.0417,3.0417,3.0417,3.0398,3.0398,3.0398,3.0398,3.0398,3.0398,3.0398,3.0398,3.0398,3.0398,3.0467,3.0434,3.0412,3.0452,3.0417,3.0398,3.0398,3.0398,3.0398,3.0398,3.0398,3.0398,3.0398,3.141,3.2301,3.2852,3.3949,3.4885,3.5526,3.5718,3.5773,3.5703,3.5842,3.5908,3.5899,3.5911,3.5957,3.5996,3.5996,3.5996,3.5996,3.5996,3.5996,0.7941,0.8011,0.8343,0.0,0.0,0.0,0.0,0.0,0.0,0.0,0.0,0.0,0.0,0.0,0.0,0.0,0.0,0.0,0.0,0.0,0.0,0.0,0.0,0.0,0.0,0.0,0.0,0.0,0.0,0.0,0.0,0.0,0.0,0.0,2.5099,2.501,2.4998,2.4869,2.4804,2.4804,2.4943,2.5099,2.5303,2.5303,2.5303,2.5303,2.5303,2.5341,2.5466,2.6322,2.7281,2.8179,2.8246,2.8281,2.8281,2.8281,2.8281,2.8418,2.9297,2.959,2.9726,3.0605,3.0801,3.0696,3.0704,3.0614,3.0506,3.0506,3.0448,3.0398,3.0398,3.0398,3.0398,3.0398,3.0398,3.0398,3.0398,3.0398,3.0398,3.0398,3.0403,3.0406,3.0402,3.0398,3.0398,3.0398,3.0398,3.0398,3.0398,3.0398,3.0398,3.0398,3.191,3.2897,3.2891,3.4513,3.5493,3.5493,3.5565,3.5631,3.5702,3.5881,3.5982,3.5905,3.5968,3.5996,3.5996,3.5996,3.5996,3.5996,3.5996,3.5996,0.8023,0.8786,0.0,0.0,0.0,0.0,0.0,0.0,0.0,0.0,0.0,0.0,0.0,0.0,0.0,0.0,0.0,0.0,0.0,0.0,0.0,0.0,0.0,0.0,0.0,0.0,0.0,0.0,0.0,0.0,0.0,0.0,0.0,0.0,2.5034,2.4898,2.4666,2.4741,2.4731,2.4591,2.4872,2.5034,2.5099,2.5243,2.5303,2.5303,2.5303,2.5303,2.5361,2.5716,2.6096,2.6442,2.6462,2.6855,2.7383,2.7383,2.7773,2.834,2.8594,2.8691,2.8828,2.9707,2.9922,2.996,3.054,3.0642,3.0571,3.0505,3.0487,3.0467,3.0398,3.0398,3.0398,3.0398,3.0398,3.0398,3.0398,3.0398,3.0398,3.0467,3.0424,3.0403,3.0452,3.0417,3.0398,3.0398,3.0398,3.0398,3.0398,3.0398,3.0398,3.0398,3.191,3.291,3.2897,3.4493,3.5493,3.5493,3.5565,3.5596,3.5549,3.5706,3.5783,3.5767,3.5784,3.5844,3.5941,3.584,3.5792,3.5792,3.5792,3.5792,0.8446,0.0,0.0,0.0,0.0,0.0,0.0,0.0,0.0,0.0,0.0,0.0,0.0,0.0,0.0,0.0,0.0,0.0,0.0,0.0,0.0,0.0,0.0,0.0,0.0,0.0,0.0,0.0,0.0,0.0,0.0,0.0,0.0,0.0,2.4949,2.478,2.4512,2.4545,2.4495,2.4393,2.4749,2.4915,2.493,2.5182,2.5303,2.5303,2.5322,2.5341,2.5351,2.5466,2.5551,2.5664,2.5664,2.5996,2.6484,2.6484,2.6816,2.7324,2.7656,2.7773,2.793,2.8809,2.9062,2.918,3.0019,3.0224,3.0217,3.0503,3.054,3.0487,3.0448,3.0417,3.0398,3.0398,3.0398,3.0398,3.0398,3.0398,3.0398,3.0448,3.0417,3.0398,3.0448,3.0417,3.0398,3.0398,3.0398,3.0398,3.0398,3.0398,3.0398,3.0398,3.1903,3.2897,3.2891,3.4507,3.5493,3.5493,3.5545,3.554,3.5505,3.5669,3.5746,3.5659,3.5747,3.5795,3.5815,3.5742,3.5689,3.5689,3.5689,3.5689,0.0,0.0,0.0,0.0,0.0,0.0,0.0,0.0,0.0,0.0,0.0,0.0,0.0,0.0,0.0,0.0,0.0,0.0,0.0,0.0,0.0,0.0,0.0,0.0,0.0,0.0,0.0,0.0,0.0,0.0,0.0,0.0,0.0,0.0,2.485,2.47,2.4528,2.4321,2.4209,0.0,2.4644,2.4817,2.4832,2.5149,2.5303,2.5303,2.537,2.539,2.5409,2.5467,2.5535,2.5602,2.5605,2.5644,2.5703,2.5703,2.5703,2.5801,2.6602,2.6875,2.7031,2.7891,2.8184,2.834,2.9219,2.9492,2.9668,3.0391,3.0545,3.0521,3.0506,3.0448,3.0398,3.0398,3.0398,3.0398,3.0398,3.0398,3.0398,3.0398,3.0398,3.0398,3.0398,3.0398,3.0398,3.0398,3.0398,3.0398,3.0398,3.0398,3.0398,3.0398,3.1831,3.2825,3.2891,3.443,3.5416,3.5474,3.5493,3.5493,3.5493,3.5757,3.5813,3.5616,3.5786,3.5815,3.5699,3.5699,3.568,3.568,3.568,3.568,0.0,0.0,0.0,0.0,0.0,0.0,0.0,0.0,0.0,0.0,0.0,0.0,0.0,0.0,0.0,0.0,0.0,0.0,0.0,0.0,0.0,0.0,0.0,0.0,0.0,0.0,0.0,0.0,0.0,0.0,0.0,0.0,0.0,2.501,2.4708,2.4623,2.4731,2.4375,2.4357,0.0,2.4773,2.4859,2.4962,2.5192,2.5303,2.5303,2.5322,2.5341,2.5409,2.5427,2.5498,2.5607,2.5607,2.5644,2.5703,2.5703,2.5703,2.5723,2.5918,2.5977,2.6113,2.6992,2.7285,2.7441,2.832,2.9043,2.9609,2.9726,3.0154,3.0568,3.0505,3.0448,3.0398,3.0398,3.0398,3.0398,3.0398,3.0398,3.0398,3.0398,3.0398,3.0398,3.0398,3.0398,3.0398,3.0398,3.0398,3.0398,3.0398,3.0398,3.0398,3.0398,3.1333,3.2199,3.2846,3.3878,3.4768,3.5455,3.5493,3.5493,3.5493,3.5661,3.572,3.5669,3.572,3.5738,3.5699,3.5603,3.5545,3.5545,3.5545,3.5545,0.0,0.0,0.0,0.0,0.0,0.0,0.0,0.0,0.0,0.0,0.0,0.0,0.0,0.0,0.0,0.0,0.0,0.0,0.0,0.0,0.0,0.0,0.0,0.0,0.0,0.0,0.0,0.0,0.0,0.0,0.0,2.4956,2.4864,2.4762,2.4588,2.4512,2.4512,2.4303,2.4339,2.4654,2.4746,2.4929,2.5152,2.5253,2.5303,2.5303,2.5303,2.5322,2.5341,2.5341,2.5428,2.5543,2.555,2.5618,2.5703,2.5703,2.5703,2.5703,2.5703,2.5703,2.5762,2.623,2.6387,2.6543,2.7402,2.7988,2.8437,2.8828,2.9171,2.9444,2.9361,2.959,2.9809,2.9794,3.0102,3.0398,3.0398,3.0398,3.0398,3.0398,3.0398,3.0398,3.0398,3.0398,3.0398,3.0398,3.0398,3.0398,3.0398,3.0398,3.0398,3.0398,3.1513,3.2449,3.2865,3.409,3.5018,3.5455,3.5493,3.5493,3.5493,3.5603,3.5644,3.56,3.5674,3.566,3.5603,3.5545,3.5493,3.5493,3.5493,3.5493,0.0,0.0,0.0,0.0,0.0,0.0,0.0,0.0,0.0,0.0,0.0,0.0,0.0,0.0,0.0,0.0,0.0,0.0,0.0,0.0,0.0,0.0,0.0,0.0,0.0,0.0,0.0,0.0,0.0,0.0,2.4804,2.4775,2.467,2.4512,2.4461,2.4393,2.4247,2.4266,2.4375,2.4588,2.4788,2.5019,2.5303,2.5303,2.5303,2.5303,2.5303,2.5303,2.5303,2.5303,2.537,2.5476,2.5492,2.5573,2.5684,2.5703,2.5703,2.5703,2.5703,2.5703,2.5703,2.5703,2.5703,2.582,2.6562,2.6875,2.7148,2.7871,2.8144,2.8175,2.8125,2.8653,2.9194,2.9121,2.9775,3.0398,3.0398,3.0398,3.0398,3.0398,3.0398,3.0398,3.0398,3.0398,3.0398,3.0398,3.0398,3.0398,3.0398,3.0398,3.0398,3.0398,3.1775,3.2756,3.2891,3.4359,3.5339,3.5474,3.5493,3.5493,3.5493,3.5565,3.5577,3.5496,3.563,3.5632,3.5526,3.5526,3.5493,3.5493,3.5493,3.5493,0.0,0.0,0.0,0.0,0.0,0.0,0.0,0.0,0.0,0.0,0.0,0.0,0.0,0.0,0.0,0.0,0.0,0.0,0.0,0.0,0.0,0.0,0.0,0.0,0.0,0.0,0.0,0.0,0.0,0.0,2.479,2.4639,2.4528,2.4495,2.4339,2.4321,2.4461,2.4461,2.462,2.4949,2.5141,2.5264,2.5303,2.5303,2.5303,2.5303,2.5303,2.5303,2.5303,2.5303,2.5341,2.5409,2.5473,2.5554,2.5625,2.5684,2.5703,2.5703,2.5703,2.5703,2.5703,2.5703,2.5703,2.5723,2.584,2.6406,2.7012,2.7148,2.7676,2.8181,2.8126,2.8651,2.9179,2.9121,2.9775,3.0398,3.0398,3.0398,3.0398,3.0398,3.0398,3.0398,3.0398,3.0398,3.0398,3.0398,3.0398,3.0398,3.0398,3.0398,3.0398,3.0398,3.1282,3.2135,3.2846,3.3813,3.471,3.5435,3.5493,3.5493,3.5493,3.5565,3.5559,3.5496,3.5572,3.5598,3.5603,3.5545,3.5493,3.5493,3.5493,3.5493,0.0,0.0,0.0,0.0,0.0,0.0,0.0,0.0,0.0,0.0,0.0,0.0,0.0,0.0,0.0,0.0,0.0,0.0,0.0,0.0,0.0,0.0,0.0,0.0,0.0,0.0,0.0,0.0,0.0,2.3039,2.3119,2.3039,2.2989,2.2989,2.3327,2.3566,2.3656,2.4221,2.4663,2.501,2.5203,2.5303,2.5303,2.5303,2.5303,2.5303,2.5303,2.5303,2.5303,2.5303,2.5341,2.5418,2.5468,2.5541,2.5605,2.5684,2.5703,2.5703,2.5703,2.5703,2.5703,2.5703,2.5703,2.5703,2.5703,2.5977,2.6269,2.6269,2.6523,2.6775,2.6677,2.7241,2.7873,2.7909,2.8813,2.9813,3.0283,3.0398,3.0398,3.0398,3.0398,3.0398,3.0398,3.0398,3.0398,3.0398,3.0398,3.0398,3.0398,3.0398,3.059,3.1078,3.1878,3.2705,3.3551,3.4436,3.5089,3.5474,3.5493,3.5493,3.5493,3.5545,3.5565,3.5565,3.5584,3.5584,3.5545,3.5526,3.5493,3.5493,3.5493,3.5493,0.0,0.0,0.0,0.0,0.0,0.0,0.0,0.0,0.0,0.0,0.0,0.0,0.0,0.0,0.0,0.0,0.0,0.0,0.0,0.0,0.0,0.0,0.0,0.0,0.0,0.0,0.0,0.0,0.0,2.1803,2.1803,2.1803,2.1803,2.1803,2.2373,2.2703,2.2703,2.3719,2.4388,2.4705,2.5056,2.5203,2.5171,2.5171,2.5171,2.519,2.5253,2.5303,2.5303,2.5303,2.5322,2.539,2.5466,2.5518,2.5581,2.5664,2.5703,2.5703,2.5703,2.5703,2.5703,2.5703,2.5703,2.5703,2.5703,2.5703,2.5703,2.5703,2.5703,2.566,2.5561,2.6157,2.6882,2.7189,2.8198,2.934,3.0206,3.0398,3.0398,3.0398,3.0398,3.0398,3.0398,3.0398,3.0398,3.0398,3.0398,3.0398,3.0398,3.0398,3.0725,3.1609,3.2417,3.3237,3.4135,3.5007,3.5493,3.5493,3.5493,3.5493,3.5493,3.5493,3.5526,3.5584,3.5603,3.5584,3.5545,3.5526,3.5493,3.5493,3.5493,3.5493,0.0,0.0,0.0,0.0,0.0,0.0,0.0,0.0,0.0,0.0,0.0,0.0,0.0,0.0,0.0,0.0,0.0,0.0,0.0,0.0,0.0,0.0,0.0,0.0,0.0,0.0,0.0,0.0,0.0,2.1803,2.1803,2.1803,2.1803,2.1803,2.1839,2.1876,2.1876,2.2997,2.3657,2.3873,2.4648,2.4956,2.4832,2.4832,2.4832,2.4847,2.516,2.5303,2.5303,2.5303,2.5303,2.5322,2.5447,2.5499,2.5516,2.5659,2.5703,2.5703,2.5703,2.5703,2.5703,2.5703,2.5703,2.5703,2.5703,2.5703,2.5703,2.5703,2.5703,2.5675,2.5608,2.6189,2.6978,2.7757,2.8533,2.9337,3.0206,3.0398,3.0398,3.0398,3.0398,3.0398,3.0398,3.0398,3.0398,3.0398,3.0398,3.0398,3.0398,3.0398,3.0737,3.1607,3.2422,3.325,3.4141,3.5001,3.5493,3.5493,3.5493,3.5493,3.5493,3.5493,3.5493,3.5526,3.5584,3.5603,3.5603,3.5545,3.5493,3.5493,3.5493,3.5493,0.0,0.0,0.0,0.0,0.0,0.0,0.0,0.0,0.0,0.0,0.0,0.0,0.0,0.0,0.0,0.0,0.0,0.0,0.0,0.0,0.0,0.0,0.0,0.0,0.0,0.0,0.0,0.0,0.0,0.0,2.0205,2.0205,2.0205,2.0205,2.0703,2.1281,2.1922,2.2335,2.2905,2.3613,2.391,2.4306,2.4804,2.4804,2.4804,2.4818,2.5018,2.5099,2.5111,2.5253,2.5303,2.5303,2.5447,2.5492,2.5526,2.5658,2.5703,2.5703,2.5703,2.5703,2.5703,2.5703,2.5703,2.5703,2.5703,2.5703,2.5703,2.5703,2.5703,2.568,2.5618,2.5777,2.6292,2.7614,2.8398,2.9137,3.0225,3.0417,3.0398,3.0467,3.0467,3.0467,3.0467,3.0467,3.0448,3.0398,3.0398,3.0398,3.0398,3.0398,3.0737,3.1602,3.1968,3.2679,3.4077,3.4493,3.4903,3.5455,3.5493,3.5493,3.5493,3.5493,3.5545,3.5641,3.5622,3.5584,3.5545,3.5565,3.5545,3.5493,3.5493,3.5493,0.0,0.0,0.0,0.0,0.0,0.0,0.0,0.0,0.0,0.0,0.0,0.0,0.0,0.0,0.0,0.0,0.0,0.0,0.0,0.0,0.0,0.0,0.0,0.0,0.0,0.0,0.0,0.0,0.0,0.0,1.9305,1.9305,1.9305,1.9305,1.9822,2.0446,2.1189,2.1451,2.2083,2.3009,2.3291,2.3844,2.4591,2.4591,2.4591,2.4607,2.4836,2.4962,2.5022,2.5214,2.5303,2.5303,2.5447,2.5492,2.5526,2.5658,2.5703,2.5703,2.5703,2.5703,2.5703,2.5703,2.5703,2.5703,2.5703,2.5703,2.5703,2.5703,2.5703,2.5681,2.566,2.5788,2.628,2.7614,2.8409,2.9179,3.0294,3.0487,3.0448,3.0525,3.0527,3.053,3.053,3.0516,3.0487,3.0448,3.0398,3.0398,3.0398,3.0398,3.0737,3.1602,3.1698,3.2249,3.3647,3.4032,3.4447,3.5018,3.5339,3.5526,3.5545,3.5545,3.5603,3.5699,3.5699,3.5661,3.5584,3.5603,3.5584,3.5493,3.5493,3.5493,0.0,0.0,0.0,0.0,0.0,0.0,0.0,0.0,0.0,0.0,0.0,0.0,0.0,0.0,0.0,0.0,0.0,0.0,0.0,0.0,0.0,0.0,0.0,0.0,0.0,0.0,0.0,0.0,0.0,1.9305,1.9305,1.9305,1.9305,1.9305,1.9305,1.938,1.9582,2.0355,2.1161,2.1956,2.284,2.3577,2.4171,2.419,2.419,2.4228,2.4623,2.4883,2.501,2.5214,2.5303,2.5303,2.5447,2.5492,2.5526,2.5658,2.5703,2.5703,2.5703,2.5703,2.5703,2.5703,2.5703,2.5703,2.5703,2.5703,2.5703,2.5703,2.5703,2.5701,2.5703,2.6234,2.6959,2.7757,2.8585,2.9432,3.0352,3.0544,3.0525,3.0583,3.0604,3.06,3.0611,3.0548,3.0498,3.0506,3.0448,3.0398,3.0398,3.0398,3.0717,3.1569,3.1657,3.1985,3.2798,3.3641,3.4159,3.4197,3.4999,3.5526,3.5603,3.5597,3.5636,3.5699,3.5834,3.5834,3.5718,3.5641,3.5584,3.5493,3.5493,3.5493,0.6668,0.0,0.0,0.0,0.0,0.0,0.0,0.0,0.0,0.0,0.0,0.0,0.0,0.0,0.0,0.0,0.0,0.0,0.0,0.0,0.0,0.0,0.0,0.0,0.0,0.0,0.0,0.0,1.9305,1.9305,1.9305,1.9305,1.9305,1.9305,1.9305,1.932,1.938,1.9597,2.0117,2.0915,2.1795,2.2609,2.3364,2.3933,2.419,2.4209,2.4474,2.4689,2.4888,2.5176,2.5303,2.5303,2.5447,2.5492,2.5526,2.5658,2.5703,2.5703,2.5703,2.5703,2.5703,2.5703,2.5703,2.5703,2.5703,2.5703,2.5703,2.5703,2.5703,2.5683,2.564,2.5774,2.614,2.694,2.7771,2.866,2.9586,3.0244,3.0641,3.066,3.067,3.066,3.0679,3.0619,3.0554,3.0521,3.0448,3.0398,3.0398,3.0398,3.0487,3.0717,3.0756,3.1114,3.1965,3.2242,3.291,3.412,3.4466,3.4922,3.5584,3.5643,3.5735,3.5848,3.5872,3.5872,3.5834,3.5738,3.5641,3.5584,3.5526,3.5493,0.0,0.0,0.0,0.0,0.0,0.0,0.0,0.0,0.0,0.0,0.0,0.0,0.0,0.0,0.0,0.0,0.0,0.0,0.0,0.0,0.0,0.0,0.0,0.0,0.0,0.0,0.0,1.9166,1.9243,1.9305,1.9305,1.9305,1.9305,1.9305,1.9305,1.9305,1.9305,1.9305,1.9693,2.0503,2.1015,2.1877,2.3033,2.3492,2.3878,2.4209,2.4515,2.4703,2.4826,2.5153,2.5303,2.5303,2.5447,2.55,2.5518,2.5652,2.5703,2.5703,2.5703,2.5703,2.5703,2.5703,2.5703,2.5703,2.5703,2.5703,2.5703,2.5703,2.5703,2.5684,2.5625,2.5593,2.581,2.6641,2.7232,2.7958,2.9248,2.9906,3.0342,3.0707,3.0743,3.0693,3.0709,3.062,3.0558,3.051,3.0448,3.0398,3.0398,3.0398,3.0398,3.0398,3.0398,3.0602,3.1114,3.148,3.2122,3.3096,3.3525,3.418,3.5093,3.5201,3.5464,3.5924,3.5943,3.59,3.5831,3.5734,3.5647,3.5565,3.5526,3.5493,0.0,0.0,0.0,0.0,0.0,0.0,0.9685,0.9933,0.0,0.0,0.0,0.0,0.0,0.0,0.0,0.0,0.0,0.0,0.0,0.0,0.0,0.0,0.0,0.0,0.0,1.8717,1.8911,1.9035,1.9198,1.9305,1.9305,1.9305,1.9305,1.9305,1.9305,1.9305,1.9305,1.9305,1.9656,2.0356,2.0448,2.1273,2.2722,2.2923,2.34,2.4099,2.4555,2.4781,2.4823,2.5134,2.5284,2.5303,2.5447,2.5505,2.5523,2.5659,2.5703,2.5703,2.5703,2.5703,2.5703,2.5703,2.5703,2.5703,2.5703,2.5703,2.5703,2.5703,2.5703,2.5684,2.5625,2.5605,2.5811,2.6583,2.6831,2.7382,2.91,2.9533,2.9849,3.0736,3.0801,3.0698,3.0698,3.0583,3.0506,3.0506,3.0448,3.0398,3.0398,3.0398,3.0398,3.0398,3.0398,3.0398,3.0398,3.1121,3.1602,3.1698,3.2436,3.331,3.4309,3.4506,3.5005,3.584,3.5957,3.5903,3.5703,3.5702,3.5621,3.5493,3.5493,3.5493,0.0,0.0,0.0,0.0,0.0,0.0,0.0,0.9574,0.0,0.0,0.0,0.0,0.0,0.0,0.0,0.0,0.0,0.0,0.0,0.0,0.0,0.0,0.0,0.0,0.0,1.7858,1.8308,1.9191,1.9274,1.9305,1.9305,1.9305,1.9305,1.9305,1.9305,1.9305,1.9305,1.9305,1.9381,1.9528,2.0189,2.0668,2.1035,2.2373,2.3107,2.329,2.4174,2.4664,2.4808,2.4985,2.5149,2.5303,2.5447,2.5505,2.5523,2.5659,2.5703,2.5703,2.5703,2.5703,2.5703,2.5703,2.5703,2.5703,2.5703,2.5703,2.5703,2.5703,2.5703,2.5703,2.5684,2.5684,2.5722,2.5888,2.647,2.727,2.832,2.9101,2.9851,3.0722,3.0801,3.0698,3.0698,3.0583,3.0506,3.0506,3.0448,3.0398,3.0398,3.0398,3.0398,3.0398,3.0398,3.0398,3.0398,3.0552,3.0948,3.166,3.1903,3.2463,3.3407,3.4187,3.4716,3.4941,3.5644,3.5903,3.5703,3.5706,3.5631,3.5493,3.5493,3.5493,0.0,0.0,0.0,1.0001,0.0,0.0,0.0,0.0,0.0,0.0,0.0,0.0,0.0,0.0,0.0,0.0,0.0,0.0,0.0,0.0,0.0,0.0,0.0,0.0,0.0,1.6934,1.7548,1.8614,1.8694,1.8877,1.9271,1.9305,1.9305,1.9305,1.9305,1.9305,1.9305,1.9305,1.9305,1.9289,1.9711,2.0115,2.0521,2.1365,2.2208,2.3033,2.3712,2.4316,2.4832,2.5053,2.5207,2.5303,2.5447,2.5492,2.5522,2.5658,2.5703,2.5703,2.5703,2.5703,2.5703,2.5703,2.5703,2.5703,2.5703,2.5703,2.5703,2.5703,2.5703,2.5703,2.5703,2.5703,2.5703,2.5703,2.6035,2.6582,2.7461,2.834,2.9219,3.0078,3.0473,3.0644,3.0659,3.0564,3.0487,3.0467,3.0417,3.0398,3.0398,3.0398,3.0398,3.0398,3.0398,3.0398,3.0398,3.0398,3.059,3.1025,3.1114,3.1568,3.2512,3.3441,3.4394,3.5332,3.5781,3.5923,3.5801,3.5728,3.5641,3.5493,3.5493,3.5493,0.0,0.0,0.0,0.0,0.0,1.0232,0.0,0.0,0.0,0.9537,0.0,0.0,0.0,0.0,0.0,0.0,0.0,0.0,0.0,0.0,0.0,0.0,0.0,0.0,0.0,1.6027,1.6762,1.7789,1.7731,1.806,1.9014,1.9069,1.9143,1.9305,1.9305,1.9305,1.9305,1.9305,1.9305,1.9305,1.9305,1.9638,2.0264,2.0429,2.1236,2.2557,2.3216,2.3911,2.4592,2.5091,2.5303,2.5303,2.5447,2.5504,2.5527,2.5644,2.5703,2.5703,2.5703,2.5703,2.5703,2.5703,2.5703,2.5703,2.5703,2.5703,2.5703,2.5703,2.5703,2.5703,2.5703,2.5703,2.5703,2.5703,2.5703,2.5937,2.6816,2.7559,2.8359,2.9394,3.0039,3.0431,3.0578,3.0521,3.0467,3.0398,3.0398,3.0398,3.0398,3.0398,3.0398,3.0398,3.0398,3.0398,3.0398,3.0398,3.0398,3.0398,3.0467,3.0864,3.1607,3.2717,3.416,3.5957,3.5996,3.5966,3.5908,3.5776,3.565,3.5526,3.5526,3.5493,0.0,0.0,0.0,0.0,1.1252,0.0,0.0,0.0,0.9701,0.9122,0.0,0.0,0.0,0.0,0.0,0.0,0.0,0.0,0.0,0.0,0.0,0.0,0.0,0.0,0.0,0.0,1.6143,1.6963,1.6376,1.6633,1.817,1.8243,1.8555,1.9286,1.9305,1.9305,1.9305,1.9305,1.9305,1.9305,1.9305,1.9344,1.9455,2.017,2.0594,2.0888,2.2722,2.3561,2.3743,2.4843,2.5303,2.5303,2.5447,2.5504,2.5527,2.5644,2.5703,2.5703,2.5703,2.5703,2.5703,2.5703,2.5703,2.5703,2.5703,2.5703,2.5703,2.5703,2.5703,2.5703,2.5703,2.5703,2.5703,2.5703,2.5703,2.5937,2.6816,2.707,2.7637,2.9277,2.9609,2.9837,3.0489,3.0492,3.0398,3.0398,3.0398,3.0398,3.0398,3.0398,3.0398,3.0398,3.0398,3.0398,3.0398,3.0398,3.0398,3.0398,3.0467,3.0564,3.0737,3.2444,3.4219,3.5976,3.5996,3.5976,3.5896,3.5777,3.566,3.5603,3.5545,3.5493,0.0,0.0,0.0,0.0,0.0,0.0,0.0,0.0,0.9271,0.0,0.0,0.0,0.0,0.0,0.0,0.0,0.0,0.0,0.0,0.0,0.0,0.0,0.0,0.0,0.0,0.0,0.0,0.0,0.0,1.5509,1.6646,1.716,1.777,1.8574,1.8592,1.8831,1.9305,1.9305,1.9305,1.9305,1.9305,1.9305,1.9308,1.9656,2.006,2.0558,2.1651,2.2641,2.3559,2.4304,2.4889,2.5303,2.5447,2.5504,2.5527,2.5644,2.5703,2.5703,2.5703,2.5703,2.5703,2.5703,2.5703,2.5703,2.5703,2.5703,2.5703,2.5703,2.5703,2.5703,2.5703,2.5703,2.5703,2.5703,2.5703,2.5801,2.6172,2.6641,2.7363,2.8613,2.9141,2.9635,3.0447,3.0527,3.0448,3.0398,3.0398,3.0398,3.0398,3.0417,3.0467,3.0467,3.0487,3.0525,3.0525,3.0487,3.0467,3.0467,3.0521,3.081,3.1388,3.2697,3.3984,3.5215,3.5742,3.5996,3.5957,3.5856,3.5766,3.5661,3.5565,3.5493,1.1114,0.0,0.0,0.0,0.0,0.0,0.0,0.0,0.0,0.0,0.0,0.0,0.0,0.0,0.0,0.0,0.0,0.0,0.0,0.0,0.0,0.0,0.0,0.0,0.0,0.0,0.0,0.0,0.0,0.0,1.5307,1.5918,1.6798,1.806,1.8096,1.8482,1.9305,1.9305,1.9305,1.9305,1.9305,1.9305,1.9305,1.9305,1.9651,2.0286,2.0859,2.1782,2.296,2.3758,2.4438,2.5005,2.537,2.5504,2.5527,2.5644,2.5703,2.5703,2.5703,2.5703,2.5703,2.5703,2.5703,2.5703,2.5703,2.5703,2.5703,2.5703,2.5703,2.5703,2.5703,2.5703,2.5703,2.5703,2.5703,2.5703,2.5703,2.6191,2.6973,2.8086,2.8672,2.9333,3.0413,3.0525,3.0467,3.0398,3.0398,3.0398,3.0398,3.0467,3.0506,3.0506,3.0554,3.0607,3.0607,3.0568,3.0527,3.0544,3.0579,3.1138,3.2324,3.3038,3.3926,3.5039,3.5684,3.5996,3.5996,3.5926,3.5854,3.5757,3.5603,3.5526,0.0,0.0,0.0,0.9751,0.0,0.0,0.0,0.0,1.0842,0.0,0.0,0.0,0.0,0.0,0.0,1.0278,0.0,0.0,0.0,0.0,0.0,0.0,0.0,0.0,0.0,0.0,0.0,0.0,0.0,0.0,1.4414,1.4561,1.5674,1.8041,1.8096,1.8482,1.9305,1.9305,1.9305,1.9305,1.9305,1.9305,1.9305,1.9305,1.9413,1.9694,2.0678,2.119,2.1502,2.335,2.4111,2.4236,2.5149,2.5504,2.5527,2.5644,2.5703,2.5703,2.5703,2.5703,2.5703,2.5703,2.5703,2.5703,2.5703,2.5703,2.5703,2.5703,2.5703,2.5703,2.5703,2.5703,2.5703,2.5703,2.5703,2.5703,2.5703,2.5723,2.625,2.7969,2.8262,2.8747,3.0325,3.0487,3.0398,3.0398,3.0398,3.0398,3.0398,3.0467,3.0506,3.0506,3.0563,3.0594,3.0594,3.0594,3.0614,3.0683,3.0637,3.1426,3.328,3.3379,3.4219,3.5918,3.5996,3.5996,3.5996,3.5937,3.5904,3.5892,3.5699,3.5565,0.0,0.0,1.2099,1.0436,0.0,0.0,0.0,0.0,0.0,0.0,0.0,0.0,0.0,0.0,1.0377,0.9779,0.9776,0.0,0.0,0.0,0.0,0.0,0.0,0.0,0.0,0.0,0.0,0.0,0.0,0.0,0.0,1.3756,1.4976,1.6463,1.7018,1.7679,1.85,1.9032,1.9305,1.9305,1.9305,1.9305,1.9305,1.9305,1.9409,1.9614,2.0044,2.064,2.14,2.27,2.3581,2.4197,2.513,2.5504,2.5527,2.5644,2.5703,2.5703,2.5703,2.5703,2.5703,2.5703,2.5703,2.5703,2.5703,2.5703,2.5703,2.5703,2.5703,2.5703,2.5703,2.5703,2.5703,2.5703,2.5703,2.5703,2.5703,2.5703,2.6035,2.7207,2.7851,2.8533,2.9562,3.0148,3.0448,3.0398,3.0398,3.0398,3.0398,3.0506,3.0565,3.0571,3.0715,3.0806,3.0806,3.0728,3.0682,3.0694,3.0672,3.1248,3.2558,3.3125,3.3945,3.5117,3.5703,3.5996,3.5996,3.5976,3.595,3.5909,3.582,3.5718,1.1708,1.2001,0.0,1.1005,1.0749,0.0,0.9361,0.0,0.0,0.0,0.0,0.0,0.0,0.0,0.0,0.9984,0.9745,0.0,0.0,0.0,0.0,0.0,0.0,0.0,0.0,0.0,1.0067,1.0067,0.0,0.0,0.0,0.0,1.4089,1.5655,1.6468,1.7293,1.8096,1.8904,1.9305,1.9305,1.9305,1.9305,1.9305,1.9376,1.9504,1.9682,1.9809,2.0291,2.1042,2.2301,2.3118,2.3755,2.4985,2.5485,2.5527,2.5644,2.5703,2.5703,2.5703,2.5673,2.5665,2.5681,2.5684,2.5664,2.5684,2.5703,2.5703,2.5703,2.5703,2.5703,2.5703,2.5703,2.5703,2.5703,2.5703,2.5703,2.5703,2.5703,2.5957,2.6836,2.7676,2.8486,2.9233,3.0028,3.0506,3.0398,3.0398,3.0398,3.0398,3.0506,3.0577,3.0607,3.0743,3.0859,3.0898,3.0781,3.0726,3.078,3.0742,3.1277,3.2578,3.3125,3.3965,3.5137,3.5703,3.5996,3.5996,3.5996,3.5976,3.5937,3.5943,3.5842]},{"header":{"parameterUnit":"m.s-1","parameterCategory":1,"la1":30.6,"la2":29.2853,"lo1":-89.7004,"lo2":-87.6739,"dy":0.0162,"dx":0.0183,"nx":112,"ny":82,"refTime":"2024-05-29T06:00:00:Z","depth":0,"parameterNumber":3,"parameterNumberName":"V-component_of_WINDS"},"data":[0.0,0.0,0.0,0.0,0.0,0.0,0.0,0.0,0.0,0.0,0.0,0.0,0.0,0.0,0.0,0.0,0.0,0.0,0.0,0.0,0.0,0.0,0.0,0.0,0.0,0.0,0.0,0.0,0.0,0.0,0.0,0.0,0.0,0.0,0.0,0.0,0.0,0.0,0.0,0.0,0.0,0.0,0.0,0.0,0.0,0.0,0.0,0.0,0.0,0.0,0.0,0.0,0.0,0.0,0.0,0.0,0.0,0.0,0.0,0.0,0.0,0.0,0.0,0.0,0.0,0.0,0.0,0.0,0.0,0.0,0.0,0.0,0.0,0.0,0.0,0.0,0.0,0.0,0.0,0.0,0.0,0.0,0.0,0.0,0.0,0.0,0.0,0.0,0.0,0.0,0.0,0.7935,1.1158,1.3271,1.3361,1.3718,1.3026,1.0863,0.0,0.0,0.0,0.0,0.0,0.0,0.0,0.0,0.0,0.0,0.0,0.0,0.0,0.0,0.0,0.0,0.0,0.0,0.0,0.0,0.0,0.0,0.0,0.0,0.0,0.0,0.0,0.0,0.0,0.0,0.0,0.0,0.0,0.0,0.0,0.0,0.0,0.0,0.0,0.0,0.0,0.0,0.0,0.0,0.0,0.0,0.0,0.0,0.0,0.0,0.0,0.0,0.0,0.0,0.0,0.0,0.0,0.0,0.0,0.0,0.0,0.0,0.0,0.0,0.0,0.0,0.0,0.0,0.0,0.0,0.0,0.0,0.0,0.0,0.0,0.0,0.0,0.0,0.0,0.0,0.0,0.0,0.0,0.0,0.0,0.0,0.0,0.0,0.0,0.0,0.0,0.0,0.0,0.0,0.0,0.0,0.0,0.0,0.0,0.0,0.0,0.0,0.0,0.0,0.693,0.998,1.2353,1.3896,1.4404,1.4178,1.3638,1.2817,0.0,0.0,0.0,0.0,0.0,0.0,0.0,0.0,0.0,0.0,0.0,0.0,0.0,0.0,0.0,0.0,0.0,0.0,0.0,0.0,0.0,0.0,0.0,0.0,0.0,0.0,0.0,0.0,0.0,0.0,0.0,0.0,0.0,0.0,0.0,0.0,0.0,0.0,0.0,0.0,0.0,0.0,0.0,0.0,0.0,0.0,0.0,0.0,0.0,0.0,0.0,0.0,0.0,0.0,0.0,0.0,0.0,0.0,0.0,0.0,0.0,0.0,0.0,0.0,0.0,0.0,0.0,0.0,0.0,0.0,0.0,0.0,0.0,0.0,0.0,0.0,0.0,0.0,0.0,0.0,0.0,0.0,0.0,0.0,0.0,0.0,0.0,0.0,0.0,0.0,0.0,0.0,0.0,0.0,0.0,0.0,0.0,0.0,0.0,0.0,0.0,0.0,0.0,0.6972,0.8455,1.096,1.2767,1.3909,1.419,1.3845,1.3251,1.2496,1.0564,0.0,0.0,0.0,0.0,0.0,0.0,0.0,0.0,0.0,0.0,0.0,0.0,0.0,0.0,0.0,0.0,0.0,0.0,0.0,0.0,0.0,0.0,0.0,0.0,0.0,0.0,0.0,0.0,0.0,0.0,0.0,0.0,0.0,0.0,0.0,0.0,0.0,0.0,0.0,0.0,0.0,0.0,0.0,0.0,0.0,0.0,0.0,0.0,0.0,0.0,0.0,0.0,0.0,0.0,0.0,0.0,0.0,0.0,0.0,0.0,0.0,0.0,0.0,0.0,0.0,0.0,0.0,0.0,0.0,0.0,0.0,0.0,0.0,0.0,0.0,0.0,0.0,0.0,0.0,0.0,0.0,0.0,0.0,0.0,0.0,0.0,0.0,0.0,0.0,0.0,0.0,0.0,0.0,0.0,0.0,0.0,0.0,0.0,0.0,0.0,0.0,0.0,0.8692,0.9972,1.1455,1.2914,1.3815,1.3815,1.3422,1.28,1.1966,1.0135,0.0,0.0,0.0,0.0,0.0,0.0,0.0,0.0,0.0,0.0,0.0,0.0,0.0,0.0,0.0,0.0,0.0,0.0,0.0,0.0,0.0,0.0,0.0,0.0,0.0,0.0,0.0,0.0,0.0,0.0,0.0,0.0,0.0,0.0,0.0,0.0,0.0,0.0,0.0,0.0,0.0,0.0,0.0,0.0,0.0,0.0,0.0,0.0,0.0,0.0,0.0,0.0,0.0,0.0,0.0,0.0,0.0,0.0,0.0,0.0,0.0,0.0,0.0,0.0,0.0,0.0,0.0,0.0,0.0,0.0,0.0,0.0,0.0,0.0,0.0,0.0,0.0,0.0,0.0,0.0,0.0,0.0,0.0,0.0,0.0,0.0,0.0,0.0,0.0,0.0,0.0,0.0,0.0,0.0,0.0,0.0,0.0,0.0,0.0,0.0,0.0,0.0,0.9269,1.0922,1.1543,1.2914,1.3815,1.3815,1.3365,1.2855,1.2294,1.003,0.0,0.0,0.0,0.0,0.0,0.0,0.0,0.0,0.0,0.0,0.0,0.0,0.0,0.0,0.0,0.0,0.0,0.0,0.0,0.0,0.0,0.0,0.0,0.0,0.0,0.0,0.0,0.0,0.0,0.0,0.0,0.0,0.0,0.0,0.0,0.0,0.0,0.0,0.0,0.0,0.0,0.0,0.0,0.0,0.0,0.0,0.0,0.0,0.0,0.0,0.0,0.0,0.0,0.0,0.0,0.0,0.0,0.0,0.0,0.0,0.0,0.0,0.0,0.0,0.0,0.0,0.0,0.0,0.0,0.0,0.0,0.0,0.0,0.0,0.0,0.0,0.0,0.0,0.0,0.0,0.0,0.0,0.0,0.0,0.0,0.0,0.0,0.0,0.0,0.0,0.0,0.0,0.0,0.0,0.0,0.0,0.0,0.0,0.0,0.0,0.0,0.0,0.9337,1.0855,0.0,1.2735,1.3127,1.2846,1.2397,1.1722,1.0694,0.0,0.0,0.0,0.0,0.0,0.0,0.0,0.0,0.0,0.0,0.0,0.0,0.0,0.0,0.0,0.0,0.0,0.0,0.0,0.0,0.0,0.0,0.0,0.0,0.0,0.0,0.0,0.0,0.0,0.0,0.0,0.0,0.0,0.0,0.0,0.0,0.0,0.0,0.0,0.0,0.0,0.0,0.0,0.0,0.0,0.0,0.0,0.0,0.0,0.0,0.0,0.0,0.0,0.0,0.0,0.0,0.0,0.0,0.0,0.0,0.0,0.0,0.0,0.0,0.0,0.0,0.0,0.0,0.0,0.0,0.0,0.0,0.0,0.0,0.0,0.0,0.0,0.0,0.0,0.0,0.0,0.0,0.0,0.0,0.0,0.0,0.0,0.0,0.0,0.0,0.0,0.0,0.0,0.0,0.0,0.0,0.0,0.0,0.0,0.0,0.0,0.0,0.7982,0.98,1.1366,0.0,1.2929,1.302,1.2523,1.1943,1.0995,0.9703,0.0,0.0,0.0,0.0,0.0,0.0,0.0,0.0,0.0,0.0,0.0,0.0,0.0,0.0,0.0,0.0,0.0,0.0,0.0,0.0,0.0,0.0,0.0,0.0,0.0,0.0,0.0,0.0,0.0,0.0,0.0,0.0,0.0,0.0,0.0,0.0,0.0,0.0,0.0,0.0,0.0,0.0,0.0,0.0,0.0,0.0,0.0,0.0,0.0,0.0,0.0,0.0,0.0,0.0,0.0,0.0,0.0,0.0,0.0,0.0,0.0,0.0,0.0,0.0,0.0,0.0,0.0,0.0,0.0,0.0,0.0,0.0,0.0,0.0,0.0,0.0,0.0,0.0,0.0,0.0,0.0,0.0,0.0,0.0,0.0,0.0,0.0,0.0,0.0,0.0,0.0,0.0,0.0,0.0,0.0,0.0,0.0,0.0,0.0,0.0,0.0,0.0,0.833,1.0799,1.2668,1.3068,1.3542,1.3626,1.3152,1.211,1.0971,0.0,0.0,0.0,0.0,0.0,0.0,0.0,0.0,0.0,0.0,0.0,0.0,0.0,0.0,0.0,0.0,0.0,0.0,0.0,0.0,0.0,0.0,0.0,0.0,0.0,0.0,0.0,0.0,0.0,0.0,0.0,0.0,0.0,0.0,0.0,0.0,0.0,0.0,0.0,0.0,0.0,0.0,0.0,0.0,0.0,0.0,0.0,0.0,0.0,0.0,0.0,0.0,0.0,0.0,0.0,0.0,0.0,0.0,0.0,0.0,0.0,0.0,0.0,0.0,0.0,0.0,0.0,0.0,0.0,0.0,0.0,0.0,0.0,0.0,0.0,0.0,0.0,0.0,0.0,0.0,0.0,0.0,0.0,0.0,0.0,0.0,0.0,0.0,0.0,0.0,0.0,0.0,0.0,0.0,0.0,0.0,0.0,0.0,0.0,0.0,0.0,0.0,0.0,0.0,1.0995,1.2785,1.3531,1.3742,1.3499,1.2753,1.2022,1.0626,0.8387,0.0,0.0,0.0,0.0,0.0,0.0,0.0,0.0,0.0,0.0,0.0,0.0,0.0,0.0,0.0,0.0,0.0,0.0,0.0,0.0,0.0,0.0,0.0,0.0,0.0,0.0,0.0,0.0,0.0,0.0,0.0,0.0,0.0,0.0,0.0,0.0,0.0,0.0,0.0,0.0,0.0,0.0,0.0,0.0,0.0,0.0,0.0,0.0,0.0,0.0,0.0,0.0,0.0,0.0,0.0,0.0,0.0,0.0,0.0,0.0,0.0,0.0,0.0,0.0,0.0,0.0,0.0,0.0,0.0,0.0,0.0,0.0,0.0,0.0,0.0,0.0,0.0,0.0,0.0,0.0,0.0,0.0,0.0,0.0,0.0,0.0,0.0,0.0,0.0,0.0,0.0,0.0,0.0,0.0,0.0,0.0,0.0,0.0,0.0,0.0,0.0,0.0,0.9464,1.1531,1.3313,1.4392,1.4318,1.3887,1.3216,1.2175,1.0645,0.8347,0.0,0.0,0.0,0.0,0.0,0.0,0.0,0.0,0.0,0.0,0.0,0.0,0.0,0.0,0.0,0.0,0.0,0.0,0.0,0.0,0.0,0.0,0.0,0.0,0.0,0.0,0.0,0.0,0.0,0.0,0.0,0.0,0.0,0.0,0.0,0.0,0.0,0.0,0.0,0.0,0.0,0.0,0.0,0.0,0.0,0.0,0.0,0.0,0.0,0.0,0.0,0.0,0.0,0.0,0.0,0.0,0.0,0.0,0.0,0.0,0.0,0.0,0.0,0.0,0.0,0.0,0.0,0.0,0.0,0.0,0.0,0.0,0.0,0.0,0.0,0.0,0.0,0.0,0.0,0.0,0.0,0.0,0.0,0.0,0.0,0.0,0.0,0.0,0.0,0.0,0.0,0.0,0.0,0.0,0.0,0.0,0.0,0.0,0.0,0.0,0.0,0.0,1.0318,1.2219,1.3948,1.5336,1.5062,1.4598,1.4157,1.2633,1.0922,0.917,0.0,0.0,0.0,0.0,0.0,0.0,0.0,0.0,0.0,0.0,0.0,0.0,0.0,0.0,0.0,0.0,0.0,0.0,0.0,0.0,0.0,0.0,0.0,0.0,0.0,0.0,0.0,0.0,0.0,0.0,0.0,0.0,0.0,0.0,0.0,0.0,0.0,0.0,0.0,0.0,0.0,0.0,0.0,0.0,0.0,0.0,0.0,0.0,0.0,0.0,0.0,0.0,0.0,0.0,0.0,0.0,0.0,0.0,0.0,0.0,0.9179,0.0,0.0,0.0,0.0,0.0,0.0,0.0,0.0,0.0,0.0,0.0,0.0,0.0,0.0,0.0,0.0,0.0,0.0,0.0,0.0,0.0,0.0,0.0,0.0,0.0,0.0,0.0,0.0,0.0,0.0,0.0,0.0,0.0,0.0,0.0,0.0,0.0,0.0,0.0,0.0,0.0,1.0054,1.2091,1.378,1.4778,1.5186,1.5033,1.4157,1.3011,1.1491,0.959,0.0,0.0,0.0,0.0,0.0,0.0,0.0,0.0,0.0,0.0,0.0,0.0,0.0,0.0,0.0,0.0,0.0,0.0,0.0,0.0,0.0,0.0,0.0,0.0,0.0,0.0,0.0,0.0,0.0,0.0,0.0,0.0,0.0,0.0,0.0,0.0,0.0,0.0,0.0,0.0,0.0,0.0,0.0,0.0,0.0,0.0,0.0,0.0,0.0,0.0,0.0,0.0,0.0,0.0,0.0,0.0,0.0,0.0,0.0,0.0,0.0,1.0874,0.0,0.0,0.0,0.0,0.0,0.0,0.0,0.0,0.0,0.0,0.0,0.0,0.0,0.0,0.0,0.0,0.0,0.0,0.0,0.0,0.0,0.0,0.0,0.0,0.0,0.0,0.0,0.0,0.0,0.0,0.0,0.0,0.0,0.0,0.0,0.0,0.0,0.0,0.0,0.0,1.0458,1.2192,1.3739,1.5015,1.5141,1.4959,1.444,1.339,1.2058,1.0312,0.9443,0.0,0.0,0.0,0.0,0.0,0.0,0.0,0.0,0.0,0.0,0.0,0.0,0.0,0.0,0.0,0.0,0.0,0.0,0.0,0.0,0.0,0.0,0.0,0.0,0.0,0.0,0.0,0.0,0.0,0.0,0.0,0.0,0.0,0.0,0.0,0.0,0.0,0.0,0.0,0.0,0.0,0.0,0.0,0.0,0.0,0.0,0.0,0.0,0.0,0.0,0.0,0.0,0.0,1.1242,1.1737,1.2559,1.2661,1.3132,1.3857,1.3332,1.3471,1.3982,0.0,0.0,0.0,0.0,0.0,0.0,0.0,0.0,0.0,0.0,0.0,0.0,0.0,0.0,0.0,0.0,0.0,0.0,0.0,0.0,0.0,0.0,0.0,0.0,0.0,1.1043,1.0864,0.0,0.0,0.0,0.0,0.0,0.0,0.0,0.0,0.0,0.0,0.0,0.0,1.1004,1.232,1.3649,1.5116,1.4915,1.4663,1.456,1.3656,1.25,1.1116,1.0215,0.9174,0.0,0.0,0.0,0.0,0.0,0.0,0.0,0.0,0.0,0.0,0.0,0.0,0.0,0.0,0.0,0.0,0.0,0.0,0.0,0.0,0.0,0.0,0.0,0.0,0.0,0.0,0.0,0.0,0.0,0.0,0.0,0.0,0.7531,0.8083,0.0,0.0,0.0,0.0,0.0,0.0,0.0,0.0,0.0,0.0,0.0,0.0,0.0,0.0,1.083,1.1646,1.2356,1.3042,1.3813,1.4205,1.4395,1.4911,1.5219,1.5365,1.5768,0.0,1.4096,1.4075,0.0,0.0,0.0,0.0,0.0,0.0,0.0,0.0,0.0,0.0,0.0,0.0,0.0,0.0,0.0,0.0,0.0,0.0,0.0,0.0,0.0,0.0,1.3806,1.2931,1.2757,1.2614,0.0,1.0497,0.9291,0.8848,0.0,0.0,0.0,0.0,0.0,0.0,0.0,0.0,1.1242,1.2424,1.3345,1.395,1.4422,1.4468,1.3956,1.3429,1.2634,1.1591,1.0674,0.9785,0.8877,0.7978,0.0,0.0,0.0,0.0,0.0,0.0,0.0,0.0,0.0,0.0,0.0,0.0,0.0,0.0,0.0,0.0,0.0,0.0,0.0,0.0,0.0,0.0,0.0,0.0,0.0,0.0,0.0,0.0,0.0,0.8117,0.8627,0.8762,0.943,0.934,0.0,0.0,0.0,0.0,0.0,0.0,0.0,0.0,0.0,1.0332,1.0934,1.1551,1.2256,1.3227,1.4194,1.5087,1.5451,1.6009,1.6702,1.6934,1.7073,1.7073,1.7314,1.7049,1.6325,1.5183,1.4219,1.337,0.0,0.0,0.0,0.0,0.0,1.0344,1.0805,1.0892,0.0,0.0,0.0,0.0,0.0,0.0,0.0,0.0,0.0,0.0,0.0,0.0,0.0,1.4047,1.3739,1.3418,1.316,1.2243,1.1182,0.0,0.9922,0.9453,0.8359,0.0,0.0,0.0,0.0,0.0,1.1414,1.2383,1.3195,1.3747,1.405,1.4097,1.3815,1.3626,1.3047,1.2008,1.139,1.0655,0.9756,0.8896,0.7976,0.0,0.0,0.0,0.0,0.0,0.0,0.0,0.0,0.0,0.0,0.0,0.0,0.0,0.0,0.0,0.0,0.0,0.0,0.0,0.0,0.0,0.0,0.0,0.0,0.0,0.0,0.0,0.0,0.8973,0.9533,0.9539,1.0474,1.0532,0.0,0.0,0.0,0.0,0.0,0.0,1.0098,1.0537,1.1025,1.1553,1.2321,1.3104,1.3879,1.4655,1.5683,1.6868,1.6868,1.7333,1.8204,1.8204,1.8204,1.8204,1.8204,1.8204,1.8078,1.6409,1.5549,1.5134,1.3674,1.2938,1.2569,1.2163,1.1986,1.2064,1.2545,1.2667,1.2646,1.2207,0.0,1.1123,1.0449,0.0,0.0,0.0,0.0,1.3103,1.3975,1.4664,1.5184,1.5326,1.4791,1.4185,1.4042,1.3405,1.2559,0.0,1.125,1.0869,0.9697,0.0,0.0,0.0,0.0,1.123,1.1724,1.2402,1.3065,1.3505,1.3552,1.3552,1.3552,1.3552,1.3179,1.2256,1.1807,1.1263,1.0469,0.9619,0.8775,0.0,0.0,0.0,0.0,0.0,0.0,0.0,0.0,0.0,0.0,0.0,0.0,0.0,0.0,0.0,0.0,0.0,0.0,0.0,0.0,0.0,0.0,0.0,0.0,0.0,0.0,0.0,0.0,0.0,0.0,1.0742,1.1191,0.0,0.0,0.0,0.0,0.9626,1.0342,1.1006,1.1479,1.1885,1.2462,1.335,1.3398,1.4296,1.6014,1.6098,1.6767,1.8106,1.8106,1.8131,1.8204,1.8204,1.8204,1.8204,1.8204,1.8204,1.8191,1.8078,1.7331,1.6162,1.5565,1.4602,1.3527,1.3412,1.3429,1.3437,1.3887,1.398,1.3912,1.3545,1.2842,1.2112,1.2064,1.2186,0.0,0.0,1.4282,1.57,1.6123,1.7105,1.783,1.7291,1.6275,1.5248,1.4665,1.3677,1.2744,0.0,1.2112,1.183,1.0967,0.0,1.0811,1.0811,1.1221,1.1734,1.2139,1.2598,1.2929,1.2929,1.2978,1.2978,1.2978,1.2978,1.2743,1.2209,1.1807,1.14,1.0898,1.0021,0.9243,0.8562,0.7686,0.0,0.0,0.0,0.0,0.0,0.0,0.0,0.0,0.0,0.0,0.0,0.0,0.0,0.0,0.0,0.0,0.0,0.0,0.0,0.0,0.0,0.0,0.0,0.0,0.0,0.0,0.0,0.0,1.1762,1.2537,0.0,0.0,1.1399,1.1634,1.1289,1.1538,1.1953,1.243,1.2822,1.3193,1.3496,1.4184,1.4862,1.5485,1.6378,1.7187,1.803,1.8474,1.8907,1.9233,1.9233,1.9233,1.9233,1.9233,1.897,1.85,1.85,1.7831,1.6703,1.567,1.498,1.4511,1.4056,1.3916,1.3936,1.4029,1.4077,1.4058,1.3902,1.3701,1.3406,1.3406,1.382,1.4333,1.4952,1.5889,1.6906,1.7394,1.79,1.8049,1.7327,1.6538,1.577,1.5076,1.4245,1.3643,1.3486,1.3018,1.2461,1.182,1.1992,1.208,1.1797,1.2129,1.2471,1.2627,1.2783,1.2881,1.2881,1.2881,1.2881,1.2881,1.2881,1.2695,1.2209,1.1807,1.141,1.0928,1.0352,0.9807,0.9271,0.8357,0.7235,0.0,0.0,0.0,0.0,0.0,0.0,0.0,0.0,0.0,0.0,0.0,0.0,0.0,0.0,0.0,0.0,0.0,0.0,0.0,0.0,0.0,0.0,0.0,0.0,0.0,0.0,1.1911,1.2278,1.3038,1.3104,1.1915,1.2218,1.2534,1.2627,1.2656,1.2842,1.3281,1.3574,1.3789,1.3936,1.4881,1.5426,1.5593,1.671,1.745,1.7827,1.8267,1.8833,1.9423,1.9423,1.9579,1.9798,1.9527,1.915,1.8661,1.8167,1.7562,1.6814,1.5903,1.5432,1.5161,1.4725,1.4561,1.4561,1.4561,1.4473,1.4355,1.4355,1.4248,1.4077,1.4077,1.4588,1.5257,1.572,1.6452,1.7232,1.7603,1.7834,1.7867,1.7377,1.6689,1.5959,1.5458,1.471,1.4077,1.4077,1.3574,1.2998,1.2715,1.2783,1.2783,1.249,1.2695,1.2881,1.2881,1.2881,1.2881,1.2881,1.2881,1.2881,1.2881,1.2881,1.2754,1.2471,1.1885,1.1469,1.1143,1.0586,1.007,0.9582,0.8415,0.7298,0.6314,0.0,0.0,0.0,0.0,0.0,0.0,0.0,0.0,0.0,0.0,0.0,0.0,0.0,0.0,0.0,0.0,0.0,0.0,0.0,0.0,0.0,0.0,0.0,1.0675,1.1525,1.2146,1.2307,1.2669,1.2715,1.2295,1.2646,1.3066,1.3477,1.3516,1.3711,1.4058,1.4087,1.4346,1.4821,1.5529,1.6077,1.6482,1.7191,1.7578,1.7578,1.7633,1.8015,1.8661,1.8715,1.9097,1.9695,1.8992,1.8661,1.8501,1.709,1.6492,1.6492,1.6492,1.6036,1.541,1.541,1.541,1.541,1.541,1.5146,1.4805,1.4805,1.4521,1.4116,1.4116,1.4596,1.5133,1.5133,1.5954,1.681,1.681,1.7221,1.7567,1.7578,1.6721,1.59,1.5911,1.4986,1.4116,1.4116,1.3838,1.3535,1.3516,1.3174,1.29,1.2881,1.2881,0.0,1.2881,1.2881,1.2881,1.2881,1.2881,1.2881,1.2881,1.2881,1.2871,1.2842,1.2031,1.1553,1.1533,1.0702,1.0019,0.9457,0.7837,0.6775,0.6282,0.0,0.0,0.0,0.0,0.0,0.0,0.0,0.0,0.0,0.0,0.0,0.0,0.0,0.0,0.0,0.0,0.0,0.0,0.0,0.0,0.0,0.0,1.1552,1.1715,1.1961,1.2296,1.2706,1.283,1.2832,1.2715,1.3086,1.3379,1.3496,1.3789,1.3961,1.4077,1.4434,1.4924,1.5574,1.5558,1.5847,1.6482,1.6708,1.681,1.6821,1.7907,1.8232,1.7907,1.8447,1.8501,1.8167,1.8015,1.7578,1.709,1.6652,1.6208,1.569,1.569,1.5584,1.541,1.541,1.541,1.541,1.541,1.5342,1.5244,1.5244,1.5156,1.5059,1.5059,1.5558,1.6116,1.6116,1.6742,1.7377,1.7377,1.7477,1.7468,1.6922,1.6546,1.6182,1.5672,1.5308,1.5059,1.5059,1.4727,1.4238,1.3613,1.3408,1.3232,1.293,1.2881,0.0,1.2881,1.2881,1.2881,1.2881,1.2881,1.2881,1.2881,1.2881,1.2464,0.0,1.1146,1.0657,0.9805,0.9546,0.919,0.8645,0.7556,0.6752,0.0,0.0,0.0,0.0,0.0,0.0,0.0,0.0,0.0,0.0,0.0,0.0,0.0,0.0,0.0,0.0,0.0,0.0,0.0,0.0,0.0,0.0,1.144,1.2218,1.2408,1.2474,1.2598,1.2852,1.2881,1.2949,1.3125,1.3359,1.3662,1.4014,1.4268,1.4482,1.4658,1.4912,1.5266,1.5685,1.578,1.5921,1.6036,1.6379,1.6322,1.6036,1.6901,1.7235,1.7135,1.7578,1.7688,0.0,1.7246,1.6922,1.6492,1.6151,1.5806,0.0,0.0,0.0,0.0,0.0,1.541,1.541,1.541,1.541,1.541,1.541,1.541,1.541,1.541,1.569,1.5979,1.5613,1.5823,1.6089,1.5783,1.5668,1.5553,1.5119,1.5313,1.5439,1.4982,1.5167,1.541,1.541,0.0,0.0,1.416,1.374,1.3418,1.3184,1.2998,1.2881,1.2881,1.2618,1.2452,1.2452,1.2197,1.1999,1.1999,1.1999,0.0,0.0,0.0,1.0172,0.9318,0.9036,0.0,0.0,0.0,0.0,0.0,0.0,0.0,0.0,0.6656,0.6974,0.0,0.0,0.0,0.0,0.0,0.0,0.0,0.0,0.0,0.0,0.0,0.0,0.0,0.0,0.0,0.0,1.1905,1.2432,1.2832,1.2881,1.2881,1.2881,1.292,1.3096,1.3477,1.3594,1.3965,1.4727,1.4834,1.5019,1.5391,0.0,0.0,0.0,0.0,1.6093,1.5526,1.6093,1.6036,1.541,1.5468,1.5806,1.6379,1.6482,1.681,1.7302,1.6641,1.6379,1.6322,1.575,1.5518,1.5547,1.5449,1.541,1.542,1.5469,1.5488,1.5498,1.5547,0.0,0.0,1.5566,1.5566,1.5498,1.5429,1.538,1.5243,1.4345,1.4096,1.3959,1.3199,1.3009,1.3009,1.3009,1.3554,1.4085,1.4085,1.4628,1.5118,1.5118,1.5167,1.511,1.4686,1.4072,1.3562,1.3413,1.3084,1.2832,1.2676,1.2089,1.1665,1.1665,0.0,0.0,1.0813,1.0813,1.0746,1.0655,1.0221,0.9811,0.9407,0.8934,0.8667,0.8667,0.8173,0.7882,0.7882,0.7915,0.7935,0.7956,0.7799,0.7957,0.0,0.0,0.0,0.0,0.0,0.0,0.0,0.0,0.0,0.0,0.0,0.0,0.0,0.0,0.0,1.1919,1.2407,1.2783,1.2871,1.2881,1.2881,1.2881,1.3184,1.3418,1.3496,1.4131,1.4609,1.4775,1.5098,1.5322,1.541,1.541,0.0,1.6265,1.5864,1.5806,1.6265,1.5864,1.5526,1.541,0.0,0.0,1.5633,1.6208,1.6255,1.5806,1.569,1.5633,1.5614,1.5851,1.6152,1.6406,1.5693,1.541,1.5459,1.5811,1.5937,1.5986,1.6348,1.6475,1.6475,1.6475,1.6475,1.6287,1.5549,1.535,0.0,1.3899,1.3555,1.3497,1.3083,1.3009,1.3009,1.3009,1.313,1.3243,1.3243,1.3364,1.3485,1.3485,1.3974,1.4186,1.3451,1.4004,1.4134,1.2868,1.265,1.2271,1.1318,1.1065,1.1015,1.1015,1.0864,1.0813,1.0813,1.0813,1.0497,0.973,0.9083,0.8686,0.8623,0.8524,0.8482,0.8482,0.8098,0.7882,0.7882,0.817,0.829,0.8326,0.8543,0.9134,0.0,0.0,0.0,0.0,0.0,0.0,0.0,0.0,0.0,0.0,0.0,1.0205,0.0,0.0,1.2233,1.2463,1.273,1.2774,1.2393,1.2666,1.2881,1.2881,1.3252,1.3584,1.3799,1.4404,1.4873,1.5078,1.5293,1.541,1.541,1.541,1.5584,1.5921,1.5584,1.5584,1.5921,1.5575,1.541,1.541,1.5748,1.5748,1.541,1.5748,1.5878,1.5732,1.5732,1.5859,1.6094,1.6309,1.6533,1.6617,1.5718,1.5619,1.6103,1.6318,1.6067,1.5701,1.5916,1.5661,1.5274,1.5274,1.5274,1.521,1.4737,1.4607,1.4368,1.3354,1.2638,1.2134,1.2,1.1585,1.1274,1.1717,1.2089,1.2389,1.2389,1.2704,1.3009,1.3009,1.3312,1.3485,1.307,1.351,1.3544,1.2578,1.2163,1.1677,1.111,1.0629,1.0312,1.0312,1.0012,0.9814,0.9814,0.9814,0.9592,0.9147,0.8789,0.8591,0.8591,0.8591,0.8591,0.8591,0.8444,0.837,0.837,0.8517,0.8591,0.8635,0.9112,0.9797,0.0,0.0,0.0,0.0,0.0,0.0,0.0,0.0,0.8984,0.9414,1.0117,1.0869,1.1606,1.195,1.2262,1.2609,1.2666,1.2501,1.1864,1.2452,1.2881,1.2881,1.3252,1.3672,1.4038,1.4531,1.4961,1.5381,1.541,1.541,1.541,1.541,1.541,1.541,1.541,1.541,1.541,1.541,1.541,1.541,1.541,1.541,1.541,1.541,1.5654,1.6125,1.6152,1.6311,1.6517,1.6517,1.65,1.6308,1.5564,1.576,1.6429,1.6288,1.578,1.5186,1.5257,1.4754,1.4162,1.4162,1.402,1.3803,1.3608,1.3398,1.3104,1.2183,1.1222,1.0482,1.0463,0.9796,0.9279,0.9988,1.0758,1.1329,1.1329,1.1958,1.252,1.252,1.2642,1.2704,1.2581,1.2642,1.2643,1.2228,1.168,1.1198,1.0955,1.0174,0.968,0.9621,0.9106,0.8804,0.8804,0.8804,0.8804,0.8804,0.8804,0.8804,0.8804,0.8804,0.8804,0.8804,0.8804,0.8804,0.8804,0.8804,0.8804,0.8804,0.9361,0.9969,0.669,0.7019,0.747,0.8669,0.8961,0.9316,0.0,0.0,1.0752,1.1224,1.167,1.2041,1.2093,1.1987,1.1868,1.1913,1.1922,1.1873,1.1814,1.2452,1.2881,1.2881,1.3252,1.3672,1.4038,1.4531,1.4961,1.5381,1.541,1.541,1.541,1.541,1.541,1.541,1.541,1.541,1.541,1.541,1.541,1.541,1.541,1.541,1.541,1.541,1.5654,1.6145,1.6484,1.6417,1.5975,1.5975,1.5769,1.539,1.525,1.5258,1.5286,1.4882,1.4697,1.467,1.5072,1.511,1.5039,1.5039,1.4426,1.3457,1.2625,1.1747,1.0809,0.9601,0.9171,0.8959,0.8764,0.849,0.8327,0.8462,0.9034,0.9588,0.9588,1.0288,1.087,1.087,1.1476,1.1717,1.0989,1.1476,1.1836,1.1443,1.1329,1.0842,0.9577,0.9315,0.92,0.8937,0.8857,0.8804,0.8804,0.8804,0.8804,0.8804,0.8804,0.8804,0.8804,0.8804,0.8804,0.8804,0.8804,0.8804,0.8804,0.8804,0.8804,0.8804,0.8857,0.9256,0.8531,0.9096,0.0,0.0,1.0545,1.0996,1.1498,1.1621,1.1728,1.1914,1.2305,1.2607,1.2607,1.2173,1.1814,0.0,1.1466,1.1216,1.1216,1.1832,1.2236,1.2236,1.2771,1.3408,1.4019,1.4531,1.4961,1.5381,1.541,1.541,1.541,1.541,1.541,1.541,1.541,1.541,1.541,1.541,1.541,1.541,1.541,1.541,1.541,1.541,1.5482,1.5694,1.6346,1.617,1.5489,1.5489,1.5373,1.5084,1.3909,1.3469,1.3598,1.4552,1.4136,1.3214,1.3425,1.2743,1.1797,1.1797,1.1489,1.1039,1.0616,1.0243,0.9777,0.9244,0.8606,0.8098,0.8467,0.7974,0.7522,0.8001,0.8294,0.8549,0.8549,0.8807,0.9064,0.9064,0.9366,0.9488,0.9122,0.9366,0.9705,1.0105,1.0384,1.031,0.9603,0.9345,0.907,0.8838,0.8804,0.8804,0.8804,0.8804,0.8804,0.8804,0.8804,0.8804,0.8804,0.8374,0.8156,0.8156,0.7723,0.7509,0.7509,0.7937,0.8156,0.8162,0.8756,0.916,0.9724,0.0,0.0,1.1211,1.1713,1.2178,1.2018,1.2178,1.2412,1.2412,1.2656,1.2881,1.2881,1.2295,0.0,1.1566,1.1116,1.0762,1.0559,1.1266,1.1814,1.1774,1.2452,1.3114,1.3623,1.3968,1.4371,1.4898,1.4936,1.511,1.54,1.541,1.541,1.541,1.541,1.541,1.541,1.541,1.541,1.541,1.541,1.5294,1.5059,1.504,1.5031,1.5041,1.5875,1.5649,1.4736,1.4506,1.4212,1.3845,1.2084,1.1421,1.1569,1.3034,1.267,1.1421,1.1421,1.0473,0.9296,0.9296,0.9145,0.8917,0.8917,0.8694,0.847,0.847,0.7836,0.7327,0.7847,0.7266,0.6708,0.7248,0.7522,0.7632,0.7632,0.7832,0.8027,0.8027,0.8027,0.8027,0.8027,0.8027,0.8221,0.8877,0.9292,0.9572,0.9781,0.9472,0.907,0.8838,0.8804,0.8804,0.8804,0.8804,0.8699,0.8533,0.848,0.8427,0.8209,0.767,0.7396,0.7396,0.6858,0.6588,0.6588,0.7128,0.7543,0.7835,0.8582,0.9056,0.0,0.0,1.1113,1.1927,1.2161,1.2334,1.2744,1.2852,1.2861,1.2861,1.2871,1.2881,1.2881,1.2295,1.1566,1.0965,1.0813,1.0559,0.9917,1.0965,1.1823,1.1801,1.2471,1.28,0.0,1.2534,1.2923,1.3761,1.3825,1.4277,1.5332,1.541,1.541,1.541,1.541,1.541,1.541,1.541,1.541,1.541,1.541,1.4991,1.424,1.4175,1.4131,1.4189,1.4919,1.4665,1.3665,1.2677,1.1723,1.0858,0.982,0.9372,0.9372,0.9442,0.9448,0.9372,0.9372,0.9372,0.9296,0.9296,0.8618,0.7859,0.7859,0.7184,0.6352,0.6352,0.6352,0.6345,0.6342,0.6105,0.5864,0.5858,0.631,0.6719,0.6719,0.7372,0.8027,0.8027,0.8027,0.8027,0.8027,0.8027,0.8027,0.8027,0.8086,0.8573,0.989,0.9542,0.907,0.8838,0.8804,0.8804,0.8804,0.8804,0.848,0.7777,0.7723,0.7396,0.6696,0.6642,0.6642,0.6642,0.6588,0.6588,0.6588,0.6642,0.7192,0.8211,0.8217,0.8764,0.0,0.0,1.1811,1.2112,1.2451,1.2695,1.2842,1.2881,1.2881,1.2881,1.2881,1.2764,1.2236,1.1972,1.1408,1.0312,1.0167,1.0064,0.9814,1.0559,1.1116,1.1124,1.1733,0.0,0.0,0.0,0.0,1.3743,1.4204,1.4734,1.5391,1.541,1.541,1.541,1.541,1.541,1.541,1.541,1.541,1.541,1.4874,1.4288,1.3684,1.3997,1.3889,1.3462,1.33,1.2677,1.1675,1.0703,1.011,0.9669,0.8689,0.8313,0.8237,0.7557,0.7326,0.7403,0.8089,0.7859,0.733,0.7338,0.7111,0.681,0.6817,0.6592,0.597,0.4538,0.4144,0.452,0.5937,0.6211,0.6092,0.5775,0.587,0.6006,0.611,0.6257,0.6384,0.6384,0.6384,0.6344,0.6292,0.6272,0.6465,0.7046,0.7447,0.8022,0.912,0.8924,0.8776,0.9015,0.8654,0.83,0.8115,0.7616,0.7235,0.6966,0.6966,0.6858,0.6588,0.6145,0.5869,0.5869,0.5441,0.523,0.5345,0.5849,0.6292,0.6787,0.799,0.8771,1.1591,1.2012,1.2219,1.2422,1.2676,1.2881,1.2881,1.2881,1.2842,1.2676,1.2646,1.2445,1.1817,1.159,1.1107,1.0116,0.9794,0.9585,0.9444,1.0012,1.0415,1.0415,1.1133,0.0,0.0,0.0,0.0,1.2745,1.3546,1.4268,1.4972,1.4991,1.5108,1.541,1.541,1.541,1.541,1.541,1.5235,1.4932,1.3837,1.3182,1.2972,1.3065,1.2794,1.2141,1.1833,1.1137,1.019,0.9216,0.8765,0.8694,0.7629,0.7249,0.7173,0.6567,0.6338,0.6416,0.7026,0.688,0.6271,0.6281,0.5805,0.5168,0.5174,0.5659,0.5986,0.4631,0.313,0.2336,0.3693,0.4568,0.5268,0.5785,0.5793,0.5772,0.5783,0.5728,0.565,0.5599,0.5589,0.5542,0.5456,0.5428,0.5624,0.6137,0.6557,0.7152,0.8191,0.8166,0.8162,0.8441,0.8069,0.7722,0.7505,0.7048,0.6621,0.6322,0.6317,0.6174,0.5882,0.5382,0.5164,0.5164,0.479,0.4592,0.4691,0.5206,0.5731,0.6153,0.7373,0.8291,1.1972,1.2144,1.2307,1.2725,1.2881,1.2881,1.2881,1.2861,1.2734,1.2314,1.2161,1.2015,0.0,0.0,1.0714,1.0202,0.9768,0.932,0.8869,0.9375,0.9792,0.0,0.0,0.0,0.0,0.0,0.0,1.0929,0.0,1.3041,1.4127,1.4213,1.451,1.5225,1.5294,1.5294,1.5294,1.5294,1.4864,1.4085,1.252,1.1966,1.2158,1.1566,1.1039,1.0437,1.0603,1.0115,0.9145,0.8161,0.7706,0.7633,0.6641,0.6338,0.6338,0.6338,0.6338,0.6264,0.6274,0.6278,0.6278,0.621,0.4779,0.3046,0.2968,0.4396,0.6009,0.6009,0.3062,0.0,0.0,0.1462,0.3477,0.5526,0.6029,0.5992,0.583,0.582,0.5772,0.564,0.5599,0.5542,0.5456,0.5428,0.5428,0.5428,0.5428,0.589,0.7293,0.7456,0.7373,0.716,0.7081,0.7076,0.7066,0.7002,0.6625,0.5797,0.5727,0.5368,0.4546,0.4539,0.4539,0.4539,0.4629,0.4707,0.4714,0.486,0.5432,0.6337,0.64,0.7385,1.069,1.1309,1.1951,1.2052,1.2501,1.2881,1.2881,1.2627,1.2317,1.2209,1.1963,1.146,0.0,0.0,0.0,0.9267,0.98,0.0,0.8949,0.9567,0.0,0.0,0.0,1.0617,0.9902,1.0791,0.0,0.0,1.1662,1.2982,1.4127,1.4213,1.4025,1.3606,1.4204,1.4213,1.3606,1.3606,1.3235,1.2381,1.2201,1.192,1.158,1.0969,1.0665,1.0615,0.9185,0.8385,0.8084,0.7099,0.6718,0.6641,0.6412,0.6338,0.6338,0.6338,0.6268,0.6274,0.6288,0.6281,0.6028,0.4457,0.3517,0.2812,0.1253,0.1177,0.157,0.157,0.0863,0.0,0.0,0.039,0.0931,0.1472,0.3955,0.6179,0.6211,0.6057,0.5962,0.5925,0.5749,0.5624,0.5399,0.5372,0.5372,0.5372,0.5432,0.5738,0.6785,0.6905,0.7022,0.7382,0.6931,0.6502,0.6302,0.5755,0.5378,0.5157,0.5157,0.5019,0.4802,0.4802,0.4802,0.4802,0.4843,0.4911,0.5016,0.5057,0.5283,0.5694,0.6331,0.6872,1.0426,1.1103,1.1814,1.1814,1.2344,1.2832,1.2637,1.2256,1.1826,1.1455,1.1025,0.0,0.0,0.0,0.0,0.0,0.0,0.0,0.889,0.9369,0.9666,0.0,0.9944,0.0,0.9932,1.0544,1.0963,0.0,1.1624,1.2426,1.3097,1.3174,1.3114,1.3009,1.3425,1.3485,1.3009,1.2634,1.2266,1.1772,1.1587,1.1259,1.0729,1.0383,0.993,0.9432,0.0,0.7557,0.7099,0.6567,0.6338,0.6338,0.6338,0.6338,0.6338,0.6338,0.6268,0.6281,0.6285,0.5721,0.4846,0.4553,0.3214,0.1487,0.0392,0.0,0.0,0.0,0.0,0.0,0.0,0.0,0.0,0.0,0.3256,0.6273,0.6271,0.621,0.6098,0.604,0.5762,0.5283,0.4381,0.4223,0.4495,0.5249,0.5379,0.5568,0.6083,0.6141,0.6233,0.6519,0.6189,0.5898,0.5742,0.536,0.5084,0.5016,0.5013,0.4986,0.4921,0.4918,0.4918,0.4918,0.4982,0.505,0.5131,0.5199,0.5277,0.5428,0.5881,0.633,1.0269,1.0956,1.1516,1.1516,1.2138,1.2609,1.2175,1.1836,1.1367,1.0518,0.0,0.9485,0.9062,0.0,0.8774,0.8918,0.0,0.8818,0.8915,0.916,0.9307,0.9292,0.9786,1.0134,1.0174,1.0408,1.0863,1.1399,1.1454,1.1578,1.1764,1.1834,1.2143,1.2826,1.2765,1.2704,1.2704,1.202,1.1648,1.1655,1.0835,1.028,0.9898,0.9689,0.8949,0.7744,0.0,0.0,0.6338,0.6338,0.6338,0.6338,0.6338,0.6338,0.6338,0.6264,0.6271,0.6281,0.6285,0.4857,0.3444,0.5611,0.3783,0.0707,0.0157,0.0,0.0,0.0,0.0,0.0,0.0,0.0,0.0,0.0,0.2826,0.552,0.5821,0.6129,0.619,0.5732,0.5587,0.4963,0.337,0.2678,0.288,0.4439,0.4916,0.5049,0.504,0.5233,0.5428,0.5428,0.5428,0.5428,0.5428,0.5428,0.5304,0.5169,0.5162,0.5104,0.4982,0.4979,0.4979,0.4979,0.5098,0.5162,0.5162,0.5294,0.5428,0.5428,0.5428,0.5818,0.8224,0.9176,1.0167,1.0167,1.1065,1.1871,1.1479,1.1431,0.0,0.0,0.0,0.9468,0.9014,0.9515,0.0,0.9327,0.0,0.0,0.0,0.0,0.9986,0.0,0.0,0.0,0.0,0.0,0.0,0.0,0.0,0.0,1.171,1.1834,1.1826,1.202,1.1358,1.0989,1.0989,1.087,1.0807,1.0807,1.0139,0.9832,0.9664,0.8445,0.7772,0.748,0.0,0.0,0.6338,0.6338,0.6338,0.6338,0.6338,0.6338,0.6264,0.6271,0.6285,0.6295,0.6315,0.4886,0.3461,0.5608,0.5771,0.457,0.1021,0.0,0.0,0.0,0.0,0.0,0.0,0.0,0.0,0.0,0.0549,0.1567,0.3295,0.5029,0.573,0.3965,0.4948,0.5887,0.5042,0.2482,0.0602,0.087,0.221,0.3149,0.3147,0.4492,0.5372,0.5428,0.5428,0.5428,0.5428,0.5428,0.5418,0.5321,0.5321,0.5311,0.5284,0.5284,0.5284,0.5284,0.5308,0.5321,0.5321,0.5415,0.5428,0.5428,0.5428,0.5495,0.8262,0.904,0.9814,0.9814,1.0631,1.1307,1.0669,0.0,0.0,0.0,0.0,0.8551,0.8329,0.0,0.0,0.0,0.0,0.0,0.0,0.0,0.0,0.0,0.0,0.0,0.0,0.0,0.0,0.0,0.0,0.0,0.9799,0.9806,0.9806,0.9806,0.9436,0.9256,0.9256,0.9716,0.9913,0.9913,0.9657,0.9323,0.8851,0.7748,0.6972,0.6561,0.6208,0.0,0.6139,0.6139,0.6186,0.6338,0.6338,0.6338,0.6264,0.6274,0.5565,0.4781,0.5918,0.4175,0.165,0.2672,0.2987,0.2672,0.0628,0.0,0.0,0.0,0.0,0.0,0.0,0.0,0.0,0.0,0.0,0.0235,0.1254,0.2273,0.3403,0.457,0.3796,0.2943,0.2652,0.1143,0.0,0.0,0.1546,0.2688,0.2683,0.4303,0.5389,0.5372,0.5369,0.5369,0.5428,0.5428,0.5428,0.5428,0.5428,0.5428,0.5428,0.5432,0.5369,0.5369,0.5376,0.5379,0.5379,0.5372,0.5369,0.5369,0.5432,0.5428,0.8521,0.8942,0.9399,0.9562,1.0302,1.0751,0.9891,0.9728,0.0,0.0,0.8148,0.7841,0.7841,0.0,0.0,0.0,0.0,0.0,0.0,0.0,0.0,0.0,0.0,0.0,0.0,0.0,0.0,0.0,0.0,0.0,0.7962,0.8027,0.8027,0.8027,0.8027,0.8027,0.8027,0.8678,0.9005,0.9005,0.8812,0.8451,0.7822,0.6988,0.6333,0.5755,0.5789,0.0,0.0,0.5979,0.6071,0.6207,0.6176,0.6203,0.6335,0.6321,0.4913,0.3283,0.4484,0.2199,-0.1178,-0.0314,0.0,0.0,0.0,0.0,0.0,0.0,0.0,0.0,0.0,0.0,0.0,0.0,0.0,0.0,0.0,0.0,0.1006,0.4284,0.226,0.0,0.0,0.0,0.0,0.0,0.1214,0.2091,0.2151,0.3366,0.4381,0.4773,0.5176,0.5379,0.5369,0.5369,0.5369,0.5369,0.5369,0.5369,0.5369,0.5376,0.5243,0.4834,0.5186,0.5396,0.5396,0.4634,0.4631,0.5382,0.5369,0.5432,0.7547,0.783,0.8043,0.8745,0.9625,1.0048,0.9201,0.0,0.0,0.9025,0.8546,0.8233,0.8233,0.8319,0.0,0.0,0.0,0.0,0.0,0.0,0.0,0.0,0.0,0.0,0.0,0.0,0.0,0.0,0.0,0.0,0.0,0.8027,0.8027,0.8027,0.8027,0.8027,0.8027,0.8091,0.8091,0.8091,0.7307,0.6924,0.6819,0.606,0.5665,0.5616,0.0,0.0,0.0,0.5823,0.5911,0.6037,0.5898,0.6017,0.6325,0.6298,0.4928,0.289,0.1176,-0.2199,-0.5126,-0.1256,0.0,0.0,0.0,0.0,0.0,0.0,0.0,0.0,0.0,0.0,0.0,0.0,0.0,0.0,0.0,0.0,0.0077,0.0515,0.0291,0.0,0.0,0.0,0.0,0.0,0.0135,0.027,0.0269,0.0404,0.1144,0.2753,0.4439,0.5393,0.5393,0.5393,0.5393,0.5393,0.5393,0.5393,0.5393,0.5393,0.464,0.3013,0.4573,0.5396,0.5396,0.2072,0.2206,0.5393,0.5382,0.5376,0.7883,0.7927,0.7883,0.8593,0.9034,0.9183,0.8672,0.0,0.8858,0.8298,0.8048,0.7947,0.7947,0.796,0.8081,0.0,0.8454,0.8569,0.0,0.0,0.0,0.0,0.0,0.0,0.0,0.0,0.0,0.0,0.0,0.0,0.0,0.6404,0.6404,0.6404,0.6404,0.6404,0.6404,0.6985,0.7242,0.7242,0.685,0.6719,0.6658,0.5885,0.5454,0.5457,0.0,0.0,0.0,0.5674,0.5759,0.5884,0.5827,0.5874,0.6057,0.6257,0.4919,0.2769,0.075,-0.2556,-0.5517,-0.4225,-0.2887,-0.1615,-0.0391,0.0,0.0,0.0,0.0,0.0,0.0,0.0,0.0,0.0,0.0,0.0,0.0,0.0,0.0,0.0,0.0,0.0,0.0,0.0,0.0,0.0,0.0,0.0,0.0,0.0,0.0269,0.1009,0.1744,0.2613,0.3689,0.3758,0.3758,0.3758,0.3758,0.3758,0.3758,0.4852,0.5062,0.4308,0.2893,0.2153,0.2153,0.067,0.1876,0.5406,0.5393,0.5389,0.8147,0.8146,0.8072,0.8768,0.9114,0.913,0.0,0.0,0.8107,0.7627,0.7511,0.7511,0.7511,0.7618,0.7712,0.7712,0.7614,0.7644,0.7987,0.0,0.0,0.0,0.0,0.0,0.0,0.0,0.0,0.0,0.0,0.0,0.0,0.5338,0.5428,0.5428,0.5428,0.5428,0.5428,0.6009,0.6334,0.6334,0.6334,0.6334,0.6264,0.5686,0.5428,0.5428,0.0,0.0,0.0,0.5521,0.5606,0.5735,0.5688,0.5725,0.58,0.6011,0.4781,0.2833,0.0728,-0.1675,-0.4017,-0.5514,-0.5117,-0.3759,-0.2313,-0.1015,0.0,0.0,0.0,0.0,0.0,0.0,0.0,0.0,0.0,0.0,0.0,0.0,0.0,0.0,0.0,0.0,0.0,0.0,0.0,0.0,0.0,0.0,0.0,0.0,0.0,0.0,0.0,0.0537,0.181,0.1877,0.1877,0.1877,0.1877,0.1877,0.1877,0.3094,0.3777,0.3777,0.128,0.0,0.0,0.0,0.1343,0.3777,0.3832,0.3777,0.8074,0.8337,0.8459,0.904,0.988,1.0214,0.0,0.8496,0.8145,0.7285,0.7109,0.7109,0.7109,0.7423,0.7722,0.7785,0.7303,0.7253,0.8162,0.0,0.0,0.0,0.0,0.0,0.0,0.0,0.0,0.0,0.0,0.0,0.0,0.5277,0.5428,0.5428,0.5428,0.5428,0.5428,0.5428,0.5428,0.5428,0.5428,0.5428,0.5428,0.5428,0.5428,0.0,0.0,0.0,0.0,0.5428,0.5454,0.5579,0.5423,0.5545,0.5786,0.5527,0.4417,0.2833,0.0728,-0.0,-0.0654,-0.4247,-0.5808,-0.628,-0.6214,-0.3313,0.0,0.0,0.0,0.0,0.0,0.0,0.0,0.0,0.0,0.0,0.0,0.0,0.0,0.0,0.0,0.0,0.0,0.0,0.0,0.0,0.0,0.0,0.0,0.0,0.0,0.0,0.0,0.0,0.0,0.0,0.0,0.0,0.0,0.0,0.0,0.0067,0.0067,0.0067,0.0,0.0,0.0,0.0,0.0,0.0067,0.0067,0.0068,0.7294,0.7572,0.7718,0.8406,0.8622,0.8604,0.8267,0.7765,0.7331,0.7125,0.6846,0.6631,0.6631,0.6992,0.7387,0.7748,0.787,0.0,0.0,0.0,0.0,0.0,0.0,0.0,0.0,0.0,0.0,0.0,0.0,0.0,0.0,0.5033,0.5152,0.5422,0.5428,0.5428,0.5428,0.5428,0.5428,0.5428,0.5428,0.5428,0.5428,0.5428,0.0,0.0,0.0,0.0,0.0,0.5428,0.5456,0.543,0.5449,0.5423,0.5508,0.541,0.5086,0.4219,0.1105,0.0,-0.0619,-0.4237,-0.4708,-0.4121,-0.5772,-0.5365,-0.3699,-0.0781,-0.1753,-0.3696,-0.3696,-0.2748,-0.1838,-0.1838,-0.0932,0.0,0.0,0.0,0.0,0.0,0.0,0.0,0.0,0.0,0.0,0.0,0.0,0.0,0.0,0.0,0.0,0.0,0.0,0.0,0.0,0.0,0.0,0.0,0.0,0.0,0.0,0.0,0.0,0.0,0.0,0.0,0.0,0.0,0.0,0.0,0.0,0.0,0.0,0.7509,0.7919,0.8302,0.845,0.8373,0.7975,0.7412,0.6896,0.6668,0.6367,0.6221,0.6377,0.6787,0.7231,0.7694,0.7992,0.0,0.0,0.0,0.0,0.0,0.0,0.0,0.0,0.0,0.0,0.0,0.0,0.0,0.0,0.4887,0.5003,0.5189,0.5247,0.5274,0.5274,0.5332,0.5428,0.5428,0.5428,0.5428,0.5428,0.5428,0.0,0.0,0.0,0.0,0.0,0.5428,0.5428,0.5428,0.5432,0.5372,0.5379,0.5396,0.5406,0.4867,0.128,0.0,-0.047,-0.3448,-0.3158,-0.2234,-0.5364,-0.6317,-0.5736,-0.2857,-0.3161,-0.4517,-0.5206,-0.4582,-0.3717,-0.3717,-0.2858,-0.1691,-0.0281,-0.1044,-0.2069,-0.2064,-0.0951,0.0,0.0,0.0,0.0,0.0,0.0,0.0,0.0,0.0,0.0,0.0,0.0,0.0,0.0,0.0,0.0,0.0,0.0,0.0,0.0,0.0,0.0,0.0,0.0,0.0,0.0,0.0,0.0,0.0,0.0,0.0,0.0,0.7857,0.0,0.0,0.8929,0.9057,0.787,0.7287,0.0,0.597,0.5795,0.5913,0.6366,0.6783,0.7207,0.7753,0.0,0.0,0.0,0.0,0.0,0.0,0.0,0.0,0.0,0.0,0.0,0.0,0.0,0.0,0.0,0.4809,0.4887,0.4887,0.5026,0.5104,0.5114,0.5257,0.5401,0.5411,0.5411,0.5418,0.5428,0.5428,0.0,0.0,0.0,0.0,0.0,0.5428,0.5428,0.5428,0.5372,0.5309,0.5243,0.5336,0.5209,0.4523,0.1145,0.0,-0.027,-0.1957,-0.1369,-0.0767,-0.4947,-0.6234,-0.6146,-0.5541,-0.4154,-0.3313,-0.4941,-0.5368,-0.5393,-0.5393,-0.5393,-0.4503,-0.1135,-0.3013,-0.5396,-0.5393,-0.2681,-0.0335,-0.0067,0.0,0.0,0.0,0.0,0.0,0.0,0.0,0.0,0.0,0.0,0.0,0.0,0.0,0.0,0.0,0.0,0.0,0.0,0.0,0.0,0.0,0.0,0.0,0.0,0.0,0.0,0.0,0.0,0.0,0.6046,0.0,0.6968,0.6913,0.7023,0.709,0.0,0.6396,0.6058,0.5842,0.0,0.0,0.6829,0.0,0.0,0.0,0.0,0.0,0.0,0.0,0.0,0.0,0.0,0.0,0.0,0.0,0.0,0.0,0.0,0.0,0.0,0.4551,0.4568,0.4568,0.4714,0.485,0.4969,0.5006,0.5077,0.5186,0.5186,0.5247,0.5428,0.5428,0.0,0.0,0.0,0.0,0.5428,0.5428,0.5428,0.5428,0.5372,0.4561,0.3485,0.4858,0.3641,0.1145,0.027,0.0,-0.0067,-0.0472,-0.0338,-0.0682,-0.448,-0.5769,-0.5835,-0.5472,-0.5063,-0.4865,-0.5265,-0.542,-0.5369,-0.5369,-0.5376,-0.5173,-0.4348,-0.4767,-0.5393,-0.5382,-0.4706,-0.3222,-0.0469,0.0,0.0,0.0,0.0,0.0,0.0,0.0,0.0,0.0,0.0,0.0,0.0,0.0,0.0,0.0,0.0,0.0,0.0,0.0,0.0,0.0,0.0,0.0,0.0,0.0,0.0,0.0,0.0,0.0,0.5479,0.6094,0.6729,0.6729,0.6729,0.667,0.6455,0.0,0.0,0.0,0.0,0.0,0.0,0.0,0.0,0.0,0.0,0.0,0.0,0.0,0.0,0.0,0.0,0.0,0.0,0.0,0.0,0.0,0.0,0.0,0.0,0.4519,0.4519,0.4519,0.4545,0.466,0.4813,0.4884,0.4958,0.5033,0.5098,0.5176,0.5257,0.5328,0.5428,0.0,0.0,0.0,0.5428,0.5428,0.5428,0.5428,0.5379,0.4298,0.2746,0.2893,0.1683,0.0,0.0,0.0,0.0,0.0,0.0,-0.0676,-0.433,-0.5517,-0.5587,-0.5438,-0.546,-0.551,-0.544,-0.5426,-0.5428,-0.5428,-0.5432,-0.5369,-0.5428,-0.5372,-0.5379,-0.5372,-0.5379,-0.4773,-0.2811,-0.1071,0.0,0.0,0.0,0.0,0.0,0.0,0.0,0.0,0.0,0.0,0.0,0.0,0.0,0.0,0.0,0.0,0.0,0.0,0.0,0.0,0.0,0.0,0.0,0.0,0.0,0.0,0.0,0.0,0.5185,0.6071,0.6982,0.6914,0.6943,0.6895,0.6494,0.0,0.0,0.0,0.0,0.0,0.0,0.0,0.0,0.0,0.0,0.0,0.0,0.0,0.0,0.0,0.0,0.0,0.0,0.0,0.0,0.0,0.0,0.0,0.0,0.457,0.4574,0.4625,0.457,0.458,0.4653,0.4782,0.486,0.4887,0.5006,0.5077,0.5104,0.5257,0.5325,0.0,0.0,0.0,0.5428,0.5428,0.5428,0.5428,0.5386,0.43,0.2477,0.0673,0.0,0.0,0.0,0.0,0.0,0.0,0.0,-0.0606,-0.3976,-0.5199,-0.542,-0.5395,-0.5493,-0.5525,-0.5463,-0.5428,-0.5428,-0.5428,-0.5428,-0.5428,-0.5428,-0.5428,-0.5428,-0.5428,-0.5369,-0.5376,-0.5379,-0.2878,-0.0669,-0.0067,0.0,0.0,0.0,-0.0472,-0.0605,-0.0067,-0.047,-0.0605,-0.0067,0.0,0.0,0.0,0.0,0.0,0.0,0.0,0.0,0.0,0.0,0.0,0.0,0.0,0.0,0.0,0.0,0.0,0.5576,0.6084,0.6426,0.6097,0.625,0.6494,0.6426,0.0,0.0,0.0,0.0,0.0,0.0,0.0,0.0,0.0,0.0,0.0,0.0,0.0,0.0,0.0,0.0,0.0,0.0,0.0,0.0,0.0,0.0,0.0,0.0,0.0,0.4787,0.5324,0.4787,0.4529,0.4553,0.4577,0.4599,0.4724,0.4748,0.4826,0.4955,0.5101,0.5165,0.0,0.0,0.5428,0.5428,0.5428,0.5428,0.5428,0.5386,0.43,0.2477,0.0673,0.0,0.0,0.0,0.0,0.0,0.0,0.0,-0.0404,-0.248,-0.4167,-0.5396,-0.5396,-0.5399,-0.5459,-0.5432,-0.5428,-0.5428,-0.5428,-0.5428,-0.5428,-0.5428,-0.5428,-0.5428,-0.5428,-0.5428,-0.5432,-0.5376,-0.497,-0.3551,-0.0469,0.0,0.0,0.0,-0.2695,-0.3364,-0.0335,-0.2751,-0.3355,-0.0267,0.0,0.0,0.0,0.0,0.0,0.0,0.0,0.0,0.0,0.0,0.0,0.0,0.0,0.0,0.0,0.0,0.0,0.5543,0.585,0.612,0.6297,0.6731,0.7029,0.6739,0.0,0.0,0.0,0.0,0.0,0.0,0.0,0.0,0.0,0.0,0.0,0.0,0.0,0.0,0.0,0.0,0.0,0.0,0.0,0.0,0.0,0.0,0.0,0.0,0.0,0.4625,0.4948,0.468,0.4519,0.4519,0.4519,0.4553,0.4568,0.465,0.4728,0.4802,0.4948,0.5016,0.5023,0.0,0.5237,0.5243,0.5328,0.5432,0.5372,0.5389,0.4919,0.3832,0.101,0.0,0.0,0.0,0.0,0.0,0.0,-0.1347,-0.2894,-0.2748,-0.3956,-0.5382,-0.5432,-0.5428,-0.5428,-0.5428,-0.5428,-0.5428,-0.5428,-0.5428,-0.5428,-0.5428,-0.5428,-0.5428,-0.5428,-0.5428,-0.5428,-0.5369,-0.5376,-0.4834,-0.3147,-0.2074,-0.1473,-0.1476,-0.2887,-0.3694,-0.3013,-0.4436,-0.4709,-0.3076,-0.292,-0.2069,-0.014,0.0,0.0,0.0,0.0,0.0,0.0,0.0,0.0,0.0,0.0,0.0,0.0,0.0,0.0,0.5637,0.5817,0.6044,0.665,0.0,0.7377,0.7269,0.0,0.0,0.0,0.0,0.0,0.0,0.0,0.0,0.0,0.0,0.0,0.0,0.0,0.0,0.0,0.0,0.0,0.0,0.0,0.0,0.0,0.0,0.0,0.0,0.0,0.457,0.4732,0.457,0.4519,0.4519,0.4519,0.4519,0.4519,0.4582,0.4636,0.4643,0.4796,0.4867,0.4874,0.5016,0.5081,0.5094,0.5243,0.5315,0.5262,0.4897,0.4515,0.3777,0.101,0.0,0.0,0.0,0.0,0.0,0.0,-0.2424,-0.5135,-0.3758,-0.4295,-0.5376,-0.5432,-0.5428,-0.5428,-0.5428,-0.5428,-0.5428,-0.5428,-0.5428,-0.5428,-0.5428,-0.5428,-0.5428,-0.5428,-0.5428,-0.5428,-0.5428,-0.5369,-0.5376,-0.5379,-0.4225,-0.3349,-0.3351,-0.3349,-0.3887,-0.5243,-0.5382,-0.5399,-0.543,-0.554,-0.4427,-0.1644,-0.0578,0.0,0.0,0.0,0.0,0.0,0.0,0.0,0.0,0.0,0.0,0.0,0.0,0.0,0.6249,0.6307,0.6273,0.6696,0.6659,0.0,0.8016,0.7762,0.0,0.0,0.0,0.0,0.0,0.0,0.0,0.0,0.0,0.0,0.0,0.0,0.0,0.0,0.0,0.0,0.0,0.0,0.0,0.0,0.0,0.0,0.0,0.0,0.0,0.5433,0.4842,0.4519,0.4519,0.4519,0.4519,0.4519,0.4529,0.4532,0.4539,0.4636,0.4707,0.4714,0.4867,0.4935,0.4945,0.5087,0.5152,0.4983,0.3449,0.1879,0.0337,0.0067,0.0,0.0,0.0,0.0,0.0,0.0,-0.2424,-0.5343,-0.5262,-0.5316,-0.5376,-0.5432,-0.5428,-0.5428,-0.5428,-0.5428,-0.5428,-0.5428,-0.5428,-0.5428,-0.5428,-0.5428,-0.5428,-0.5428,-0.5428,-0.5428,-0.5428,-0.5428,-0.5432,-0.5376,-0.5309,-0.5179,-0.5189,-0.5183,-0.5243,-0.5379,-0.5369,-0.5426,-0.5434,-0.5926,-0.6105,-0.5897,-0.2134,0.0,0.0,0.0,0.0,0.0,0.0,0.0,0.0,0.0,0.0,0.0,0.0,0.0,0.6196,0.6414,0.6596,0.6964,0.7105,0.0,0.0,0.0,0.0,0.0,0.0,0.0,0.0,0.0,0.0,0.0,0.0,0.0,0.0,0.0,0.0,0.0,0.0,0.0,0.0,0.0,0.0,0.0,0.0,0.0,0.0,0.0,0.0,0.5487,0.4842,0.4901,0.5769,0.4956,0.4736,0.5109,0.4677,0.4519,0.4519,0.4577,0.4548,0.4558,0.4711,0.4775,0.4789,0.5009,0.5147,0.4974,0.2155,0.058,0.0,0.0,0.0,0.0,0.0,0.0,0.0,0.0,-0.168,-0.3964,-0.5052,-0.5382,-0.5432,-0.5428,-0.5428,-0.5428,-0.5428,-0.5428,-0.5428,-0.5428,-0.5428,-0.5428,-0.5428,-0.5428,-0.5428,-0.5369,-0.5432,-0.5428,-0.5372,-0.5432,-0.5428,-0.5432,-0.5369,-0.5369,-0.5372,-0.5369,-0.5369,-0.5369,-0.545,-0.5566,-0.5785,-0.5918,-0.6084,-0.6276,-0.2372,0.0,0.0,-0.2518,-0.2674,-0.0076,0.0,0.0,0.0,0.0,0.0,0.0,0.0,0.0,0.6266,0.6436,0.6618,0.0,0.0,0.0,0.0,0.0,0.0,0.0,0.0,0.0,0.0,0.0,0.0,0.0,0.0,0.0,0.0,0.0,0.0,0.0,0.0,0.0,0.0,0.0,0.0,0.0,0.0,0.0,0.0,0.0,0.0,0.0,0.4948,0.5277,0.6258,0.555,0.5386,0.5814,0.5167,0.468,0.4519,0.4519,0.4519,0.4522,0.4572,0.4619,0.4636,0.4921,0.5154,0.5027,0.1419,0.0,0.0,0.0,0.0,0.0,0.0,0.0,0.0,0.0,-0.0806,-0.2277,-0.4645,-0.5386,-0.5432,-0.5432,-0.5432,-0.5428,-0.5428,-0.5428,-0.5428,-0.5428,-0.5428,-0.5428,-0.5428,-0.5428,-0.5428,-0.5372,-0.448,-0.4071,-0.5233,-0.5432,-0.5428,-0.5428,-0.5428,-0.5428,-0.5428,-0.5428,-0.5428,-0.5428,-0.5538,-0.5768,-0.6015,-0.5986,-0.6073,-0.6264,-0.3597,-0.1406,-0.0078,-0.4084,-0.4967,-0.2038,-0.0705,0.0,0.0,0.0,0.0,0.0,0.0,0.0,0.6517,0.6401,0.6259,0.0,0.0,0.0,0.0,0.0,0.0,0.0,0.0,0.0,0.0,0.0,0.0,0.0,0.0,0.0,0.0,0.0,0.0,0.0,0.0,0.0,0.0,0.0,0.0,0.0,0.0,0.0,0.0,0.0,0.0,0.0,0.5164,0.5487,0.5542,0.6258,0.6588,0.6588,0.5873,0.5164,0.4519,0.4519,0.4519,0.4519,0.4519,0.4525,0.449,0.47,0.4995,0.4969,0.1419,0.0,0.0,0.0,0.0,0.0,0.0,0.0,0.0,0.0,0.0,-0.067,-0.4247,-0.5329,-0.5379,-0.5379,-0.5369,-0.5428,-0.5428,-0.5428,-0.5428,-0.5428,-0.5428,-0.5428,-0.5428,-0.5428,-0.5428,-0.5428,-0.2526,-0.1195,-0.4815,-0.5428,-0.5428,-0.5428,-0.5428,-0.5428,-0.5428,-0.5428,-0.5428,-0.5428,-0.5627,-0.5875,-0.6022,-0.6163,-0.6338,-0.6338,-0.6271,-0.4375,-0.0234,-0.4088,-0.6264,-0.625,-0.22,-0.0079,-0.0079,-0.0079,-0.0,-0.0,-0.0,-0.0,0.6354,0.6773,0.0,0.0,0.0,0.0,0.0,0.0,0.0,0.0,0.0,0.0,0.0,0.0,0.0,0.0,0.0,0.0,0.0,0.0,0.0,0.0,0.0,0.0,0.0,0.0,0.0,0.0,0.0,0.0,0.0,0.0,0.0,0.0,0.5378,0.5977,0.7015,0.6745,0.6858,0.7343,0.6086,0.5378,0.5164,0.4736,0.4519,0.4519,0.4519,0.4519,0.4415,0.3386,0.2455,0.1501,0.0404,0.0,0.0,0.0,0.0,0.0,0.0,0.0,0.0,0.0,0.0,-0.0196,-0.1267,-0.2479,-0.3754,-0.5036,-0.5376,-0.5372,-0.5428,-0.5428,-0.5428,-0.5428,-0.5428,-0.5428,-0.5428,-0.5428,-0.5428,-0.5372,-0.4547,-0.4138,-0.5233,-0.5432,-0.5428,-0.5428,-0.5428,-0.5428,-0.5428,-0.5428,-0.5428,-0.5428,-0.5627,-0.5803,-0.5875,-0.616,-0.6338,-0.6338,-0.6271,-0.5082,-0.233,-0.4859,-0.487,-0.1953,-0.3524,-0.4401,-0.4413,-0.2899,-0.2189,-0.2189,-0.2189,-0.2189,0.651,0.0,0.0,0.0,0.0,0.0,0.0,0.0,0.0,0.0,0.0,0.0,0.0,0.0,0.0,0.0,0.0,0.0,0.0,0.0,0.0,0.0,0.0,0.0,0.0,0.0,0.0,0.0,0.0,0.0,0.0,0.0,0.0,0.0,0.576,0.6524,0.767,0.7563,0.7723,0.8103,0.6864,0.6154,0.5928,0.4952,0.4519,0.4519,0.4522,0.4525,0.4356,0.2845,0.1339,0.0,0.0,0.0,0.0,0.0,0.0,0.0,0.0,0.0,0.0,0.0,0.0,0.0,0.0,-0.0791,-0.1848,-0.2937,-0.4292,-0.5376,-0.5369,-0.5432,-0.5428,-0.5428,-0.5428,-0.5428,-0.5428,-0.5428,-0.5428,-0.5369,-0.5432,-0.5428,-0.5369,-0.5432,-0.5428,-0.5428,-0.5428,-0.5428,-0.5428,-0.5428,-0.5428,-0.5428,-0.5554,-0.5653,-0.58,-0.6084,-0.6338,-0.6338,-0.6268,-0.5709,-0.4438,-0.5649,-0.4706,-0.1323,-0.4548,-0.6312,-0.6315,-0.5023,-0.4382,-0.4382,-0.4382,-0.4382,0.0,0.0,0.0,0.0,0.0,0.0,0.0,0.0,0.0,0.0,0.0,0.0,0.0,0.0,0.0,0.0,0.0,0.0,0.0,0.0,0.0,0.0,0.0,0.0,0.0,0.0,0.0,0.0,0.0,0.0,0.0,0.0,0.0,0.0,0.6253,0.6966,0.7616,0.8374,0.8752,0.0,0.777,0.7058,0.648,0.5117,0.4519,0.4519,0.4473,0.4477,0.4366,0.3014,0.1618,0.0391,0.0112,0.0,0.0,0.0,0.0,0.0,0.0,0.0,0.0,0.0,0.0,0.0,0.0,0.0,0.0,0.0,-0.2471,-0.5176,-0.5379,-0.5369,-0.5428,-0.5428,-0.5428,-0.5428,-0.5428,-0.5428,-0.5428,-0.5428,-0.5428,-0.5428,-0.5428,-0.5428,-0.5428,-0.5428,-0.5428,-0.5428,-0.5428,-0.5428,-0.5428,-0.5428,-0.5398,-0.5493,-0.58,-0.6071,-0.6325,-0.6335,-0.6338,-0.6338,-0.6338,-0.6305,-0.5352,-0.3429,-0.5268,-0.6315,-0.6295,-0.6295,-0.6291,-0.6291,-0.6291,-0.6291,0.0,0.0,0.0,0.0,0.0,0.0,0.0,0.0,0.0,0.0,0.0,0.0,0.0,0.0,0.0,0.0,0.0,0.0,0.0,0.0,0.0,0.0,0.0,0.0,0.0,0.0,0.0,0.0,0.0,0.0,0.0,0.0,0.0,0.5487,0.6794,0.7235,0.6858,0.8156,0.8209,0.0,0.7279,0.6836,0.5706,0.4897,0.4519,0.4519,0.4522,0.4525,0.448,0.4141,0.3811,0.3314,0.095,0.0,0.0,0.0,0.0,0.0,0.0,0.0,0.0,0.0,0.0,0.0,0.0,0.0,0.0,0.0,-0.158,-0.3618,-0.5036,-0.5369,-0.5428,-0.5428,-0.5428,-0.5428,-0.5428,-0.5428,-0.5428,-0.5428,-0.5428,-0.5428,-0.5428,-0.5428,-0.5428,-0.5428,-0.5428,-0.5428,-0.5428,-0.5428,-0.5428,-0.5428,-0.5525,-0.5677,-0.5718,-0.605,-0.6287,-0.6331,-0.6338,-0.6338,-0.6338,-0.6288,-0.6058,-0.5649,-0.6058,-0.6302,-0.6295,-0.6278,-0.6268,-0.6268,-0.6268,-0.6268,0.0,0.0,0.0,0.0,0.0,0.0,0.0,0.0,0.0,0.0,0.0,0.0,0.0,0.0,0.0,0.0,0.0,0.0,0.0,0.0,0.0,0.0,0.0,0.0,0.0,0.0,0.0,0.0,0.0,0.0,0.0,0.5819,0.6199,0.6519,0.7283,0.767,0.767,0.8427,0.8262,0.7128,0.6804,0.61,0.5003,0.468,0.4519,0.4519,0.4519,0.4522,0.4525,0.4525,0.4484,0.4274,0.1955,0.0615,0.0,0.0,0.0,0.0,0.0,0.0,0.0,0.0,0.0,0.0,0.0,0.0,0.0,0.0,-0.07,-0.1994,-0.4519,-0.5284,-0.539,-0.5254,-0.5308,-0.5428,-0.5428,-0.5428,-0.5428,-0.5428,-0.5428,-0.5428,-0.5428,-0.5428,-0.5428,-0.5428,-0.5428,-0.5428,-0.5428,-0.5428,-0.5428,-0.5428,-0.5628,-0.5722,-0.5721,-0.6088,-0.6332,-0.6331,-0.6338,-0.6338,-0.6338,-0.6278,-0.5805,-0.4766,-0.3828,-0.43,-0.6278,-0.6268,-0.6338,-0.6338,-0.6338,-0.6338,0.0,0.0,0.0,0.0,0.0,0.0,0.0,0.0,0.0,0.0,0.0,0.0,0.0,0.0,0.0,0.0,0.0,0.0,0.0,0.0,0.0,0.0,0.0,0.0,0.0,0.0,0.0,0.0,0.0,0.0,0.6588,0.6696,0.7074,0.767,0.783,0.8103,0.8586,0.8593,0.8156,0.7283,0.618,0.5261,0.4519,0.4519,0.4519,0.4519,0.4519,0.4519,0.4519,0.4519,0.4473,0.432,0.2792,0.1284,0.0,0.0,0.0,0.0,0.0,0.0,0.0,0.0,0.0,0.0,0.0,0.0,0.0,0.0,0.0,-0.0676,-0.364,-0.4859,-0.5279,-0.5135,-0.525,-0.5428,-0.5428,-0.5428,-0.5428,-0.5428,-0.5428,-0.5428,-0.5428,-0.5428,-0.5428,-0.5428,-0.5428,-0.5428,-0.5428,-0.5428,-0.5428,-0.5428,-0.5603,-0.5776,-0.58,-0.6136,-0.6311,-0.6335,-0.6338,-0.6338,-0.6338,-0.6271,-0.5476,-0.3653,-0.1945,-0.2804,-0.6264,-0.6264,-0.6338,-0.6338,-0.6338,-0.6338,0.0,0.0,0.0,0.0,0.0,0.0,0.0,0.0,0.0,0.0,0.0,0.0,0.0,0.0,0.0,0.0,0.0,0.0,0.0,0.0,0.0,0.0,0.0,0.0,0.0,0.0,0.0,0.0,0.0,0.0,0.6642,0.7182,0.7616,0.7723,0.8321,0.8374,0.783,0.783,0.7176,0.576,0.5058,0.4625,0.4519,0.4519,0.4519,0.4519,0.4519,0.4519,0.4519,0.4519,0.4525,0.4366,0.279,0.1283,0.0,0.0,0.0,0.0,0.0,0.0,0.0,0.0,0.0,0.0,0.0,0.0,0.0,0.0,0.0,-0.0369,-0.209,-0.3836,-0.5145,-0.5135,-0.525,-0.5428,-0.5428,-0.5428,-0.5428,-0.5428,-0.5428,-0.5428,-0.5428,-0.5428,-0.5428,-0.5428,-0.5428,-0.5428,-0.5428,-0.5428,-0.5428,-0.5428,-0.5586,-0.5811,-0.594,-0.6191,-0.6277,-0.6328,-0.6338,-0.6338,-0.6338,-0.6271,-0.619,-0.586,-0.5634,-0.5718,-0.6278,-0.6268,-0.6338,-0.6338,-0.6338,-0.6338,0.0,0.0,0.0,0.0,0.0,0.0,0.0,0.0,0.0,0.0,0.0,0.0,0.0,0.0,0.0,0.0,0.0,0.0,0.0,0.0,0.0,0.0,0.0,0.0,0.0,0.0,0.0,0.0,0.0,0.7653,0.7345,0.7653,0.7804,0.7804,0.8318,0.8403,0.8088,0.7811,0.6956,0.5487,0.4842,0.4519,0.4519,0.4519,0.4519,0.4519,0.4519,0.4519,0.4519,0.4519,0.4525,0.4425,0.3749,0.2066,0.0,0.0,0.0,0.0,0.0,0.0,0.0,0.0,0.0,0.0,0.0,0.0,0.0,0.0,0.0,-0.0351,-0.1807,-0.3466,-0.4789,-0.4921,-0.5081,-0.5257,-0.5408,-0.5428,-0.5428,-0.5428,-0.5428,-0.5428,-0.5428,-0.5428,-0.5428,-0.5428,-0.5428,-0.5428,-0.5428,-0.5428,-0.5463,-0.562,-0.5693,-0.584,-0.5991,-0.6149,-0.6266,-0.6335,-0.6338,-0.6338,-0.6338,-0.6268,-0.6271,-0.6271,-0.6274,-0.6274,-0.6268,-0.6264,-0.6338,-0.6338,-0.6338,-0.6338,0.0,0.0,0.0,0.0,0.0,0.0,0.0,0.0,0.0,0.0,0.0,0.0,0.0,0.0,0.0,0.0,0.0,0.0,0.0,0.0,0.0,0.0,0.0,0.0,0.0,0.0,0.0,0.0,0.0,0.7882,0.7882,0.7882,0.7882,0.7882,0.8143,0.8263,0.8263,0.765,0.6706,0.5421,0.4984,0.4842,0.5007,0.5007,0.5007,0.5011,0.468,0.4519,0.4519,0.4519,0.4522,0.4477,0.449,0.2907,0.0502,0.0112,0.0,0.0,0.0,0.0,0.0,0.0,0.0,0.0,0.0,0.0,0.0,0.0,0.0,-0.0448,-0.2293,-0.3618,-0.4559,-0.4733,-0.4972,-0.524,-0.5394,-0.5428,-0.5428,-0.5428,-0.5428,-0.5428,-0.5428,-0.5428,-0.5428,-0.5428,-0.5428,-0.5428,-0.5428,-0.5428,-0.5487,-0.5645,-0.5789,-0.5861,-0.5942,-0.6173,-0.6338,-0.6338,-0.6338,-0.6338,-0.6338,-0.6338,-0.6264,-0.6274,-0.6278,-0.6274,-0.6268,-0.6264,-0.6338,-0.6338,-0.6338,-0.6338,0.0,0.0,0.0,0.0,0.0,0.0,0.0,0.0,0.0,0.0,0.0,0.0,0.0,0.0,0.0,0.0,0.0,0.0,0.0,0.0,0.0,0.0,0.0,0.0,0.0,0.0,0.0,0.0,0.0,0.7882,0.7882,0.7882,0.7882,0.7882,0.7895,0.7908,0.7908,0.6812,0.5953,0.5293,0.5408,0.5819,0.648,0.648,0.648,0.6426,0.5062,0.4519,0.4519,0.4519,0.4519,0.4522,0.4487,0.3527,0.1896,0.0504,0.0,0.0,0.0,0.0,0.0,0.0,0.0,0.0,0.0,0.0,0.0,0.0,0.0,-0.0672,-0.3599,-0.4441,-0.4575,-0.477,-0.5095,-0.5371,-0.5394,-0.5428,-0.5428,-0.5428,-0.5428,-0.5428,-0.5428,-0.5428,-0.5428,-0.5428,-0.5428,-0.5428,-0.5428,-0.5428,-0.542,-0.5431,-0.5644,-0.5788,-0.579,-0.6093,-0.6338,-0.6338,-0.6338,-0.6338,-0.6338,-0.6338,-0.6338,-0.6264,-0.6274,-0.6278,-0.6278,-0.6268,-0.6338,-0.6338,-0.6338,-0.6338,0.0,0.0,0.0,0.0,0.0,0.0,0.0,0.0,0.0,0.0,0.0,0.0,0.0,0.0,0.0,0.0,0.0,0.0,0.0,0.0,0.0,0.0,0.0,0.0,0.0,0.0,0.0,0.0,0.0,0.0,0.7304,0.7304,0.7304,0.7304,0.7535,0.7484,0.7176,0.6775,0.6352,0.5887,0.5906,0.6173,0.6588,0.6588,0.6588,0.6534,0.5546,0.5164,0.5109,0.468,0.4519,0.4519,0.4487,0.3583,0.2009,0.056,0.0,0.0,0.0,0.0,0.0,0.0,0.0,0.0,0.0,0.0,0.0,0.0,0.0,-0.0448,-0.2523,-0.3051,-0.3345,-0.4559,-0.5071,-0.5269,-0.5397,-0.5432,-0.5428,-0.5372,-0.5372,-0.5372,-0.5372,-0.5372,-0.5369,-0.5428,-0.5428,-0.5428,-0.5428,-0.5428,-0.542,-0.5572,-0.5637,-0.5762,-0.5932,-0.616,-0.6311,-0.6331,-0.6338,-0.6338,-0.6338,-0.6338,-0.6268,-0.6285,-0.6281,-0.6274,-0.6268,-0.6271,-0.6268,-0.6338,-0.6338,-0.6338,0.0,0.0,0.0,0.0,0.0,0.0,0.0,0.0,0.0,0.0,0.0,0.0,0.0,0.0,0.0,0.0,0.0,0.0,0.0,0.0,0.0,0.0,0.0,0.0,0.0,0.0,0.0,0.0,0.0,0.0,0.6979,0.6979,0.6979,0.6979,0.7214,0.709,0.658,0.6661,0.6594,0.6489,0.6569,0.6837,0.7343,0.7343,0.7343,0.7289,0.6308,0.5706,0.5433,0.4787,0.4519,0.4519,0.4487,0.3583,0.2009,0.056,0.0,0.0,0.0,0.0,0.0,0.0,0.0,0.0,0.0,0.0,0.0,0.0,0.0,-0.0336,-0.1794,-0.2597,-0.3285,-0.4559,-0.5009,-0.5145,-0.5342,-0.5376,-0.5369,-0.5382,-0.4903,-0.4495,-0.4495,-0.497,-0.5376,-0.5369,-0.5428,-0.5428,-0.5428,-0.5428,-0.542,-0.5572,-0.5589,-0.5614,-0.5782,-0.6077,-0.6307,-0.6332,-0.6311,-0.6264,-0.6268,-0.6268,-0.6278,-0.6295,-0.6295,-0.6288,-0.6274,-0.6278,-0.6274,-0.6338,-0.6338,-0.6338,0.0,0.0,0.0,0.0,0.0,0.0,0.0,0.0,0.0,0.0,0.0,0.0,0.0,0.0,0.0,0.0,0.0,0.0,0.0,0.0,0.0,0.0,0.0,0.0,0.0,0.0,0.0,0.0,0.0,0.6979,0.6979,0.6979,0.6979,0.6979,0.6979,0.6768,0.6221,0.6369,0.6672,0.7134,0.7256,0.7832,0.8798,0.8804,0.8804,0.8699,0.7235,0.6204,0.5487,0.4787,0.4519,0.4519,0.4487,0.3583,0.2009,0.056,0.0,0.0,0.0,0.0,0.0,0.0,0.0,0.0,0.0,0.0,0.0,0.0,0.0,-0.0336,-0.1741,-0.3337,-0.4572,-0.477,-0.4912,-0.5057,-0.5352,-0.5386,-0.5382,-0.5393,-0.3961,-0.2744,-0.2611,-0.409,-0.5309,-0.5379,-0.5369,-0.5428,-0.5428,-0.5428,-0.5416,-0.5424,-0.5369,-0.5424,-0.5415,-0.5932,-0.6254,-0.6261,-0.6329,-0.6264,-0.6278,-0.6197,-0.6203,-0.6295,-0.6318,-0.6318,-0.6298,-0.6285,-0.6274,-0.6338,-0.6338,-0.6338,0.7841,0.0,0.0,0.0,0.0,0.0,0.0,0.0,0.0,0.0,0.0,0.0,0.0,0.0,0.0,0.0,0.0,0.0,0.0,0.0,0.0,0.0,0.0,0.0,0.0,0.0,0.0,0.0,0.6979,0.6979,0.6979,0.6979,0.6979,0.6979,0.6979,0.6937,0.6768,0.6796,0.7025,0.7406,0.7611,0.8006,0.8504,0.8711,0.8804,0.8752,0.7658,0.7079,0.6727,0.5179,0.4519,0.4519,0.4487,0.3583,0.2009,0.056,0.0,0.0,0.0,0.0,0.0,0.0,0.0,0.0,0.0,0.0,0.0,0.0,0.0,-0.0112,-0.0503,-0.2538,-0.4492,-0.4569,-0.378,-0.3456,-0.5084,-0.5401,-0.5403,-0.5406,-0.4995,-0.3832,-0.1205,-0.2275,-0.3887,-0.5176,-0.5369,-0.5428,-0.5428,-0.5428,-0.5376,-0.5416,-0.5423,-0.5416,-0.5421,-0.554,-0.5803,-0.6247,-0.631,-0.6315,-0.6274,-0.3354,-0.3205,-0.624,-0.6325,-0.6325,-0.6318,-0.6302,-0.6285,-0.6274,-0.6264,-0.6338,0.0,0.0,0.0,0.0,0.0,0.0,0.0,0.0,0.0,0.0,0.0,0.0,0.0,0.0,0.0,0.0,0.0,0.0,0.0,0.0,0.0,0.0,0.0,0.0,0.0,0.0,0.0,0.7405,0.7147,0.6979,0.6979,0.6979,0.6979,0.6979,0.6979,0.6979,0.6979,0.6979,0.7168,0.7513,0.7649,0.7963,0.8383,0.855,0.8691,0.8752,0.7788,0.7376,0.7236,0.5289,0.4519,0.4519,0.4487,0.3925,0.2907,0.0784,0.0,0.0,0.0,0.0,0.0,0.0,0.0,0.0,0.0,0.0,0.0,0.0,0.0,0.0,0.0,-0.1285,-0.2941,-0.4219,-0.3827,-0.3557,-0.5091,-0.5408,-0.4942,-0.3431,-0.4389,-0.4724,-0.2619,-0.3151,-0.4159,-0.5243,-0.5369,-0.5428,-0.5428,-0.5428,-0.5428,-0.5428,-0.5428,-0.5396,-0.5416,-0.548,-0.5664,-0.5985,-0.6138,-0.5796,-0.501,-0.3467,-0.2947,-0.3696,-0.3698,-0.409,-0.4956,-0.4943,-0.5407,-0.6271,-0.6264,-0.6338,0.0,0.0,0.0,0.0,0.0,0.0,0.5762,0.5764,0.0,0.0,0.0,0.0,0.0,0.0,0.0,0.0,0.0,0.0,0.0,0.0,0.0,0.0,0.0,0.0,0.0,0.8139,0.7833,0.7787,0.7321,0.6979,0.6979,0.6979,0.6979,0.6979,0.6979,0.6979,0.6979,0.6979,0.7154,0.7459,0.7493,0.7795,0.8326,0.8343,0.8517,0.8712,0.7919,0.7458,0.7177,0.5285,0.4515,0.4519,0.4487,0.4497,0.4157,0.112,0.0,0.0,0.0,0.0,0.0,0.0,0.0,0.0,0.0,0.0,0.0,0.0,0.0,0.0,0.0,0.0,-0.0676,-0.3382,-0.401,-0.4153,-0.4674,-0.481,-0.3863,-0.0604,-0.2898,-0.5413,-0.5413,-0.5393,-0.5379,-0.5379,-0.5369,-0.5428,-0.5428,-0.5428,-0.5428,-0.5428,-0.5428,-0.5428,-0.5428,-0.5488,-0.5572,-0.5589,-0.5792,-0.5053,-0.3153,-0.4696,-0.3834,-0.0078,0.0,-0.1019,-0.3124,-0.3359,-0.4453,-0.6338,-0.6338,-0.6338,0.0,0.0,0.0,0.0,0.0,0.0,0.0,0.5527,0.0,0.0,0.0,0.0,0.0,0.0,0.0,0.0,0.0,0.0,0.0,0.0,0.0,0.0,0.0,0.0,0.0,0.7765,0.7397,0.7175,0.7063,0.6979,0.6979,0.6979,0.6979,0.6979,0.6979,0.6979,0.6979,0.6979,0.7054,0.7108,0.7348,0.7574,0.7708,0.8199,0.841,0.8477,0.8501,0.7836,0.6647,0.514,0.4491,0.4519,0.4487,0.4497,0.4157,0.112,0.0,0.0,0.0,0.0,0.0,0.0,0.0,0.0,0.0,0.0,0.0,0.0,0.0,0.0,0.0,0.0,-0.0168,-0.0734,-0.0867,-0.0893,-0.1051,-0.108,-0.0847,-0.0134,-0.2898,-0.5413,-0.5413,-0.5393,-0.5379,-0.5379,-0.5369,-0.5428,-0.5428,-0.5428,-0.5428,-0.5428,-0.5428,-0.5428,-0.5428,-0.5456,-0.5457,-0.5583,-0.5554,-0.4779,-0.3143,-0.1866,-0.0833,-0.0,0.0,-0.1019,-0.3124,-0.4859,-0.5883,-0.6338,-0.6338,-0.6338,0.0,0.0,0.0,0.7068,0.0,0.0,0.0,0.0,0.0,0.0,0.0,0.0,0.0,0.0,0.0,0.0,0.0,0.0,0.0,0.0,0.0,0.0,0.0,0.0,0.0,0.7584,0.709,0.6821,0.6943,0.7011,0.7014,0.6979,0.6979,0.6979,0.6979,0.6979,0.6979,0.6979,0.6979,0.7021,0.7174,0.7321,0.752,0.7829,0.8138,0.844,0.8689,0.796,0.648,0.5097,0.4501,0.4519,0.4487,0.3583,0.2065,0.056,0.0,0.0,0.0,0.0,0.0,0.0,0.0,0.0,0.0,0.0,0.0,0.0,0.0,0.0,0.0,0.0,0.0,0.0,0.0,0.0,0.0,0.0,0.0,0.0,-0.1464,-0.3288,-0.5062,-0.5389,-0.5376,-0.5372,-0.5432,-0.5428,-0.5428,-0.5428,-0.5428,-0.5428,-0.5428,-0.5428,-0.5428,-0.5428,-0.5463,-0.5471,-0.5416,-0.507,-0.428,-0.1533,0.0,0.0,0.0,-0.1019,-0.3132,-0.526,-0.6285,-0.6338,-0.6338,-0.6338,0.0,0.0,0.0,0.0,0.0,0.655,0.0,0.0,0.0,0.593,0.0,0.0,0.0,0.0,0.0,0.0,0.0,0.0,0.0,0.0,0.0,0.0,0.0,0.0,0.0,0.722,0.6687,0.6518,0.6673,0.6797,0.6921,0.6941,0.6967,0.6979,0.6979,0.6979,0.6979,0.6979,0.6979,0.6979,0.6979,0.7148,0.7426,0.7486,0.7782,0.8266,0.8622,0.7942,0.6474,0.5105,0.4519,0.4519,0.4487,0.2681,0.0,0.0,0.0,0.0,0.0,0.0,0.0,0.0,0.0,0.0,0.0,0.0,0.0,0.0,0.0,0.0,0.0,0.0,0.0,0.0,0.0,0.0,0.0,0.0,0.0,0.0,0.0,-0.1063,-0.4298,-0.5176,-0.5372,-0.5428,-0.5428,-0.5428,-0.5428,-0.5428,-0.5428,-0.5428,-0.5428,-0.5428,-0.5428,-0.5428,-0.5428,-0.5428,-0.5372,-0.5373,-0.5431,-0.1929,0.0,0.0,0.0,-0.0863,-0.2511,-0.4631,-0.5886,-0.6264,-0.6264,-0.6338,0.0,0.0,0.0,0.0,0.8138,0.0,0.0,0.0,0.5658,0.5293,0.0,0.0,0.0,0.0,0.0,0.0,0.0,0.0,0.0,0.0,0.0,0.0,0.0,0.0,0.0,0.0,0.5956,0.6216,0.6001,0.6095,0.6613,0.664,0.6754,0.6972,0.6979,0.6979,0.6979,0.6979,0.6979,0.6979,0.6979,0.7041,0.7081,0.7341,0.7547,0.7654,0.8439,0.7941,0.6473,0.5054,0.4519,0.4519,0.4487,0.2681,0.0,0.0,0.0,0.0,0.0,0.0,0.0,0.0,0.0,0.0,0.0,0.0,0.0,0.0,0.0,0.0,0.0,0.0,0.0,0.0,0.0,0.0,0.0,0.0,0.0,0.0,0.0,-0.0651,-0.2667,-0.4353,-0.5428,-0.5428,-0.5428,-0.5428,-0.5428,-0.5428,-0.5428,-0.5428,-0.5428,-0.5428,-0.5428,-0.5428,-0.5428,-0.5428,-0.5372,-0.5389,-0.542,-0.1913,0.0,0.0,0.0,-0.0078,-0.0392,-0.2423,-0.4457,-0.6278,-0.6268,-0.6338,0.0,0.0,0.0,0.0,0.0,0.0,0.0,0.0,0.5654,0.0,0.0,0.0,0.0,0.0,0.0,0.0,0.0,0.0,0.0,0.0,0.0,0.0,0.0,0.0,0.0,0.0,0.0,0.0,0.0,0.5645,0.6059,0.6246,0.6512,0.676,0.6767,0.6854,0.6979,0.6979,0.6979,0.6979,0.6979,0.6979,0.7027,0.7154,0.7301,0.7533,0.7667,0.7302,0.6478,0.5055,0.4501,0.4519,0.4487,0.2681,0.0,0.0,0.0,0.0,0.0,0.0,0.0,0.0,0.0,0.0,0.0,0.0,0.0,0.0,0.0,0.0,0.0,0.0,0.0,0.0,0.0,0.0,0.0,0.0,0.0,0.0,0.0,-0.0905,-0.3806,-0.4903,-0.5369,-0.5428,-0.5428,-0.5428,-0.5428,-0.5432,-0.5372,-0.5372,-0.5376,-0.5382,-0.5382,-0.5376,-0.5372,-0.5372,-0.4425,-0.433,-0.5323,-0.1928,0.0,0.0,0.0,0.0,-0.0,-0.2115,-0.4233,-0.6288,-0.6271,-0.6338,1.1066,0.0,0.0,0.0,0.0,0.0,0.0,0.0,0.0,0.0,0.0,0.0,0.0,0.0,0.0,0.0,0.0,0.0,0.0,0.0,0.0,0.0,0.0,0.0,0.0,0.0,0.0,0.0,0.0,0.0,0.5571,0.5833,0.6156,0.6573,0.6587,0.6727,0.6979,0.6979,0.6979,0.6979,0.6979,0.6979,0.6979,0.6979,0.7055,0.7134,0.703,0.6712,0.6152,0.4996,0.4474,0.4522,0.4473,0.2681,0.0,0.0,0.0,0.0,0.0,0.0,0.0,0.0,0.0,0.0,0.0,0.0,0.0,0.0,0.0,0.0,0.0,0.0,0.0,0.0,0.0,0.0,0.0,0.0,0.0,0.0,0.0,-0.1152,-0.4749,-0.5382,-0.5372,-0.5428,-0.5428,-0.5428,-0.5428,-0.5372,-0.5379,-0.5379,-0.4976,-0.4643,-0.4643,-0.4637,-0.4903,-0.5386,-0.3687,-0.3067,-0.3897,-0.137,0.0,0.0,0.0,0.0,-0.0,-0.149,-0.361,-0.6305,-0.6278,-0.6264,0.0,0.0,0.0,0.9666,0.0,0.0,0.0,0.0,0.626,0.0,0.0,0.0,0.0,0.0,0.0,0.5465,0.0,0.0,0.0,0.0,0.0,0.0,0.0,0.0,0.0,0.0,0.0,0.0,0.0,0.0,0.5282,0.5336,0.5705,0.6567,0.6587,0.6727,0.6979,0.6979,0.6979,0.6979,0.6979,0.6979,0.6979,0.6979,0.6732,0.6257,0.6769,0.6377,0.5311,0.4751,0.4523,0.4492,0.4491,0.2681,0.0,0.0,0.0,0.0,0.0,0.0,0.0,0.0,0.0,0.0,0.0,0.0,0.0,0.0,0.0,0.0,0.0,0.0,0.0,0.0,0.0,0.0,0.0,0.0,0.0,0.0,0.0,-0.1129,-0.4803,-0.5376,-0.5428,-0.5428,-0.5428,-0.5428,-0.5428,-0.5372,-0.5379,-0.5379,-0.382,-0.2811,-0.2811,-0.2811,-0.3556,-0.5272,-0.3694,-0.1922,-0.0218,-0.0073,0.0,0.0,0.0,0.0,-0.0,-0.0078,-0.2275,-0.6329,-0.6295,-0.6271,0.0,0.0,1.3496,1.1045,0.0,0.0,0.0,0.0,0.0,0.0,0.0,0.0,0.0,0.0,0.6934,0.6351,0.6138,0.0,0.0,0.0,0.0,0.0,0.0,0.0,0.0,0.0,0.0,0.0,0.0,0.0,0.0,0.5419,0.5786,0.5992,0.6236,0.6478,0.6734,0.6927,0.6979,0.6979,0.6979,0.6979,0.6979,0.6979,0.6683,0.6184,0.5985,0.5676,0.5237,0.431,0.4158,0.4485,0.4488,0.2681,0.0,0.0,0.0,0.0,0.0,0.0,0.0,0.0,0.0,0.0,0.0,0.0,0.0,0.0,0.0,0.0,0.0,0.0,0.0,0.0,0.0,0.0,0.0,0.0,0.0,0.0,0.0,-0.1121,-0.4748,-0.5384,-0.5369,-0.5428,-0.5428,-0.5428,-0.5428,-0.5379,-0.4909,-0.3754,-0.2013,-0.0941,-0.0941,-0.0939,-0.2213,-0.5205,-0.4858,-0.3147,-0.0142,0.0,0.0,0.0,0.0,0.0,0.0,0.0,-0.0706,-0.2196,-0.5034,-0.6298,1.4394,1.4558,0.0,1.2115,1.1527,0.0,0.8806,0.0,0.0,0.0,0.0,0.0,0.0,0.0,0.0,0.7489,0.6887,0.0,0.0,0.0,0.0,0.0,0.0,0.0,0.0,0.0,0.4614,0.4614,0.0,0.0,0.0,0.0,0.5586,0.5698,0.6035,0.6337,0.6587,0.688,0.6979,0.6979,0.6979,0.6979,0.6979,0.6719,0.6337,0.583,0.5308,0.4918,0.4617,0.3882,0.3972,0.451,0.4518,0.2679,0.0,0.0,0.0,0.0,0.0,0.0728,0.1401,0.0336,0.0,0.0,0.0,0.0,0.0,0.0,0.0,0.0,0.0,0.0,0.0,0.0,0.0,0.0,0.0,0.0,0.0,0.0,0.0,-0.0746,-0.3073,-0.4555,-0.5379,-0.5428,-0.5428,-0.5428,-0.5428,-0.5379,-0.4706,-0.288,-0.1074,0.0,0.0,0.0,-0.1006,-0.3303,-0.4663,-0.3771,-0.0142,0.0,0.0,0.0,0.0,0.0,0.0,0.0,0.0,-0.0078,-0.2829,-0.4084]}]]